[[{"header":{"parameterUnit":"m.s-1","parameterCategory":1,"la1":31.0,"la2":29.5877,"lo1":-88.7671,"lo2":-86.6584,"dy":0.0162,"dx":0.0185,"nx":115,"ny":88,"refTime":"2023-04-19T00:00:00:Z","depth":0,"parameterNumber":2,"parameterNumberName":"U-component_of_WINDS"},"data":[0.0,0.0,0.0,0.0,0.0,0.0,0.0,0.0,0.0,0.0,0.0,0.0,0.0,0.0,0.0,0.0,0.0,0.0,0.0,0.0,0.0,0.0,0.0,0.0,0.0,0.0,0.0,0.0,0.0,0.0,0.0,0.0,0.0,0.0,0.0,0.0,0.0,0.0,0.0,0.0,0.0,0.0,0.0,0.0,0.0,0.0,0.0,0.0,0.0,0.0,0.0,0.0,0.0,0.0,0.0,0.0,0.0,0.0,0.0,0.0,0.0,0.0,0.0,0.0,0.0,0.0,0.0,0.0,0.0,0.0,0.0,0.0,0.0,0.0,0.0,0.0,0.0,0.0,0.0,0.0,0.0,0.0,0.0,0.0,0.0,0.0,0.0,0.0,0.0,0.0,0.0,0.0,0.0,0.0,0.0,0.0,0.0,0.0,0.0,0.0,0.0,0.0,0.0,0.0,0.0,0.0,0.0,0.0,0.0,0.0,0.0,0.0,0.0,0.0,0.0,0.0,0.0,0.0,0.0,0.0,0.0,0.0,0.0,0.0,0.0,0.0,0.0,0.0,0.0,0.0,0.0,0.0,0.0,0.0,0.0,0.0,0.0,0.0,0.0,0.0,0.0,0.0,0.0,0.0,0.0,0.0,0.0,0.0,0.0,0.0,0.0,0.0,0.0,0.0,0.0,0.0,0.0,0.0,0.0,0.0,0.0,0.0,0.0,0.0,0.0,0.0,0.0,0.0,0.0,0.0,0.0,0.0,0.0,0.0,0.0,0.0,0.0,0.0,0.0,0.0,0.0,0.0,0.0,0.0,0.0,0.0,0.0,0.0,0.0,0.0,0.0,0.0,0.0,0.0,0.0,0.0,0.0,0.0,0.0,0.0,0.0,0.0,0.0,0.0,0.0,0.0,0.0,0.0,0.0,0.0,0.0,0.0,0.0,0.0,0.0,0.0,0.0,0.0,0.0,0.0,0.0,0.0,0.0,0.0,0.0,0.0,0.0,0.0,0.0,0.0,0.0,0.0,0.0,0.0,0.0,0.0,0.0,0.0,0.0,0.0,0.0,0.0,0.0,0.0,0.0,0.0,0.0,0.0,0.0,0.0,0.0,0.0,0.0,0.0,0.0,0.0,0.0,0.0,0.0,0.0,0.0,0.0,0.0,0.0,0.0,0.0,0.0,0.0,0.0,0.0,0.0,0.0,0.0,0.0,0.0,0.0,0.0,0.0,0.0,0.0,0.0,0.0,0.0,0.0,0.0,0.0,0.0,0.0,0.0,0.0,0.0,0.0,0.0,0.0,0.0,0.0,0.0,0.0,0.0,0.0,0.0,0.0,0.0,0.0,0.0,0.0,0.0,0.0,0.0,0.0,0.0,0.0,0.0,0.0,0.0,0.0,0.0,0.0,0.0,0.0,0.0,0.0,0.0,0.0,0.0,0.0,0.0,0.0,0.0,0.0,0.0,0.0,0.0,0.0,0.0,0.0,0.0,0.0,0.0,0.0,0.0,0.0,0.0,0.0,0.0,0.0,0.0,0.0,0.0,0.0,0.0,0.0,0.0,0.0,0.0,0.0,0.0,0.0,0.0,0.0,0.0,0.0,0.0,0.0,0.0,0.0,0.0,0.0,0.0,0.0,0.0,0.0,0.0,0.0,0.0,0.0,0.0,0.0,0.0,0.0,0.0,0.0,0.0,0.0,0.0,0.0,0.0,0.0,0.0,0.0,0.0,0.0,0.0,0.0,0.0,0.0,0.0,0.0,0.0,0.0,0.0,0.0,0.0,0.0,0.0,0.0,0.0,0.0,0.0,0.0,0.0,0.0,0.0,0.0,0.0,0.0,0.0,0.0,0.0,0.0,0.0,0.0,0.0,0.0,0.0,0.0,0.0,0.0,0.0,0.0,0.0,0.0,0.0,0.0,0.0,0.0,0.0,0.0,0.0,0.0,0.0,0.0,0.0,0.0,0.0,0.0,0.0,0.0,0.0,0.0,0.0,0.0,0.0,0.0,0.0,0.0,0.0,0.0,0.0,0.0,0.0,0.0,0.0,0.0,0.0,0.0,0.0,0.0,0.0,0.0,0.0,0.0,0.0,0.0,0.0,0.0,0.0,0.0,0.0,0.0,0.0,0.0,0.0,0.0,0.0,0.0,0.0,0.0,0.0,0.0,0.0,0.0,0.0,0.0,0.0,0.0,0.0,0.0,0.0,0.0,0.0,0.0,0.0,0.0,0.0,0.0,0.0,0.0,0.0,0.0,0.0,0.0,0.0,0.0,0.0,0.0,0.0,0.0,0.0,0.0,0.0,0.0,0.0,0.0,0.0,0.0,0.0,0.0,0.0,0.0,0.0,0.0,0.0,0.0,0.0,0.0,0.0,0.0,0.0,0.0,0.0,0.0,0.0,0.0,0.0,0.0,0.0,0.0,0.0,0.0,0.0,0.0,0.0,0.0,0.0,0.0,0.0,0.0,0.0,0.0,0.0,0.0,0.0,0.0,0.0,0.0,0.0,0.0,0.0,0.0,0.0,0.0,0.0,0.0,0.0,0.0,0.0,0.0,0.0,0.0,0.0,0.0,0.0,0.0,0.0,0.0,0.0,0.0,0.0,0.0,0.0,0.0,0.0,0.0,0.0,0.0,0.0,0.0,0.0,0.0,0.0,0.0,0.0,0.0,0.0,0.0,0.0,0.0,0.0,0.0,0.0,0.0,0.0,0.0,0.0,0.0,0.0,0.0,0.0,0.0,0.0,0.0,0.0,0.0,0.0,0.0,0.0,0.0,0.0,0.0,0.0,0.0,0.0,0.0,0.0,0.0,0.0,0.0,0.0,0.0,0.0,0.0,0.0,0.0,0.0,0.0,0.0,0.0,0.0,0.0,0.0,0.0,0.0,0.0,0.0,0.0,0.0,0.0,0.0,0.0,0.0,0.0,0.0,0.0,0.0,0.0,0.0,0.0,0.0,0.0,0.0,0.0,0.0,0.0,0.0,0.0,0.0,0.0,0.0,0.0,0.0,0.0,0.0,0.0,0.0,0.0,0.0,0.0,0.0,0.0,0.0,0.0,0.0,0.0,0.0,0.0,0.0,0.0,0.0,0.0,0.0,0.0,0.0,0.0,0.0,0.0,0.0,0.0,0.0,0.0,0.0,0.0,0.0,0.0,0.0,0.0,0.0,0.0,0.0,0.0,0.0,0.0,0.0,0.0,0.0,0.0,0.0,0.0,0.0,0.0,0.0,0.0,0.0,0.0,0.0,0.0,0.0,0.0,0.0,0.0,0.0,0.0,0.0,0.0,0.0,0.0,0.0,0.0,0.0,0.0,0.0,0.0,0.0,0.0,0.0,0.0,0.0,0.0,0.0,0.0,0.0,0.0,0.0,0.0,0.0,0.0,0.0,0.0,0.0,0.0,0.0,0.0,0.0,0.0,0.0,0.0,0.0,0.0,0.0,0.0,0.0,0.0,0.0,0.0,0.0,0.0,0.0,0.0,0.0,0.0,0.0,0.0,0.0,0.0,0.0,0.0,0.0,0.0,0.0,0.0,0.0,0.0,0.0,0.0,0.0,0.0,0.0,0.0,0.0,0.0,0.0,0.0,0.0,0.0,0.0,0.0,0.0,0.0,0.0,0.0,0.0,0.0,0.0,0.0,0.0,0.0,0.0,0.0,0.0,0.0,0.0,0.0,0.0,0.0,0.0,0.0,0.0,0.0,0.0,0.0,0.0,0.0,0.0,0.0,0.0,0.0,0.0,0.0,0.0,0.0,0.0,0.0,0.0,0.0,0.0,0.0,0.0,0.0,0.0,0.0,0.0,0.0,0.0,0.0,0.0,0.0,0.0,0.0,0.0,0.0,0.0,0.0,0.0,0.0,0.0,0.0,0.0,0.0,0.0,0.0,0.0,0.0,0.0,0.0,0.0,0.0,0.0,0.0,0.0,0.0,0.0,0.0,0.0,0.0,0.0,0.0,0.0,0.0,0.0,0.0,0.0,0.0,0.0,0.0,0.0,0.0,0.0,0.0,0.0,0.0,0.0,0.0,0.0,0.0,0.0,0.0,0.0,0.0,0.0,0.0,0.0,0.0,0.0,0.0,0.0,0.0,0.0,0.0,0.0,0.0,0.0,0.0,0.0,0.0,0.0,0.0,0.0,0.0,0.0,0.0,0.0,0.0,0.0,0.0,0.0,0.0,0.0,0.0,0.0,0.0,0.0,0.0,0.0,0.0,0.0,0.0,0.0,0.0,0.0,0.0,0.0,0.0,0.0,0.0,0.0,0.0,1.9098,0.0,0.0,0.0,0.0,0.0,0.0,0.0,0.0,0.0,0.0,0.0,0.0,0.0,0.0,0.0,0.0,0.0,0.0,0.0,0.0,0.0,0.0,0.0,0.0,0.0,0.0,0.0,0.0,0.0,0.0,0.0,0.0,0.0,0.0,0.0,0.0,0.0,0.0,0.0,0.0,0.0,0.0,0.0,0.0,0.0,0.0,0.0,0.0,0.0,0.0,0.0,0.0,0.0,0.0,0.0,0.0,0.0,0.0,0.0,0.0,0.0,0.0,0.0,0.0,0.0,0.0,0.0,0.0,0.0,0.0,0.0,0.0,0.0,0.0,0.0,0.0,0.0,0.0,0.0,0.0,0.0,0.0,0.0,0.0,0.0,0.0,0.0,0.0,0.0,0.0,0.0,0.0,0.0,0.0,0.0,0.0,0.0,0.0,0.0,0.0,0.0,0.0,0.0,0.0,0.0,0.0,0.0,0.0,0.0,0.0,1.8533,1.8549,1.8684,1.8764,1.8785,0.0,0.0,0.0,0.0,0.0,0.0,0.0,0.0,0.0,0.0,0.0,0.0,0.0,0.0,0.0,0.0,0.0,0.0,0.0,0.0,0.0,0.0,0.0,0.0,0.0,0.0,0.0,0.0,0.0,0.0,0.0,0.0,0.0,0.0,0.0,0.0,0.0,0.0,0.0,0.0,0.0,0.0,0.0,0.0,0.0,0.0,0.0,0.0,0.0,0.0,0.0,0.0,0.0,0.0,0.0,0.0,0.0,0.0,0.0,0.0,0.0,0.0,0.0,0.0,0.0,0.0,0.0,0.0,0.0,0.0,0.0,0.0,0.0,0.0,0.0,0.0,0.0,0.0,0.0,0.0,0.0,0.0,0.0,0.0,0.0,0.0,0.0,0.0,0.0,0.0,0.0,0.0,0.0,0.0,0.0,0.0,0.0,0.0,0.0,0.0,0.0,0.0,0.0,0.0,0.0,0.0,0.0,0.0,0.0,0.0,0.0,0.0,1.8577,1.868,1.8731,0.0,0.0,0.0,0.0,0.0,0.0,0.0,0.0,0.0,0.0,0.0,0.0,0.0,0.0,0.0,0.0,0.0,0.0,0.0,0.0,0.0,0.0,0.0,0.0,0.0,0.0,0.0,0.0,0.0,0.0,0.0,0.0,0.0,0.0,0.0,0.0,0.0,0.0,0.0,0.0,0.0,0.0,0.0,0.0,0.0,0.0,0.0,0.0,0.0,0.0,0.0,0.0,0.0,0.0,0.0,0.0,0.0,0.0,0.0,0.0,0.0,0.0,0.0,0.0,0.0,0.0,0.0,0.0,0.0,0.0,0.0,0.0,0.0,0.0,0.0,0.0,0.0,0.0,0.0,0.0,0.0,0.0,0.0,0.0,0.0,0.0,0.0,0.0,0.0,0.0,0.0,0.0,0.0,0.0,0.0,0.0,0.0,0.0,0.0,0.0,0.0,0.0,0.0,0.0,0.0,0.0,0.0,0.0,0.0,0.0,1.8579,1.8579,1.8942,0.0,1.9397,0.0,0.0,0.0,0.0,0.0,0.0,0.0,0.0,0.0,0.0,0.0,0.0,0.0,0.0,0.0,0.0,0.0,0.0,0.0,0.0,0.0,0.0,0.0,0.0,0.0,0.0,0.0,0.0,0.0,0.0,0.0,0.0,0.0,0.0,0.0,0.0,0.0,0.0,0.0,0.0,0.0,0.0,0.0,0.0,0.0,0.0,0.0,0.0,0.0,0.0,0.0,0.0,0.0,0.0,0.0,0.0,0.0,0.0,0.0,0.0,0.0,0.0,0.0,0.0,0.0,0.0,0.0,0.0,0.0,0.0,0.0,0.0,0.0,0.0,0.0,0.0,0.0,0.0,0.0,0.0,0.0,0.0,0.0,0.0,0.0,0.0,0.0,0.0,0.0,0.0,0.0,0.0,0.0,0.0,0.0,0.0,0.0,0.0,0.0,0.0,0.0,0.0,0.0,0.0,0.0,0.0,0.0,0.0,0.0,0.0,1.8082,1.8063,1.8341,1.8636,0.0,0.0,0.0,0.0,0.0,0.0,0.0,0.0,0.0,0.0,0.0,0.0,0.0,0.0,0.0,0.0,0.0,0.0,0.0,0.0,0.0,0.0,0.0,0.0,0.0,0.0,0.0,0.0,0.0,0.0,0.0,0.0,0.0,0.0,0.0,0.0,0.0,0.0,0.0,0.0,0.0,0.0,0.0,0.0,0.0,0.0,0.0,0.0,0.0,0.0,0.0,0.0,0.0,0.0,0.0,0.0,0.0,0.0,0.0,0.0,0.0,0.0,0.0,0.0,0.0,0.0,0.0,0.0,0.0,0.0,0.0,0.0,0.0,0.0,0.0,0.0,0.0,0.0,0.0,0.0,0.0,0.0,0.0,0.0,0.0,0.0,0.0,0.0,0.0,0.0,0.0,0.0,0.0,0.0,0.0,0.0,0.0,0.0,0.0,0.0,0.0,0.0,0.0,0.0,0.0,0.0,0.0,0.0,0.0,0.0,1.7538,1.7748,1.7881,1.8032,1.8298,1.8694,0.0,0.0,0.0,0.0,0.0,0.0,0.0,0.0,0.0,0.0,0.0,0.0,0.0,0.0,0.0,0.0,0.0,0.0,0.0,0.0,0.0,0.0,0.0,0.0,0.0,0.0,0.0,0.0,0.0,0.0,0.0,0.0,0.0,0.0,0.0,0.0,0.0,0.0,0.0,0.0,0.0,0.0,0.0,0.0,0.0,0.0,0.0,0.0,0.0,0.0,0.0,0.0,0.0,0.0,0.0,0.0,0.0,0.0,0.0,0.0,0.0,0.0,0.0,0.0,0.0,0.0,0.0,0.0,0.0,0.0,0.0,0.0,0.0,0.0,0.0,0.0,0.0,0.0,0.0,0.0,0.0,0.0,0.0,0.0,0.0,0.0,0.0,0.0,0.0,0.0,0.0,0.0,0.0,0.0,0.0,0.0,0.0,0.0,0.0,0.0,0.0,0.0,0.0,0.0,0.0,0.0,0.0,0.0,1.7395,1.76,1.7903,1.8324,1.8381,1.8598,0.0,0.0,0.0,0.0,0.0,0.0,0.0,0.0,0.0,0.0,0.0,0.0,0.0,0.0,0.0,0.0,0.0,0.0,0.0,0.0,0.0,0.0,0.0,0.0,0.0,0.0,0.0,0.0,0.0,0.0,0.0,0.0,0.0,0.0,0.0,0.0,0.0,0.0,0.0,0.0,0.0,0.0,0.0,0.0,0.0,0.0,0.0,0.0,0.0,0.0,0.0,0.0,0.0,0.0,0.0,0.0,0.0,0.0,0.0,0.0,0.0,0.0,0.0,0.0,0.0,0.0,0.0,0.0,0.0,0.0,0.0,0.0,0.0,0.0,0.0,0.0,0.0,0.0,0.0,0.0,0.0,0.0,0.0,0.0,0.0,0.0,0.0,0.0,0.0,0.0,0.0,0.0,0.0,0.0,0.0,0.0,0.0,0.0,0.0,0.0,0.0,0.0,0.0,0.0,0.0,0.0,0.0,0.0,0.0,1.7383,1.7465,1.7587,1.7745,1.789,1.8092,0.0,0.0,0.0,0.0,0.0,0.0,0.0,0.0,0.0,0.0,0.0,0.0,0.0,0.0,0.0,0.0,0.0,0.0,0.0,0.0,0.0,0.0,0.0,0.0,0.0,0.0,0.0,0.0,0.0,0.0,0.0,0.0,0.0,0.0,0.0,0.0,0.0,0.0,0.0,0.0,0.0,0.0,0.0,0.0,0.0,0.0,0.0,0.0,0.0,0.0,0.0,0.0,0.0,0.0,0.0,0.0,0.0,0.0,0.0,0.0,0.0,0.0,0.0,0.0,0.0,0.0,0.0,0.0,0.0,0.0,0.0,0.0,0.0,0.0,0.0,0.0,0.0,0.0,0.0,0.0,0.0,0.0,0.0,0.0,0.0,0.0,0.0,0.0,0.0,0.0,0.0,0.0,0.0,0.0,0.0,0.0,0.0,0.0,0.0,0.0,0.0,0.0,0.0,0.0,0.0,0.0,0.0,0.0,0.0,1.7159,0.0,1.72,1.7302,1.7424,1.7607,0.0,0.0,0.0,0.0,0.0,0.0,0.0,0.0,0.0,0.0,0.0,0.0,0.0,0.0,0.0,0.0,0.0,0.0,0.0,0.0,0.0,0.0,0.0,0.0,0.0,0.0,0.0,0.0,0.0,0.0,0.0,0.0,0.0,0.0,0.0,0.0,0.0,0.0,0.0,0.0,0.0,0.0,0.0,0.0,0.0,0.0,0.0,0.0,0.0,0.0,0.0,0.0,0.0,0.0,0.0,0.0,0.0,0.0,0.0,0.0,0.0,0.0,0.0,0.0,0.0,0.0,0.0,0.0,0.0,0.0,0.0,0.0,0.0,0.0,0.0,0.0,0.0,0.0,0.0,0.0,0.0,0.0,0.0,0.0,0.0,0.0,0.0,0.0,0.0,0.0,0.0,0.0,0.0,0.0,0.0,0.0,0.0,0.0,0.0,0.0,0.0,0.0,0.0,0.0,0.0,0.0,0.0,0.0,1.6741,1.6726,1.6726,1.6881,1.7078,1.7135,1.7217,0.0,0.0,0.0,0.0,0.0,0.0,0.0,0.0,0.0,0.0,0.0,0.0,0.0,0.0,0.0,0.0,0.0,0.0,0.0,0.0,0.0,0.0,0.0,0.0,0.0,0.0,0.0,0.0,0.0,0.0,0.0,0.0,0.0,0.0,0.0,0.0,0.0,0.0,0.0,0.0,0.0,0.0,0.0,0.0,0.0,0.0,0.0,0.0,0.0,0.0,0.0,0.0,0.0,0.0,0.0,0.0,0.0,0.0,0.0,0.0,0.0,0.0,0.0,0.0,0.0,0.0,0.0,0.0,0.0,0.0,0.0,0.0,0.0,0.0,0.0,0.0,0.0,0.0,0.0,0.0,0.0,0.0,0.0,0.0,0.0,0.0,0.0,0.0,0.0,0.0,0.0,0.0,0.0,0.0,0.0,0.0,0.0,0.0,0.0,0.0,0.0,0.0,0.0,0.0,0.0,0.0,0.0,0.0,0.0,1.7127,1.7355,1.7392,1.7253,1.7388,1.7379,0.0,0.0,0.0,0.0,0.0,0.0,0.0,0.0,0.0,0.0,0.0,0.0,0.0,0.0,0.0,0.0,0.0,0.0,0.0,0.0,0.0,0.0,0.0,0.0,0.0,0.0,0.0,0.0,0.0,0.0,0.0,0.0,0.0,0.0,0.0,0.0,0.0,0.0,0.0,0.0,0.0,0.0,0.0,0.0,0.0,0.0,0.0,0.0,0.0,0.0,0.0,0.0,0.0,0.0,0.0,0.0,0.0,0.0,0.0,0.0,0.0,0.0,0.0,0.0,0.0,0.0,0.0,0.0,0.0,0.0,0.0,0.0,0.0,0.0,0.0,0.0,0.0,0.0,0.0,0.0,0.0,0.0,0.0,0.0,0.0,0.0,0.0,0.0,0.0,0.0,0.0,0.0,0.0,0.0,0.0,0.0,0.0,0.0,0.0,0.0,0.0,0.0,0.0,0.0,0.0,0.0,0.0,0.0,0.0,1.7445,1.7666,1.7689,1.7482,1.7595,1.7519,1.7201,0.0,0.0,0.0,0.0,0.0,0.0,0.0,0.0,0.0,0.0,0.0,0.0,0.0,0.0,0.0,0.0,0.0,0.0,0.0,0.0,0.0,0.0,0.0,0.0,0.0,0.0,0.0,0.0,0.0,0.0,0.0,0.0,0.0,0.0,0.0,0.0,0.0,0.0,0.0,0.0,0.0,0.0,0.0,0.0,0.0,0.0,0.0,0.0,0.0,0.0,0.0,0.0,0.0,0.0,0.0,0.0,0.0,0.0,0.0,0.0,0.0,0.0,0.0,0.0,0.0,0.0,0.0,0.0,0.0,0.0,0.0,0.0,0.0,0.0,0.0,0.0,0.0,0.0,0.0,0.0,0.0,0.0,0.0,0.0,0.0,0.0,0.0,0.0,0.0,0.0,0.0,0.0,0.0,0.0,0.0,0.0,0.0,0.0,0.0,0.0,0.0,0.0,0.0,0.0,0.0,0.0,0.0,0.0,1.7591,1.7714,1.7761,1.7795,1.7795,1.7636,0.0,0.0,0.0,0.0,0.0,0.0,0.0,0.0,0.0,0.0,0.0,0.0,0.0,0.0,0.0,0.0,0.0,0.0,0.0,0.0,0.0,0.0,0.0,0.0,0.0,0.0,0.0,0.0,0.0,0.0,0.0,0.0,0.0,0.0,0.0,0.0,0.0,0.0,0.0,0.0,0.0,0.0,0.0,0.0,0.0,0.0,0.0,0.0,0.0,0.0,0.0,0.0,0.0,0.0,0.0,0.0,0.0,0.0,0.0,0.0,0.0,0.0,0.0,0.0,0.0,0.0,0.0,0.0,0.0,0.0,0.0,0.0,0.0,0.0,0.0,0.0,0.0,0.0,0.0,0.0,0.0,0.0,0.0,0.0,0.0,0.0,0.0,0.0,0.0,0.0,0.0,0.0,0.0,0.0,0.0,0.0,0.0,0.0,0.0,0.0,0.0,0.0,0.0,0.0,0.0,0.0,0.0,0.0,0.0,1.7394,1.7421,1.7485,1.764,1.7803,1.7714,0.0,0.0,0.0,0.0,0.0,0.0,0.0,0.0,0.0,0.0,0.0,0.0,0.0,0.0,0.0,0.0,0.0,0.0,0.0,0.0,0.0,0.0,0.0,0.0,0.0,0.0,0.0,0.0,0.0,0.0,0.0,0.0,0.0,0.0,0.0,0.0,0.0,0.0,0.0,0.0,0.0,0.0,0.0,0.0,0.0,0.0,0.0,0.0,0.0,0.0,0.0,0.0,0.0,0.0,0.0,0.0,0.0,0.0,0.0,0.0,0.0,0.0,0.0,0.0,0.0,0.0,0.0,0.0,0.0,0.0,0.0,0.0,0.0,0.0,0.0,0.0,0.0,0.0,0.0,0.0,0.0,0.0,0.0,0.0,0.0,0.0,0.0,0.0,0.0,0.0,0.0,0.0,0.0,0.0,0.0,0.0,0.0,0.0,0.0,0.0,0.0,0.0,0.0,0.0,0.0,0.0,0.0,0.0,1.6669,1.6669,1.6669,1.6725,1.684,1.7476,1.7712,0.0,0.0,0.0,0.0,0.0,0.0,0.0,0.0,0.0,0.0,0.0,0.0,0.0,0.0,0.0,0.0,0.0,0.0,0.0,0.0,0.0,0.0,0.0,0.0,0.0,0.0,0.0,0.0,0.0,0.0,0.0,0.0,0.0,0.0,0.0,0.0,0.0,0.0,0.0,0.0,0.0,0.0,0.0,0.0,0.0,0.0,0.0,0.0,0.0,0.0,0.0,0.0,0.0,0.0,0.0,0.0,0.0,0.0,0.0,0.0,0.0,0.0,0.0,0.0,0.0,0.0,0.0,0.0,0.0,0.0,0.0,0.0,0.0,0.0,0.0,0.0,0.0,0.0,0.0,0.0,0.0,0.0,0.0,0.0,0.0,0.0,0.0,0.0,0.0,0.0,0.0,0.0,0.0,0.0,0.0,0.0,0.0,0.0,0.0,0.0,0.0,0.0,0.0,0.0,0.0,0.0,0.0,0.0,1.5713,1.5737,1.5737,1.5713,1.5761,1.6941,1.7579,0.0,0.0,0.0,0.0,0.0,0.0,0.0,0.0,0.0,0.0,0.0,0.0,0.0,0.0,0.0,0.0,0.0,0.0,0.0,0.0,0.0,0.0,0.0,0.0,0.0,0.0,0.0,0.0,0.0,0.0,0.0,0.0,0.0,0.0,0.0,0.0,0.0,0.0,0.0,0.0,0.0,0.0,0.0,0.0,0.0,0.0,0.0,0.0,0.0,0.0,0.0,0.0,0.0,0.0,0.0,0.0,0.0,0.0,0.0,0.0,0.0,0.0,0.0,0.0,0.0,0.0,0.0,0.0,0.0,0.0,0.0,0.0,0.0,0.0,0.0,0.0,0.0,0.0,0.0,0.0,0.0,0.0,0.0,0.0,0.0,0.0,0.0,0.0,0.0,0.0,0.0,0.0,0.0,0.0,0.0,0.0,0.0,0.0,0.0,0.0,0.0,0.0,0.0,0.0,0.0,0.0,0.0,0.0,1.525,1.525,1.525,1.525,1.525,1.6282,1.6922,0.0,0.0,0.0,0.0,0.0,0.0,0.0,0.0,0.0,0.0,0.0,0.0,0.0,0.0,0.0,0.0,0.0,0.0,0.0,0.0,0.0,0.0,0.0,0.0,0.0,0.0,0.0,0.0,0.0,0.0,0.0,0.0,0.0,0.0,0.0,0.0,0.0,0.0,0.0,0.0,0.0,0.0,0.0,0.0,0.0,0.0,0.0,0.0,2.3797,0.0,0.0,0.0,0.0,0.0,0.0,0.0,0.0,0.0,0.0,0.0,0.0,0.0,0.0,0.0,0.0,0.0,0.0,0.0,0.0,0.0,0.0,0.0,0.0,0.0,0.0,0.0,0.0,0.0,0.0,0.0,0.0,0.0,0.0,0.0,0.0,0.0,0.0,0.0,0.0,0.0,0.0,0.0,0.0,0.0,0.0,0.0,0.0,0.0,0.0,0.0,0.0,0.0,0.0,0.0,0.0,0.0,0.0,0.0,1.458,1.4712,1.4736,1.4712,1.4736,1.5356,1.6055,0.0,0.0,0.0,0.0,0.0,0.0,0.0,0.0,0.0,0.0,0.0,0.0,0.0,0.0,0.0,0.0,0.0,0.0,0.0,0.0,0.0,0.0,0.0,0.0,0.0,0.0,0.0,0.0,0.0,0.0,0.0,0.0,0.0,0.0,0.0,0.0,0.0,0.0,0.0,0.0,0.0,0.0,0.0,0.0,0.0,0.0,0.0,0.0,0.0,0.0,0.0,0.0,0.0,0.0,0.0,0.0,0.0,0.0,0.0,0.0,0.0,0.0,0.0,0.0,0.0,0.0,0.0,0.0,0.0,0.0,0.0,0.0,0.0,0.0,0.0,0.0,0.0,0.0,0.0,0.0,0.0,0.0,0.0,0.0,0.0,0.0,0.0,0.0,0.0,0.0,0.0,0.0,0.0,0.0,0.0,0.0,0.0,0.0,0.0,0.0,0.0,0.0,0.0,0.0,0.0,0.0,0.0,1.4022,1.4063,1.4232,1.4268,1.4328,1.4328,1.4544,1.5237,1.6329,0.0,0.0,0.0,0.0,0.0,0.0,0.0,0.0,0.0,0.0,0.0,0.0,0.0,0.0,0.0,0.0,0.0,0.0,0.0,0.0,0.0,0.0,0.0,0.0,0.0,0.0,0.0,0.0,0.0,0.0,0.0,0.0,0.0,0.0,0.0,0.0,0.0,0.0,1.9814,2.0314,0.0,0.0,0.0,0.0,0.0,0.0,0.0,0.0,2.286,0.0,0.0,0.0,0.0,0.0,0.0,0.0,0.0,0.0,0.0,0.0,0.0,0.0,0.0,0.0,0.0,0.0,0.0,0.0,0.0,0.0,0.0,0.0,0.0,0.0,0.0,0.0,0.0,0.0,0.0,0.0,0.0,0.0,0.0,0.0,0.0,0.0,0.0,0.0,0.0,0.0,0.0,0.0,0.0,0.0,0.0,0.0,0.0,0.0,0.0,0.0,0.0,0.0,0.0,0.0,0.0,1.3637,1.4025,1.4143,1.3991,1.4184,1.4328,1.4328,1.4568,1.4903,1.5345,0.0,0.0,0.0,0.0,0.0,0.0,0.0,0.0,0.0,0.0,0.0,0.0,0.0,0.0,0.0,0.0,0.0,0.0,0.0,0.0,0.0,0.0,0.0,0.0,0.0,0.0,0.0,0.0,0.0,0.0,0.0,0.0,0.0,0.0,0.0,0.0,0.0,0.0,0.0,2.0059,2.036,0.0,0.0,0.0,0.0,0.0,0.0,0.0,0.0,2.2596,0.0,0.0,0.0,0.0,0.0,0.0,0.0,0.0,0.0,0.0,0.0,0.0,0.0,0.0,0.0,0.0,0.0,0.0,0.0,0.0,0.0,0.0,0.0,0.0,0.0,0.0,0.0,0.0,0.0,0.0,0.0,0.0,0.0,0.0,0.0,0.0,0.0,0.0,0.0,0.0,0.0,0.0,0.0,0.0,0.0,0.0,0.0,0.0,0.0,0.0,0.0,0.0,0.0,0.0,0.0,1.3449,1.3729,1.3821,1.3701,1.3799,1.3871,1.3895,1.4146,1.4412,0.0,0.0,0.0,0.0,0.0,0.0,0.0,0.0,0.0,0.0,0.0,0.0,0.0,0.0,0.0,0.0,0.0,0.0,0.0,0.0,0.0,0.0,0.0,0.0,0.0,0.0,0.0,0.0,0.0,0.0,0.0,0.0,0.0,0.0,0.0,0.0,0.0,0.0,0.0,0.0,2.0075,2.0191,2.0191,0.0,0.0,0.0,0.0,0.0,0.0,2.1631,2.1939,0.0,0.0,0.0,0.0,0.0,0.0,0.0,0.0,0.0,0.0,0.0,0.0,0.0,0.0,0.0,0.0,0.0,0.0,0.0,0.0,0.0,0.0,0.0,0.0,0.0,0.0,0.0,0.0,0.0,0.0,0.0,0.0,0.0,0.0,0.0,0.0,0.0,0.0,0.0,0.0,0.0,0.0,0.0,0.0,0.0,0.0,0.0,0.0,0.0,0.0,0.0,0.0,0.0,0.0,0.0,1.338,1.3503,1.356,1.3583,1.362,1.3645,1.3645,1.3851,1.4065,0.0,0.0,0.0,0.0,0.0,0.0,0.0,0.0,0.0,0.0,0.0,0.0,0.0,0.0,0.0,0.0,0.0,0.0,0.0,0.0,0.0,0.0,0.0,0.0,0.0,0.0,0.0,0.0,0.0,0.0,0.0,0.0,0.0,0.0,0.0,0.0,0.0,0.0,0.0,0.0,0.0,2.0183,2.0183,2.0372,0.0,0.0,0.0,0.0,2.0973,2.1053,0.0,0.0,0.0,0.0,0.0,0.0,0.0,0.0,0.0,0.0,0.0,0.0,0.0,0.0,0.0,0.0,0.0,0.0,0.0,0.0,0.0,0.0,0.0,0.0,0.0,0.0,0.0,0.0,0.0,0.0,0.0,0.0,0.0,0.0,0.0,0.0,0.0,0.0,0.0,0.0,0.0,0.0,0.0,0.0,0.0,0.0,0.0,0.0,0.0,0.0,0.0,0.0,0.0,0.0,0.0,0.0,1.3388,1.3619,1.3787,1.3849,1.4019,1.4109,1.4109,1.4143,1.4179,0.0,0.0,0.0,0.0,0.0,0.0,0.0,0.0,0.0,0.0,0.0,0.0,0.0,0.0,0.0,0.0,0.0,0.0,0.0,0.0,0.0,0.0,0.0,0.0,0.0,0.0,0.0,0.0,0.0,0.0,0.0,0.0,0.0,0.0,0.0,0.0,0.0,0.0,0.0,0.0,0.0,2.0562,2.0538,2.0562,2.061,0.0,0.0,2.0208,2.0208,2.014,0.0,0.0,0.0,0.0,0.0,0.0,0.0,0.0,0.0,0.0,0.0,0.0,0.0,0.0,0.0,0.0,0.0,0.0,0.0,0.0,0.0,0.0,0.0,0.0,0.0,0.0,0.0,0.0,0.0,0.0,0.0,0.0,0.0,0.0,0.0,0.0,0.0,0.0,0.0,0.0,0.0,0.0,0.0,0.0,0.0,0.0,0.0,0.0,0.0,0.0,0.0,0.0,0.0,0.0,0.0,1.2881,1.2912,1.3193,1.3289,1.3172,1.3418,1.351,1.351,1.382,1.3975,0.0,0.0,0.0,0.0,0.0,0.0,0.0,0.0,0.0,0.0,0.0,0.0,0.0,0.0,0.0,0.0,0.0,0.0,0.0,0.0,0.0,0.0,0.0,0.0,0.0,0.0,0.0,0.0,0.0,0.0,0.0,0.0,0.0,0.0,0.0,0.0,0.0,0.0,0.0,0.0,0.0,0.0,2.0483,2.063,0.0,0.0,0.0,2.0445,2.0445,0.0,0.0,0.0,0.0,0.0,0.0,0.0,0.0,0.0,0.0,0.0,0.0,0.0,0.0,0.0,0.0,0.0,0.0,0.0,0.0,0.0,0.0,0.0,0.0,0.0,0.0,0.0,0.0,0.0,0.0,0.0,0.0,0.0,0.0,0.0,0.0,0.0,0.0,0.0,0.0,0.0,0.0,0.0,0.0,0.0,0.0,0.0,0.0,0.0,0.0,0.0,0.0,0.0,0.0,0.0,0.0,0.0,1.2593,1.2849,1.2902,1.2794,1.2992,1.307,1.308,1.3456,0.0,0.0,0.0,0.0,0.0,0.0,0.0,0.0,0.0,0.0,0.0,0.0,0.0,0.0,0.0,0.0,0.0,0.0,0.0,0.0,0.0,0.0,0.0,0.0,0.0,0.0,0.0,1.4822,0.0,0.0,0.0,0.0,0.0,0.0,0.0,0.0,0.0,0.0,0.0,0.0,0.0,0.0,2.0527,2.0527,2.0703,2.0829,0.0,0.0,2.063,2.063,2.0279,2.0164,0.0,0.0,0.0,0.0,0.0,0.0,0.0,0.0,0.0,0.0,0.0,0.0,0.0,0.0,0.0,0.0,0.0,0.0,0.0,0.0,0.0,0.0,0.0,0.0,0.0,0.0,0.0,0.0,0.0,0.0,0.0,0.0,0.0,0.0,0.0,0.0,0.0,0.0,0.0,0.0,0.0,0.0,0.0,0.0,0.0,0.0,0.0,0.0,0.0,0.0,0.0,0.0,0.0,0.0,1.2572,1.2888,1.2888,1.3014,1.3237,1.3264,1.3275,1.3264,1.3312,1.3322,0.0,0.0,0.0,0.0,0.0,0.0,0.0,0.0,0.0,0.0,0.0,0.0,0.0,0.0,0.0,0.0,0.0,0.0,0.0,0.0,0.0,0.0,0.0,0.0,0.0,0.0,0.0,0.0,0.0,0.0,0.0,0.0,0.0,0.0,0.0,0.0,0.0,0.0,0.0,0.0,0.0,2.0893,2.0867,2.0893,2.0877,0.0,2.0616,2.0427,2.0427,2.014,2.0029,2.038,0.0,0.0,0.0,0.0,0.0,0.0,0.0,0.0,0.0,0.0,0.0,0.0,0.0,0.0,0.0,0.0,0.0,0.0,0.0,0.0,0.0,0.0,0.0,0.0,0.0,0.0,0.0,0.0,0.0,0.0,0.0,0.0,0.0,0.0,0.0,0.0,0.0,0.0,0.0,0.0,0.0,0.0,0.0,0.0,0.0,0.0,0.0,0.0,0.0,0.0,0.0,0.0,0.0,1.2699,1.2838,1.2676,1.2636,1.2772,1.2962,1.3044,1.3044,1.3207,1.3298,0.0,0.0,0.0,0.0,0.0,0.0,0.0,0.0,0.0,0.0,0.0,0.0,0.0,0.0,0.0,0.0,0.0,0.0,0.0,0.0,0.0,0.0,0.0,0.0,0.0,0.0,0.0,0.0,1.536,1.5386,1.5584,0.0,0.0,0.0,0.0,0.0,0.0,0.0,0.0,0.0,0.0,2.0719,2.0873,2.0899,0.0,0.0,2.0623,2.04,2.04,2.0298,2.025,2.0369,2.0575,0.0,0.0,0.0,0.0,0.0,0.0,0.0,0.0,0.0,0.0,0.0,0.0,0.0,0.0,0.0,0.0,0.0,0.0,0.0,0.0,0.0,0.0,0.0,0.0,0.0,0.0,0.0,0.0,0.0,0.0,0.0,0.0,0.0,0.0,0.0,0.0,0.0,0.0,0.0,0.0,0.0,0.0,0.0,0.0,0.0,0.0,0.0,0.0,0.0,0.0,0.0,0.0,1.2852,1.2795,1.2616,1.2475,1.2382,1.2636,1.2745,1.2772,1.2935,1.3044,0.0,0.0,0.0,0.0,0.0,0.0,0.0,0.0,0.0,0.0,0.0,0.0,0.0,0.0,0.0,0.0,0.0,0.0,0.0,0.0,0.0,0.0,0.0,0.0,0.0,0.0,0.0,0.0,1.5631,1.5841,1.61,0.0,0.0,0.0,0.0,0.0,0.0,0.0,0.0,0.0,0.0,2.0591,2.0873,2.0899,2.0899,2.0899,2.0693,2.0559,2.0559,2.0559,2.0543,2.0543,0.0,0.0,0.0,0.0,0.0,0.0,0.0,0.0,0.0,0.0,0.0,0.0,0.0,0.0,0.0,0.0,0.0,0.0,0.0,0.0,0.0,0.0,0.0,0.0,0.0,0.0,0.0,0.7519,0.0,0.0,0.8049,0.0,0.0,0.0,0.0,0.0,0.0,0.0,0.0,0.0,0.0,0.0,0.0,0.0,0.0,0.0,0.0,0.0,0.0,0.0,0.0,0.0,0.0,1.2994,1.2804,1.2785,1.2654,1.2391,1.2409,1.2409,1.2409,1.2409,1.2409,1.2446,0.0,0.0,0.0,0.0,0.0,0.0,0.0,0.0,0.0,0.0,0.0,0.0,0.0,0.0,0.0,0.0,0.0,0.0,0.0,0.0,0.0,0.0,0.0,0.0,0.0,0.0,1.5345,1.5874,1.6294,0.0,0.0,0.0,0.0,0.0,0.0,0.0,0.0,0.0,1.9624,2.0153,2.0591,2.0864,2.0915,2.0931,2.0915,2.0899,2.0899,2.0899,2.0899,2.0883,0.0,0.0,0.0,0.0,0.0,0.0,0.0,0.0,0.0,0.0,0.0,0.0,0.0,0.0,0.0,0.0,0.0,0.0,0.0,0.0,0.0,0.0,0.0,0.0,0.0,0.0,0.0,0.7752,0.7782,0.0,0.0,0.0,0.0,0.0,0.0,0.0,0.0,0.0,0.0,0.0,1.035,1.0642,0.0,0.0,0.0,0.0,0.0,0.0,0.0,0.0,0.0,0.0,0.0,0.0,1.3212,1.2994,1.2861,1.2663,1.2391,1.2382,1.2382,1.2382,1.2382,1.2382,1.2382,0.0,0.0,0.0,0.0,0.0,0.0,0.0,0.0,0.0,0.0,0.0,0.0,0.0,0.0,0.0,0.0,0.0,0.0,0.0,0.0,0.0,0.0,0.0,0.0,0.0,1.4751,0.0,0.0,0.0,0.0,0.0,0.0,0.0,0.0,0.0,0.0,0.0,1.8713,1.9632,2.0062,2.0544,2.121,2.129,2.1369,0.0,0.0,0.0,0.0,0.0,0.0,0.0,0.0,0.0,0.0,0.0,0.0,0.0,0.0,2.1245,2.146,2.13,2.1165,2.1165,0.0,0.0,0.0,0.0,0.0,0.0,0.0,0.0,0.0,0.0,0.0,0.0,0.0,0.0,0.7903,0.7903,0.7903,0.0,0.0,0.0,0.0,0.0,0.0,0.0,0.0,0.9488,0.9518,0.964,0.9852,1.0035,1.0126,1.049,1.1005,0.0,0.0,0.0,0.0,0.0,0.0,0.0,0.0,1.342,1.3212,1.3079,1.288,1.2645,1.2635,1.2654,1.2626,1.256,1.2494,1.2382,1.2654,1.289,0.0,0.0,0.0,0.0,0.0,0.0,0.0,0.0,0.0,0.0,0.0,0.0,0.0,0.0,0.0,0.0,0.0,0.0,0.0,0.0,0.0,0.0,0.0,1.4932,0.0,0.0,0.0,0.0,0.0,0.0,0.0,0.0,0.0,1.739,1.7811,1.8422,1.9346,1.9703,2.0196,2.1066,0.0,0.0,0.0,0.0,0.0,0.0,0.0,2.1937,2.1825,2.1565,2.1349,2.1238,2.1153,2.1074,2.1048,0.0,0.0,2.119,2.1058,2.0899,2.0899,2.0994,2.1127,2.1349,2.1719,2.2129,0.0,0.0,0.0,0.0,0.7903,0.0,0.0,0.0,0.7908,0.7913,0.0,0.7924,0.0,0.0,0.0,0.0,0.8861,0.8885,0.0,0.0,0.8885,0.9037,0.9275,0.9305,0.9457,0.9792,1.0156,1.0482,1.0914,1.179,0.0,0.0,0.0,0.0,0.0,0.0,1.3599,1.3391,1.3381,1.3306,1.3098,1.3089,1.3089,1.3079,1.2899,1.271,1.2456,1.27,1.2899,1.3098,1.3306,0.0,0.0,0.0,0.0,0.0,0.0,0.0,0.0,0.0,0.0,0.0,0.0,0.0,0.0,0.0,0.0,0.0,0.0,0.0,0.0,1.4714,0.0,0.0,0.0,0.0,0.0,0.0,0.0,0.0,0.0,1.7389,1.7157,1.7375,1.7824,1.8698,0.0,0.0,0.0,0.0,2.1193,2.1503,2.18,2.2032,2.2032,2.2016,2.1905,2.1534,0.0,0.0,2.0962,2.1143,2.1365,2.1381,2.1349,2.127,2.0962,2.0915,2.0899,2.0899,2.1137,2.1391,2.1396,2.1671,2.2033,0.803,0.0,0.0,0.0,0.0,0.7903,0.7952,0.8033,0.8033,0.8083,0.8127,0.8133,0.0,0.0,0.0,0.0,0.0,0.0,0.8177,0.8208,0.8427,0.8586,0.8671,0.9092,0.9457,0.9822,1.0156,1.0732,1.1518,1.2164,1.2655,1.3023,0.0,0.0,0.0,0.0,1.374,1.341,1.3391,1.3316,1.3098,1.3098,1.3098,1.3098,1.3041,1.2984,1.2918,1.2947,1.3107,1.3287,1.3353,0.0,0.0,0.0,0.0,0.0,0.0,0.0,0.0,0.0,0.0,0.0,0.0,0.0,0.0,0.0,0.0,0.0,0.0,0.0,1.4186,1.4624,1.5019,0.0,0.0,0.0,0.0,0.0,0.0,0.0,0.0,0.0,1.7389,1.7667,1.81,0.0,0.0,1.9634,2.0543,2.0953,2.1348,2.1854,2.2218,0.0,2.2413,2.2387,2.2318,2.2196,2.1756,2.1285,2.0947,2.0978,2.1042,2.1042,2.1042,2.101,2.0931,2.0899,2.0899,2.0899,2.0994,2.1042,2.1074,2.1327,2.1592,0.8118,0.8013,0.8013,0.8019,0.8013,0.8013,0.8057,0.8154,0.8159,0.8171,0.8204,0.8204,0.8204,0.8204,0.8204,0.0,0.0,0.0,0.8013,0.8013,0.8237,0.8485,0.8765,0.9131,0.9502,0.991,1.037,1.0852,1.1398,1.2314,1.2838,1.3031,0.0,1.4251,1.4137,1.4052,1.3844,1.3523,1.3504,1.3447,1.3344,1.3344,1.3306,1.3221,1.3221,1.3183,1.3098,1.3098,1.3193,1.3381,1.3391,1.3485,0.0,0.0,0.0,0.0,0.0,0.0,0.0,0.0,0.0,0.0,0.0,1.3693,1.3693,0.0,0.0,0.0,1.3799,1.4055,1.4241,1.4653,0.0,0.0,0.0,0.0,0.0,0.0,0.0,1.6755,1.7109,1.7373,1.7479,1.7667,1.7989,1.8486,1.869,1.9127,2.004,0.0,2.106,2.166,2.2116,2.2353,2.2214,2.2264,2.2237,2.2089,2.1597,2.1169,2.0947,2.0899,2.0899,2.0915,2.101,2.1105,2.1105,2.1216,2.1227,2.0962,2.0899,2.0899,2.0899,2.1074,2.1216,0.8231,0.8231,0.8231,0.822,0.8204,0.8204,0.821,0.8215,0.822,0.822,0.8231,0.8231,0.8231,0.8231,0.822,0.0,0.8215,0.821,0.8199,0.8204,0.8236,0.8614,0.9283,0.9309,0.9595,1.0128,1.0719,1.101,1.1088,1.2387,1.3097,1.3137,1.3929,1.4317,1.4279,1.4099,1.3901,1.3693,1.3684,1.3684,1.3693,1.3693,1.3608,1.3447,1.3438,1.3382,1.3202,1.3202,1.3287,1.3447,1.3496,1.3551,1.3721,0.0,0.0,0.0,0.0,0.0,0.0,0.0,0.0,0.0,0.0,0.0,0.0,0.0,0.0,0.0,1.3992,0.0,1.4142,1.4669,0.0,0.0,0.0,1.5572,1.5601,1.5909,1.6194,1.6449,0.0,0.0,1.742,1.7479,1.7608,1.7914,1.7972,1.8294,1.9156,1.9822,2.0414,2.1031,2.1603,2.1852,2.1653,2.181,2.1865,2.1528,2.1159,2.1016,2.1026,2.1036,2.102,2.1052,2.1248,2.1444,2.147,2.1719,2.1777,2.1147,2.101,2.102,2.1026,2.1058,2.1099,0.8503,0.8503,0.8503,0.8399,0.8204,0.8204,0.8253,0.834,0.8372,0.8421,0.8503,0.8503,0.8503,0.8497,0.8416,0.834,0.8334,0.8248,0.8204,0.8236,0.846,0.8837,0.9283,0.9506,1.0091,1.0949,1.1169,1.1744,1.2705,1.3207,1.3716,1.4202,1.4439,1.437,1.409,1.4003,1.3901,1.3693,1.3693,1.3693,1.3693,1.3693,1.375,1.3863,1.3863,1.391,1.4014,1.4014,1.4043,1.409,1.409,1.4118,1.4166,1.4166,0.0,0.0,0.0,0.0,0.0,0.0,0.0,0.0,0.0,1.3414,1.3654,0.0,1.3693,0.0,1.3783,1.3813,1.3813,1.4172,0.0,0.0,1.5037,1.5324,1.5572,1.5909,1.6116,1.6205,1.6667,1.702,1.7109,1.7344,1.755,1.7608,1.7843,1.8236,1.891,1.9287,1.9751,2.0399,2.0816,2.1102,2.1271,2.1513,2.1652,2.1506,2.1404,2.1437,2.1692,2.173,2.173,2.1746,2.1793,2.1857,2.1873,2.1937,2.1937,2.1777,2.173,2.1746,2.173,2.173,2.173,0.8623,0.8623,0.8623,0.8513,0.8394,0.8361,0.8432,0.8492,0.8492,0.853,0.8623,0.8623,0.8623,0.8617,0.8524,0.8492,0.8486,0.8421,0.8388,0.8394,0.8714,0.9169,0.9695,1.0013,1.0658,1.1652,1.1812,1.2314,1.3115,1.3504,1.3884,1.4265,1.4392,1.4342,1.4116,1.4031,1.391,1.3693,1.3788,1.3835,1.3835,1.392,1.4024,1.4106,1.4147,1.4163,1.4307,1.4317,1.4317,1.4317,1.4317,1.4317,1.4317,1.4317,1.4151,0.0,0.0,0.0,0.0,0.0,0.0,0.0,0.0,0.0,0.0,0.0,1.3693,1.3693,1.3693,1.3693,1.3693,1.3992,1.4291,1.456,1.4878,1.5235,1.5572,1.575,1.5928,1.6087,1.6412,1.6696,1.6961,1.7138,1.7344,1.7479,1.7667,1.796,1.8428,1.8719,1.9113,1.9764,2.0126,2.0415,2.0715,2.0888,2.0993,2.1112,2.1337,2.158,2.1742,2.1904,2.2011,2.2011,2.2112,2.2223,2.2223,2.2366,2.2461,2.2434,2.2461,2.2334,2.2075,2.2011,2.2011,0.8623,0.8623,0.8623,0.8623,0.8623,0.8623,0.8623,0.8623,0.8623,0.8623,0.8623,0.8623,0.8623,0.8623,0.8623,0.8623,0.8623,0.8656,0.8651,0.869,0.905,0.9616,1.0293,1.0651,1.1308,1.2184,1.2532,1.2836,1.3089,1.3627,1.3911,1.3942,1.4207,1.4355,1.4345,1.4125,1.3958,1.3769,1.3958,1.4052,1.4021,1.4191,1.4326,1.4345,1.4323,1.4364,1.4392,1.4352,1.4361,1.4392,1.4361,1.4361,1.4392,1.4392,1.4226,0.0,1.3595,0.0,0.0,0.0,0.0,0.0,0.0,0.0,0.0,1.3693,1.3693,1.3693,1.3693,1.3693,1.3693,1.3963,1.4262,1.456,1.4858,1.5175,1.5542,1.5601,1.572,1.5998,1.6057,1.6294,1.6785,1.6944,1.7109,1.7361,1.7491,1.7625,1.7901,1.8194,1.8603,1.9185,1.9548,1.997,2.0146,2.0255,2.0426,2.0671,2.1222,2.1569,2.167,2.1954,2.2143,2.2175,2.2398,2.2545,2.2561,2.2799,2.299,2.2958,2.2958,2.2784,2.2334,2.2175,2.2112,0.8623,0.8623,0.8623,0.8623,0.8623,0.8623,0.8623,0.8623,0.8623,0.8623,0.8623,0.8623,0.8623,0.8623,0.8623,0.8623,0.8623,0.8884,0.9017,0.9017,0.9688,1.022,1.0618,1.128,1.196,1.2652,1.307,1.3544,1.4127,1.4224,1.4419,1.4679,1.4593,1.454,1.4531,0.0,0.0,0.0,1.4232,1.4251,1.422,1.4288,1.4392,1.4531,1.454,0.0,1.4776,1.4785,1.4785,1.4785,1.4785,0.0,0.0,0.0,0.0,0.0,0.0,0.0,0.0,0.0,0.0,0.0,1.3293,1.3354,1.3654,1.3693,1.3693,1.3693,1.3693,1.3693,1.3693,1.3753,1.4022,1.453,1.465,1.4918,1.5512,1.5601,1.5631,1.569,1.5928,1.6146,1.6264,1.6667,1.702,1.7109,1.7332,1.7508,1.7608,1.7872,1.8282,1.8881,1.9432,1.9795,1.9884,2.0316,2.0685,2.107,2.1579,2.2043,2.2308,2.2588,2.2799,2.2784,2.2863,2.2911,2.2911,2.2974,2.3022,2.3022,2.3022,2.2946,2.2847,2.2815,2.2815,0.8623,0.8623,0.8623,0.8623,0.0,0.8623,0.8623,0.8623,0.8623,0.8623,0.8623,0.8623,0.8623,0.8623,0.8623,0.869,0.8884,0.9217,0.9483,0.9688,1.0585,1.1188,1.1512,1.2239,1.2923,1.3588,1.3809,1.4146,1.4637,1.467,1.4735,1.4898,1.4795,1.4748,1.4748,1.4644,1.4484,1.4317,1.4411,1.4436,1.4446,1.4531,1.4644,1.4738,1.4748,0.0,0.0,0.0,0.0,0.0,0.0,0.0,0.0,1.4757,0.0,1.4373,1.4203,1.3975,1.3707,1.3519,1.3429,1.3493,1.3474,1.3504,1.3693,1.3693,1.3693,1.3693,1.3693,1.3693,1.3693,1.3693,1.3863,1.4351,1.4411,1.459,1.5037,1.5275,1.5353,1.5383,1.5661,1.5898,1.6087,1.646,1.6814,1.6991,1.7285,1.7491,1.7508,1.7638,1.8018,1.8794,1.9403,1.9837,2.004,2.04,2.0745,2.0988,2.1603,2.2116,2.2315,2.2711,2.3022,2.3022,2.3022,2.3022,2.3022,2.3022,2.3022,2.3022,2.3022,2.3022,2.3022,2.3022,2.3022,0.8649,0.8655,0.8655,0.8649,0.8649,0.8655,0.8649,0.8649,0.8606,0.0,0.0,0.8639,0.8617,0.8622,0.8711,0.8951,0.932,0.9749,1.0191,1.0598,1.1633,1.2265,1.2631,1.3352,1.398,1.4508,1.4574,1.4748,1.5012,1.5012,1.5012,1.5012,1.5012,1.5012,1.5044,1.5012,1.4823,1.4474,1.4578,1.4653,1.4663,1.4814,1.4898,1.4898,1.4898,1.4898,1.4898,1.4898,1.4898,1.4898,1.4898,1.4823,1.4672,1.4653,1.4559,1.4352,1.4113,1.3928,1.3854,1.3698,1.3557,1.3521,1.3637,1.3693,1.3693,1.3693,1.3693,1.3693,1.3693,1.3693,1.3693,1.3693,1.3843,1.4142,1.4172,1.4291,1.457,1.4959,1.5189,1.5208,1.551,1.582,1.6111,1.6399,1.6674,1.7013,1.7345,1.7594,1.7612,1.7711,1.8006,1.8765,1.9403,1.9924,2.0241,2.0587,2.0773,2.0874,2.1588,2.2173,2.2258,2.2655,2.2965,2.3022,2.3022,2.3022,2.3022,2.3022,2.3038,2.3057,2.3089,2.3105,2.3197,2.3213,2.3181,0.8865,0.8865,0.8865,0.8865,0.8865,0.8865,0.8865,0.8849,0.8682,0.8623,0.8595,0.8732,0.8781,0.8787,0.9194,0.959,0.9997,1.0685,1.1337,1.2023,1.2817,1.3397,1.3798,1.4444,1.4817,1.4919,1.5257,1.547,1.5504,1.5504,1.5504,1.5504,1.5504,1.5504,1.5504,1.5504,1.5347,1.5068,1.4927,1.4861,1.4861,1.4889,1.4898,1.4898,1.4898,1.4898,1.4898,1.4898,1.4898,1.4898,1.4898,1.488,1.4861,1.4851,1.4766,1.4578,1.4527,1.4345,1.3988,1.3932,1.3838,1.3699,1.3703,1.3693,1.3693,1.3693,1.3693,1.3693,1.3703,1.3693,1.3693,1.3703,1.3862,1.4161,1.4182,1.4301,1.456,1.5073,1.5429,1.5429,1.5882,1.6194,1.6264,1.6541,1.6836,1.7207,1.7474,1.7838,1.8088,1.8215,1.8453,1.8852,1.9403,1.9895,2.0398,2.0802,2.1132,2.1117,2.1962,2.2562,2.2578,2.2846,2.3073,2.3038,2.3085,2.307,2.307,2.3022,2.3181,2.3375,2.3438,2.3546,2.3798,2.3861,2.3718,0.8914,0.8914,0.8914,0.8914,0.8914,0.8914,0.8914,0.8874,0.88,0.8785,0.8757,0.8811,0.8867,0.8907,0.9308,0.9816,1.0404,1.1372,1.22,1.2956,1.3848,1.4361,1.4591,1.5078,1.5316,1.5351,1.5487,1.5598,1.5598,1.5598,1.5598,1.5598,1.5598,1.5598,1.5598,1.5598,1.5551,1.5413,1.5205,1.5012,1.4908,1.4898,1.4898,1.4898,1.4898,1.4898,1.4898,1.4898,1.4898,1.4898,1.4898,1.4851,1.4748,1.4738,1.4644,1.4446,1.4427,1.4374,1.4185,1.4175,1.4137,1.4033,1.4024,1.4024,1.4024,1.3929,1.3863,1.3873,1.3958,1.4024,1.4024,1.4024,1.4095,1.4248,1.4239,1.4309,1.4472,1.5023,1.5402,1.5443,1.5928,1.6312,1.6312,1.6591,1.6828,1.7044,1.7457,1.798,1.8514,1.8761,1.9052,1.9529,2.0153,2.0745,2.1216,2.1686,2.1979,2.2008,2.265,2.3086,2.3173,2.336,2.3533,2.3607,2.3578,2.3607,2.3591,2.3607,2.3657,2.3737,2.3816,2.3925,2.4052,2.4114,2.3986,0.8995,0.8995,0.8995,0.8995,0.8995,0.8995,0.8995,0.8995,0.896,0.8995,0.8995,0.8968,0.8992,0.9131,0.9544,1.0185,1.1016,1.2025,1.297,1.3801,1.4733,1.5172,1.5275,1.5594,1.5731,1.574,1.5731,1.5731,1.5731,1.574,1.5731,1.574,1.5731,1.5731,1.574,1.5731,1.5712,1.5655,1.546,1.5238,1.5082,1.504,1.5021,1.4974,1.4974,1.4946,1.4908,1.4898,1.4898,1.4898,1.4898,1.4832,1.4682,1.4672,1.4578,1.4411,1.4352,1.4355,1.4317,1.4317,1.4317,1.4317,1.4317,1.4307,1.4307,1.4222,1.4097,1.4109,1.4213,1.4298,1.4288,1.4298,1.4317,1.4317,1.4317,1.432,1.437,1.4878,1.5252,1.5315,1.5825,1.6265,1.638,1.6588,1.686,1.7142,1.7587,1.8208,1.8859,1.926,1.9722,2.037,2.0929,2.1391,2.2079,2.2498,2.2706,2.2796,2.3285,2.3608,2.3726,2.3935,2.4068,2.405,2.4066,2.405,2.4082,2.4082,2.4084,2.4164,2.4195,2.4227,2.4354,2.4386,2.4243,0.9269,0.9269,0.9264,0.9269,0.9264,0.9264,0.9264,0.9264,0.9269,0.9269,0.9247,0.913,0.9294,0.9659,1.0185,1.1009,1.2044,1.2843,1.3804,1.477,1.5345,1.5734,1.6032,1.6112,1.6122,1.6148,1.6138,1.6093,1.6129,1.6138,1.6148,1.6122,1.6167,1.6148,1.6112,1.6112,1.6062,1.5873,1.5845,1.574,1.5551,1.5532,1.5413,1.5172,1.5172,1.5087,1.4936,1.4898,1.4908,1.4898,1.4908,1.4898,1.488,1.487,1.4785,1.4587,1.4568,1.4493,1.4345,1.4317,1.4326,1.4317,1.4336,1.4336,1.4345,1.4477,1.4455,1.4355,1.4276,1.4345,1.4317,1.4336,1.4355,1.4374,1.4355,1.4317,1.4386,1.4794,1.5133,1.5123,1.5687,1.614,1.6389,1.6508,1.6883,1.7629,1.8044,1.8617,1.9315,1.977,2.0351,2.1101,2.1371,2.155,2.2168,2.2707,2.3065,2.3154,2.3627,2.4016,2.4136,2.412,2.4129,2.4291,2.4193,2.4225,2.4193,2.4129,2.4273,2.4498,2.4593,2.4657,2.4897,2.4944,2.4738,0.9302,0.9302,0.9302,0.9302,0.9302,0.9302,0.9302,0.9338,0.9554,0.9663,0.9693,1.0078,1.009,0.9881,1.0754,1.1527,1.2287,1.3432,1.4368,1.5008,1.5647,1.6037,1.6188,1.6223,1.6223,1.6223,1.6223,1.6223,1.6223,1.6223,1.6223,1.6223,1.6223,1.6223,1.6223,1.6223,1.6167,1.6091,1.6081,1.6043,1.5949,1.5721,1.5551,1.5441,1.5422,1.5394,1.5319,1.53,1.53,1.53,1.5177,1.5078,1.5078,1.4964,1.4861,1.4785,1.4776,1.4738,1.4653,1.4644,1.4644,1.4676,1.4644,1.4644,1.4644,1.4729,1.4738,1.4672,1.4644,1.4644,1.4644,1.4676,1.4653,1.4653,1.4644,1.4676,1.4653,1.5042,1.5326,1.5368,1.5719,1.6039,1.6201,1.6364,1.6818,1.7561,1.8013,1.8623,1.9444,2.003,2.0792,2.1636,2.1959,2.2324,2.2864,2.3368,2.3703,2.3992,2.4372,2.4704,2.4642,2.4674,2.4704,2.4658,2.4627,2.4627,2.4706,2.4674,2.4738,2.4881,2.4897,2.4944,2.5057,2.5072,2.4944,0.9302,0.9338,0.9416,0.9518,0.9627,0.9627,0.9627,0.9663,1.0023,1.0203,1.0275,1.1096,1.1204,1.0851,1.157,1.2173,1.2789,1.4039,1.483,1.5221,1.5904,1.6223,1.6223,1.6223,1.6223,1.6223,1.6223,1.6223,1.6223,1.6223,1.6223,1.6223,1.6223,1.6223,1.6223,1.6223,1.6223,1.6223,1.6223,1.6223,1.6176,1.5886,1.574,1.5684,1.5674,1.5655,1.5598,1.5598,1.5598,1.5589,1.5404,1.5294,1.5319,1.5177,1.5111,1.5101,1.5101,1.5068,1.5068,1.5101,1.5101,1.5068,1.5101,1.5101,1.5068,1.5068,1.5068,1.5101,1.5068,1.504,1.4908,1.4898,1.4898,1.4898,1.4898,1.4898,1.4889,1.5169,1.5323,1.5365,1.5476,1.5811,1.6006,1.6299,1.6796,1.7529,1.798,1.8579,1.9647,2.0412,2.1109,2.2167,2.2606,2.2935,2.3479,2.3807,2.4208,2.4548,2.4841,2.504,2.5072,2.5103,2.5103,2.4897,2.5025,2.5057,2.4976,2.504,2.5071,2.5072,2.5103,2.5087,2.5072,2.5072,2.5072,0.9302,0.9374,0.9699,1.0131,1.0455,1.0455,1.0455,1.0527,1.0815,1.0953,1.1175,1.2216,1.2681,1.2646,1.2789,1.3146,1.386,1.4608,1.5177,1.5567,1.6001,1.6223,1.6223,1.6223,1.6223,1.6223,1.6223,1.6223,1.6223,1.6223,1.6223,1.6223,1.6223,1.6223,1.6223,1.6223,1.6223,1.6223,1.6223,1.6223,1.6223,1.6195,1.6072,1.5901,1.5882,1.5807,1.5646,1.5608,1.5608,1.5608,1.5589,1.5579,1.5579,1.556,1.5541,1.5541,1.5551,1.5551,1.5541,1.5532,1.5532,1.5551,1.5513,1.5551,1.5504,1.5504,1.5504,1.5551,1.5513,1.5347,1.5012,1.4983,1.4955,1.4955,1.4927,1.4936,1.4927,1.5007,1.4941,1.4983,1.5006,1.5332,1.5909,1.6309,1.685,1.7626,1.8238,1.8924,1.9998,2.0729,2.1583,2.2512,2.3012,2.3199,2.3573,2.396,2.427,2.461,2.4919,2.5072,2.5072,2.5072,2.5072,2.5072,2.5072,2.5072,2.5072,2.5072,2.5072,2.5072,2.5072,2.5072,2.5072,2.5072,2.5072,1.0197,1.0377,1.0563,1.0851,1.1175,1.1211,1.1348,1.1606,1.1994,1.2287,1.261,1.3476,1.3904,1.3904,1.4395,1.4466,1.4403,1.507,1.5461,1.5647,1.6001,1.6223,1.6223,1.6223,1.6223,1.6223,1.6223,1.6223,1.6223,1.6223,1.6223,1.6223,1.6223,1.6223,1.6223,1.6223,1.6223,1.6223,1.6223,1.6223,1.6223,1.6223,1.6176,1.611,1.61,1.6062,1.5996,1.5996,1.5996,1.5961,1.5863,1.5788,1.5778,1.5665,1.5598,1.5598,1.5598,1.5598,1.5598,1.5598,1.5598,1.5598,1.5598,1.5608,1.5598,1.5598,1.5598,1.5598,1.5598,1.5504,1.5428,1.5337,1.5362,1.5337,1.5362,1.5352,1.5337,1.5328,1.5281,1.5115,1.4993,1.5137,1.5623,1.5984,1.6396,1.698,1.7723,1.8635,1.9532,2.0443,2.1565,2.2512,2.3137,2.3604,2.4162,2.4332,2.4518,2.4795,2.5042,2.5072,2.5072,2.5072,2.5072,2.5072,2.5072,2.5072,2.5072,2.5072,2.5072,2.5072,2.5072,2.5072,2.5072,2.5072,2.5072,1.0959,1.1384,1.1534,1.1821,1.2144,1.2287,1.2502,1.2789,1.3182,1.3476,1.3833,1.451,1.4866,1.4937,1.5505,1.5541,1.5115,1.5576,1.5789,1.5824,1.6072,1.6223,1.6223,1.6223,1.6223,1.6223,1.6223,1.6223,1.6223,1.6223,1.6223,1.6223,1.6223,1.6223,1.6223,1.6223,1.6223,1.6223,1.6223,1.6223,1.6223,1.6223,1.6223,1.6223,1.6223,1.6223,1.6223,1.6223,1.6223,1.6204,1.6072,1.5996,1.5987,1.5873,1.5797,1.5797,1.5797,1.5797,1.5797,1.5797,1.5797,1.5797,1.5797,1.5797,1.5797,1.5797,1.5797,1.5797,1.5797,1.5797,1.5797,1.5797,1.574,1.5636,1.5598,1.5598,1.5598,1.5589,1.5523,1.5356,1.5243,1.539,1.5767,1.6031,1.6503,1.6953,1.7827,1.8652,1.9487,2.0573,2.1696,2.2603,2.337,2.3914,2.4394,2.461,2.4749,2.4996,2.5042,2.5072,2.5072,2.5072,2.5072,2.5072,2.5072,2.5072,2.5072,2.5072,2.5072,2.5072,2.5072,2.5072,2.5072,2.5072,2.5072,1.1498,1.2252,1.2646,1.2968,1.3325,1.3654,1.386,1.3967,1.4296,1.4474,1.4652,1.5257,1.5576,1.5673,1.5966,1.6153,1.6072,1.6117,1.6143,1.6143,1.6188,1.6223,1.6223,1.6223,1.6223,1.6223,1.6223,1.6223,1.6223,1.6223,1.6223,1.6223,1.6223,1.6223,1.6223,1.6223,1.6223,1.6223,1.6223,1.6223,1.6223,1.6223,1.6223,1.6223,1.6223,1.6223,1.6223,1.6223,1.6223,1.6223,1.6169,1.6214,1.6195,1.6141,1.6195,1.6167,1.6185,1.616,1.6195,1.6167,1.6112,1.6148,1.6185,1.6157,1.6138,1.6148,1.6157,1.6148,1.6122,1.6141,1.6131,1.6122,1.6024,1.5693,1.5674,1.5674,1.5646,1.5617,1.5598,1.5589,1.5551,1.5876,1.635,1.6527,1.6877,1.776,1.8596,1.9357,2.0095,2.1149,2.2171,2.2984,2.372,2.4375,2.4657,2.4888,2.5012,2.5104,2.5088,2.5072,2.5072,2.5072,2.5072,2.5072,2.5072,2.5072,2.5072,2.5072,2.5072,2.5072,2.5072,2.5072,2.5072,2.5072,2.5072,1.2681,1.3361,1.3503,1.394,1.4439,1.4617,1.4795,1.5079,1.5212,1.5399,1.5683,1.5895,1.6037,1.6037,1.6143,1.6223,1.6223,1.6223,1.6223,1.6223,1.6223,1.6223,1.6223,1.6223,1.6223,1.6223,1.6223,1.6223,1.6223,1.6223,1.6223,1.6223,1.6223,1.6223,1.6223,1.6223,1.6223,1.6223,1.6223,1.6223,1.6223,1.6223,1.6223,1.6223,1.6223,1.6223,1.6223,1.6223,1.6223,1.6223,1.6223,1.6223,1.6223,1.6223,1.6223,1.6223,1.6223,1.6223,1.6223,1.6223,1.6223,1.6223,1.6223,1.6223,1.6223,1.6223,1.6223,1.6223,1.6223,1.6223,1.6223,1.6223,1.6148,1.6034,1.6024,1.6006,1.5968,1.5882,1.5807,1.5778,1.5684,1.5836,1.62,1.6448,1.7021,1.7867,1.8597,1.9344,2.0323,2.1385,2.2353,2.32,2.4035,2.4806,2.5092,2.5297,2.5406,2.5342,2.5246,2.5088,2.5072,2.5072,2.5072,2.5072,2.5072,2.5072,2.5072,2.5072,2.5072,2.5072,2.5072,2.5072,2.5072,2.5072,2.5072,1.3534,1.4165,1.4286,1.4652,1.5186,1.5221,1.5434,1.5753,1.5673,1.5824,1.6143,1.6188,1.6223,1.6223,1.6223,1.6223,1.6223,1.6223,1.6223,1.6223,1.6223,1.6223,1.6223,1.6223,1.6223,1.6223,1.6223,1.6223,1.6223,1.6223,1.6223,1.6223,1.6223,1.6223,1.6223,1.6223,1.6223,1.6223,1.6223,1.6223,1.6223,1.6223,1.6223,1.6223,1.6223,1.6223,1.6223,1.6223,1.6223,1.6223,1.6223,1.6223,1.6223,1.6223,1.6223,1.6223,1.6223,1.6223,1.6223,1.6223,1.6223,1.6223,1.6223,1.6223,1.6223,1.6223,1.6223,1.6223,1.6223,1.6223,1.6223,1.6223,1.6223,1.6223,1.6169,1.6223,1.6195,1.61,1.6024,1.5987,1.592,1.6077,1.6471,1.6712,1.7262,1.8084,1.8846,1.9591,2.0621,2.1673,2.264,2.3557,2.4401,2.5048,2.5527,2.5706,2.5818,2.5628,2.5405,2.523,2.5072,2.5072,2.5072,2.5072,2.5072,2.5072,2.5072,2.5072,2.5072,2.5072,2.5167,2.5103,2.5103,2.5072,2.5072,1.4071,1.47,1.4907,1.5176,1.5569,1.5569,1.5791,1.6093,1.5809,1.5898,1.6219,1.6282,1.6299,1.628,1.6292,1.6282,1.6271,1.6273,1.6282,1.6273,1.6264,1.6254,1.6197,1.6223,1.6223,1.6223,1.6223,1.6223,1.6223,1.6223,1.6223,1.6223,1.6223,1.6223,1.6223,1.6223,1.6223,1.6223,1.6223,1.6223,1.6223,1.6223,1.6223,1.6223,1.6223,1.6223,1.6223,1.6223,1.6223,1.6223,1.6223,1.6223,1.6223,1.6223,1.6223,1.6223,1.6223,1.6223,1.6223,1.6223,1.6223,1.6223,1.6223,1.6223,1.6223,1.6223,1.6223,1.6223,1.6223,1.6223,1.6223,1.6223,1.6223,1.6223,1.6223,1.6223,1.6223,1.6169,1.6185,1.6195,1.6214,1.6452,1.7072,1.7213,1.7809,1.8753,1.9577,2.0288,2.1272,2.2203,2.3165,2.4035,2.4859,2.543,2.5947,2.6101,2.6184,2.6057,2.5786,2.5548,2.5357,2.5342,2.5357,2.5326,2.5246,2.5214,2.5246,2.5342,2.5373,2.5405,2.5357,2.5199,2.5214,2.5342,2.5263,1.4469,1.4911,1.4979,1.5218,1.5584,1.5584,1.583,1.6159,1.6077,1.6204,1.6559,1.6642,1.6613,1.6642,1.6632,1.6642,1.6613,1.6623,1.6642,1.6642,1.6642,1.6443,1.6235,1.6188,1.6233,1.6233,1.6207,1.6223,1.6223,1.6223,1.6223,1.6223,1.6223,1.6223,1.6223,1.6223,1.6223,1.6223,1.6223,1.6223,1.6223,1.6223,1.6223,1.6223,1.6223,1.6223,1.6223,1.6223,1.6223,1.6223,1.6223,1.6223,1.6223,1.6223,1.6223,1.6223,1.6223,1.6223,1.6223,1.6223,1.6223,1.6223,1.6223,1.6223,1.6223,1.6223,1.6223,1.6223,1.6223,1.6223,1.6223,1.6223,1.6223,1.6223,1.6223,1.6223,1.6223,1.6223,1.6223,1.6223,1.6223,1.6567,1.7062,1.7379,1.7872,1.9052,1.9854,2.0572,2.1654,2.2617,2.3456,2.453,2.5368,2.5886,2.6337,2.648,2.6533,2.6502,2.6295,2.6041,2.5929,2.5882,2.5913,2.5945,2.5786,2.5707,2.5818,2.5945,2.5898,2.5754,2.5786,2.5723,2.5834,2.5929,2.5723,1.4778,1.5105,1.5029,1.5217,1.5558,1.5439,1.566,1.6103,1.6029,1.6287,1.6692,1.6802,1.6802,1.6802,1.6793,1.6802,1.6802,1.6802,1.6793,1.6793,1.6783,1.6651,1.649,1.6443,1.6396,1.6346,1.6311,1.6254,1.6197,1.6223,1.6223,1.6223,1.6223,1.6223,1.6223,1.6223,1.6223,1.6223,1.6223,1.6223,1.6223,1.6223,1.6223,1.6223,1.6223,1.6223,1.6223,1.6223,1.6223,1.6223,1.6223,1.6223,1.6223,1.6223,1.6223,1.6223,1.6223,1.6223,1.6223,1.6223,1.6223,1.6223,1.6223,1.6223,1.6223,1.6223,1.6223,1.6223,1.6223,1.6223,1.6223,1.6223,1.6223,1.6223,1.6223,1.6223,1.6223,1.6223,1.6223,1.6223,1.6259,1.6497,1.7203,1.7308,1.8072,1.9157,1.9866,2.0861,2.1975,2.2859,2.3747,2.4733,2.5558,2.6054,2.6491,2.6699,2.6818,2.6787,2.6741,2.6486,2.6327,2.6279,2.6232,2.6248,2.6184,2.62,2.6247,2.6247,2.6104,2.6041,2.6152,2.62,2.6232,2.6327,2.6136,1.493,1.5253,1.5085,1.5203,1.5443,1.5166,1.5423,1.599,1.5794,1.6091,1.6684,1.6767,1.6851,1.6868,1.6944,1.6887,1.6887,1.6934,1.6906,1.6925,1.6925,1.6887,1.6878,1.6755,1.666,1.6538,1.6519,1.6434,1.6358,1.6292,1.6309,1.6328,1.6273,1.6261,1.6271,1.6242,1.6223,1.6223,1.6223,1.6223,1.6223,1.6223,1.6223,1.6223,1.6223,1.6223,1.6223,1.6223,1.6223,1.6223,1.6223,1.6223,1.6223,1.6223,1.6223,1.6223,1.6223,1.6223,1.6223,1.6223,1.6223,1.6223,1.6223,1.6223,1.6223,1.6223,1.6223,1.6223,1.6223,1.6223,1.6223,1.6223,1.6223,1.6223,1.6223,1.6223,1.6223,1.6223,1.6223,1.6223,1.6223,1.6577,1.7026,1.7414,1.7826,1.9087,1.9831,2.0757,2.1863,2.2825,2.3782,2.48,2.5524,2.6164,2.655,2.6902,2.7004,2.7072,2.7057,2.6883,2.6613,2.6502,2.6407,2.6391,2.6566,2.6566,2.6486,2.6422,2.6359,2.6407,2.6566,2.6454,2.6359,2.6534,2.647,1.4988,1.5064,1.5023,1.5045,1.5121,1.5045,1.5265,1.5721,1.5645,1.6037,1.6632,1.6783,1.6972,1.7237,1.718,1.7294,1.7218,1.7218,1.7294,1.7294,1.7256,1.7256,1.7171,1.6991,1.6802,1.6736,1.6736,1.6698,1.666,1.6623,1.666,1.6632,1.6481,1.646,1.6405,1.6337,1.6223,1.6223,1.6233,1.6216,1.6242,1.6233,1.6233,1.6223,1.6223,1.6223,1.6223,1.6223,1.6223,1.6223,1.6223,1.6223,1.6223,1.6223,1.6223,1.6223,1.6223,1.6223,1.6223,1.6223,1.6223,1.6223,1.6223,1.6223,1.6223,1.6223,1.6223,1.6223,1.6223,1.6223,1.6223,1.6223,1.6223,1.6223,1.6223,1.6223,1.6223,1.6223,1.6223,1.6223,1.6223,1.6461,1.7168,1.7273,1.7907,1.8959,1.9785,2.0584,2.1622,2.2722,2.3713,2.4679,2.539,2.5962,2.6331,2.67,2.6934,2.7067,2.7134,2.7185,2.6899,2.6803,2.6772,2.6835,2.6994,2.693,2.6788,2.6884,2.6835,2.6899,2.6899,2.6819,2.6804,2.6851,2.6852,1.5006,1.5006,1.5006,1.5006,1.5006,1.5006,1.5237,1.5552,1.559,1.5927,1.6433,1.6501,1.6662,1.6854,1.6854,1.6921,1.7159,1.7312,1.7378,1.7378,1.7378,1.7378,1.7369,1.7218,1.702,1.6972,1.6944,1.6906,1.6831,1.6812,1.6783,1.6802,1.6689,1.6642,1.6632,1.6519,1.65,1.649,1.6471,1.6434,1.6339,1.632,1.629,1.6233,1.6223,1.6223,1.6223,1.6223,1.6223,1.6223,1.6223,1.6223,1.6223,1.6223,1.6223,1.6223,1.6223,1.6223,1.6223,1.6223,1.6223,1.6223,1.6223,1.6223,1.6223,1.6223,1.6223,1.6223,1.6223,1.6223,1.6223,1.6223,1.6223,1.6223,1.6223,1.6223,1.6223,1.6223,1.6223,1.6223,1.6223,1.6461,1.6815,1.7132,1.7696,1.8608,1.9401,2.0202,2.1311,2.2379,2.3372,2.4306,2.5119,2.5727,2.6063,2.6432,2.6767,2.6934,2.7067,2.7134,2.7089,2.7089,2.7153,2.7185,2.7153,2.7169,2.7057,2.72,2.72,2.7121,2.7089,2.7169,2.7169,2.7057,2.701,1.5006,1.5006,1.5006,1.5006,1.5006,1.5006,1.5198,1.5467,1.5505,1.5705,1.605,1.6089,1.6165,1.6242,1.628,1.6471,1.6806,1.7111,1.7273,1.7388,1.7388,1.7388,1.7369,1.7331,1.7256,1.7124,1.7152,1.7067,1.6972,1.6906,1.6945,1.6916,1.6859,1.6849,1.6849,1.6802,1.6745,1.6736,1.6727,1.6689,1.6556,1.6528,1.6453,1.6403,1.6339,1.6337,1.6282,1.6254,1.6226,1.6223,1.6223,1.6223,1.6223,1.6223,1.6223,1.6223,1.6223,1.6223,1.6223,1.6223,1.6223,1.6223,1.6223,1.6223,1.6223,1.6223,1.6223,1.6223,1.6223,1.6223,1.6223,1.6223,1.6223,1.6223,1.6223,1.6223,1.6223,1.6223,1.6223,1.6223,1.6223,1.6426,1.6744,1.7087,1.765,1.8247,1.9017,1.9878,2.1,2.2104,2.3167,2.4034,2.4883,2.5506,2.5828,2.6164,2.6499,2.6666,2.6867,2.7034,2.71,2.7167,2.7167,2.72,2.72,2.72,2.72,2.72,2.72,2.72,2.72,2.72,2.72,2.72,2.7169,1.5006,1.5006,1.5006,1.5006,1.5006,1.5006,1.5045,1.5083,1.5122,1.5352,1.5667,1.5705,1.5897,1.6089,1.6203,1.6395,1.6692,1.6921,1.7111,1.735,1.7388,1.7388,1.7388,1.7388,1.735,1.735,1.736,1.7312,1.7256,1.7284,1.7209,1.7265,1.7133,1.7057,1.701,1.6906,1.6868,1.6887,1.6878,1.6831,1.6774,1.6727,1.6708,1.6632,1.6623,1.6566,1.6462,1.6424,1.6394,1.6242,1.6223,1.6233,1.6226,1.6226,1.6216,1.6223,1.6223,1.6223,1.6223,1.6223,1.6223,1.6223,1.6223,1.6223,1.6223,1.6223,1.6223,1.6223,1.6223,1.6223,1.6223,1.6223,1.6223,1.6223,1.6223,1.6223,1.6223,1.6223,1.6223,1.6223,1.6259,1.6285,1.6603,1.6981,1.7474,1.8142,1.8947,1.9785,2.0757,2.1932,2.3133,2.3932,2.4679,2.5187,2.5607,2.5895,2.6197,2.6298,2.6499,2.68,2.69,2.7067,2.7134,2.7167,2.72,2.72,2.72,2.72,2.72,2.72,2.72,2.72,2.72,2.72,2.72,1.5006,1.5006,1.5006,1.5006,1.5006,1.5006,1.5006,1.5006,1.5006,1.5083,1.5237,1.5313,1.539,1.5544,1.5582,1.5888,1.6395,1.673,1.6997,1.7312,1.7388,1.7388,1.7388,1.7388,1.7388,1.7388,1.7388,1.7388,1.7388,1.7378,1.7388,1.7359,1.7275,1.7275,1.7256,1.7152,1.7114,1.7077,1.7114,1.7057,1.6953,1.6878,1.6812,1.6802,1.6812,1.6745,1.6689,1.6651,1.6613,1.6538,1.6509,1.65,1.649,1.6471,1.6405,1.6245,1.6233,1.6188,1.6188,1.6223,1.6223,1.6223,1.6223,1.6223,1.6223,1.6223,1.6223,1.6223,1.6223,1.6223,1.6223,1.6223,1.6223,1.6223,1.6223,1.6223,1.6223,1.6223,1.6223,1.6223,1.6223,1.6285,1.6426,1.6815,1.7273,1.8002,1.8843,1.9715,2.0596,2.1863,2.3167,2.4,2.4679,2.5018,2.5404,2.5626,2.5828,2.5928,2.6197,2.6465,2.6733,2.69,2.7067,2.72,2.72,2.72,2.72,2.72,2.72,2.72,2.72,2.72,2.72,2.72,2.72,1.5112,1.5074,1.512,1.5112,1.5112,1.512,1.5129,1.5112,1.5129,1.5137,1.5112,1.5129,1.5129,1.5112,1.5204,1.5457,1.6141,1.6536,1.6844,1.7197,1.735,1.7388,1.7388,1.7388,1.7388,1.7388,1.7388,1.7388,1.7388,1.7388,1.7388,1.7378,1.7388,1.7388,1.7359,1.7322,1.7388,1.7388,1.7378,1.7284,1.7133,1.702,1.6925,1.6925,1.6925,1.6925,1.6868,1.6859,1.6821,1.6783,1.6764,1.6783,1.6793,1.6802,1.6642,1.6367,1.6309,1.6245,1.6245,1.6223,1.6223,1.6223,1.6223,1.6223,1.6223,1.6223,1.6223,1.6223,1.6223,1.6223,1.6223,1.6223,1.6223,1.6223,1.6223,1.6223,1.6223,1.6223,1.6223,1.6223,1.6223,1.6259,1.6391,1.6815,1.7308,1.7826,1.8668,1.975,2.07,2.2001,2.3201,2.4102,2.4713,2.495,2.5202,2.5322,2.5457,2.5524,2.5828,2.6164,2.6465,2.6733,2.69,2.7067,2.72,2.72,2.72,2.72,2.72,2.72,2.72,2.72,2.72,2.72,2.72,1.5447,1.5447,1.5447,1.5455,1.5439,1.5431,1.5439,1.5431,1.5423,1.5455,1.5398,1.5431,1.5415,1.5382,1.526,1.5493,1.591,1.6297,1.662,1.7042,1.732,1.7416,1.7397,1.7388,1.7388,1.7388,1.7388,1.7388,1.7388,1.7388,1.7388,1.7388,1.7388,1.7388,1.7388,1.7388,1.7388,1.7388,1.7388,1.7369,1.7379,1.7331,1.7275,1.7275,1.7265,1.7227,1.7095,1.7067,1.701,1.6868,1.6831,1.6812,1.6802,1.6802,1.6793,1.6689,1.6575,1.6443,1.6434,1.6339,1.6235,1.6235,1.6216,1.6223,1.6223,1.6223,1.6223,1.6223,1.6223,1.6223,1.6223,1.6223,1.6223,1.6223,1.6223,1.6223,1.6223,1.6223,1.6223,1.6249,1.6249,1.6249,1.632,1.685,1.7379,1.7872,1.8528,1.9645,2.0861,2.2207,2.3441,2.4408,2.4781,2.5018,2.51,2.5221,2.5255,2.5255,2.5558,2.5895,2.6164,2.6432,2.67,2.6867,2.7034,2.7167,2.72,2.72,2.72,2.72,2.72,2.72,2.72,2.72,2.72,1.5659,1.552,1.5512,1.5512,1.5512,1.5512,1.5512,1.5512,1.5512,1.5512,1.5512,1.5512,1.5512,1.5464,1.5383,1.5596,1.6005,1.6359,1.6763,1.7089,1.7382,1.7567,1.7529,1.7444,1.7388,1.7397,1.7388,1.7388,1.7388,1.7388,1.7388,1.7388,1.7388,1.7388,1.7388,1.7388,1.7388,1.7388,1.7388,1.7388,1.7388,1.7388,1.7388,1.7388,1.7388,1.7322,1.7312,1.7246,1.7218,1.7161,1.7161,1.7161,1.7161,1.7124,1.7124,1.7142,1.6953,1.6793,1.6679,1.6575,1.6471,1.6377,1.6339,1.6311,1.6226,1.6233,1.6233,1.6223,1.6223,1.6223,1.6223,1.6223,1.6223,1.6223,1.6223,1.6223,1.6223,1.6223,1.6223,1.6285,1.6355,1.6391,1.6497,1.6956,1.7414,1.7801,1.8633,1.9785,2.1104,2.2516,2.3713,2.4849,2.5018,2.5066,2.51,2.5119,2.5153,2.5187,2.5423,2.5727,2.5828,2.6097,2.6398,2.6733,2.7,2.71,2.7167,2.72,2.72,2.72,2.72,2.72,2.72,2.72,2.72,1.5845,1.561,1.561,1.561,1.565,1.561,1.5658,1.561,1.5658,1.5618,1.561,1.5618,1.5618,1.5586,1.561,1.5737,1.6,1.6444,1.6854,1.7187,1.7507,1.7657,1.767,1.7586,1.7473,1.7463,1.7445,1.7388,1.7388,1.7388,1.7388,1.7388,1.7388,1.7388,1.7388,1.7388,1.7388,1.7388,1.7388,1.7388,1.7388,1.7388,1.7388,1.7388,1.7388,1.7388,1.7388,1.7378,1.7369,1.7359,1.7341,1.7322,1.7331,1.7322,1.7322,1.7303,1.7171,1.7114,1.6972,1.6849,1.6736,1.6623,1.6556,1.6509,1.6396,1.6311,1.6264,1.6282,1.6233,1.6233,1.6223,1.6223,1.6223,1.6223,1.6223,1.6223,1.6223,1.6223,1.6223,1.6285,1.6391,1.6593,1.677,1.7193,1.751,1.7756,1.8703,1.9959,2.1415,2.2928,2.3918,2.4984,2.51,2.51,2.51,2.51,2.51,2.5134,2.5356,2.5457,2.5558,2.5794,2.613,2.6499,2.68,2.6934,2.6967,2.7067,2.72,2.72,2.72,2.72,2.72,2.72,2.72,1.5991,1.5966,1.5958,1.595,1.595,1.5966,1.5958,1.5918,1.5942,1.5934,1.5918,1.595,1.5918,1.591,1.5821,1.5796,1.5869,1.6056,1.6487,1.6898,1.7241,1.7627,1.7759,1.7754,1.7661,1.7642,1.7567,1.7473,1.7407,1.7454,1.7416,1.7388,1.7397,1.7388,1.7388,1.7388,1.7388,1.7388,1.7388,1.7388,1.7388,1.7388,1.7388,1.7388,1.7388,1.7388,1.7388,1.7388,1.7388,1.7388,1.7388,1.7388,1.7388,1.7388,1.7388,1.7369,1.735,1.7275,1.7209,1.7048,1.6849,1.6793,1.6755,1.6717,1.6651,1.6538,1.6481,1.6453,1.6403,1.629,1.6226,1.6223,1.6271,1.6223,1.6223,1.6223,1.6223,1.6223,1.6223,1.6285,1.6452,1.677,1.7157,1.758,1.7826,1.8082,1.939,2.0688,2.207,2.3441,2.4156,2.4883,2.5018,2.51,2.51,2.51,2.51,2.51,2.5187,2.5221,2.5187,2.5524,2.5928,2.6063,2.6331,2.6532,2.6733,2.68,2.69,2.71,2.72,2.72,2.72,2.72,2.72,1.6007,1.6007,1.6007,1.6007,1.6007,1.6007,1.6007,1.6007,1.6007,1.6007,1.6007,1.6007,1.6007,1.5983,1.5958,1.5943,1.5975,1.6325,1.6559,1.688,1.728,1.7649,1.7805,1.7861,1.7888,1.7869,1.7793,1.7774,1.7774,1.7642,1.7576,1.7548,1.7463,1.7397,1.7388,1.7388,1.7388,1.7388,1.7388,1.7388,1.7388,1.7388,1.7388,1.7388,1.7388,1.7388,1.7388,1.7388,1.7388,1.7388,1.7388,1.7388,1.7388,1.7388,1.7388,1.7388,1.7388,1.7388,1.7388,1.7218,1.7142,1.6972,1.6887,1.6821,1.6849,1.6727,1.6689,1.6651,1.6594,1.649,1.6386,1.6367,1.6349,1.6271,1.6233,1.6242,1.6233,1.6242,1.6223,1.6249,1.6673,1.7087,1.7545,1.8002,1.8223,1.8503,1.9994,2.1402,2.2688,2.3747,2.4408,2.4849,2.5018,2.51,2.51,2.51,2.51,2.51,2.51,2.51,2.5119,2.539,2.5727,2.5794,2.591,2.6197,2.6365,2.6432,2.6599,2.69,2.7067,2.72,2.72,2.7167,2.7167,1.6007,1.6007,1.6007,1.6007,1.6007,1.6007,1.6007,1.6007,1.6007,1.6007,1.6007,1.6007,1.6007,1.6007,1.5999,1.5999,1.6073,1.6262,1.6517,1.6794,1.7083,1.7526,1.7736,1.7867,1.7936,1.8046,1.802,1.7982,1.7954,1.785,1.7803,1.7727,1.7586,1.7491,1.7388,1.7388,1.7388,1.7388,1.7388,1.7388,1.7388,1.7388,1.7388,1.7388,1.7388,1.7388,1.7388,1.7388,1.7388,1.7388,1.7388,1.7388,1.7388,1.7388,1.7388,1.7388,1.7388,1.7388,1.7388,1.7369,1.7312,1.7209,1.7114,1.7029,1.6945,1.6934,1.6897,1.6887,1.684,1.6745,1.6585,1.6575,1.6556,1.6481,1.6349,1.632,1.6318,1.6299,1.6252,1.6223,1.6744,1.7273,1.7756,1.8282,1.9017,1.9471,2.0723,2.1932,2.2928,2.3884,2.4544,2.4883,2.5052,2.51,2.51,2.51,2.51,2.51,2.51,2.51,2.5153,2.539,2.5457,2.5457,2.5626,2.5861,2.6029,2.613,2.6398,2.67,2.68,2.6833,2.6967,2.6967,2.71,1.6007,1.6007,1.6007,1.6007,1.6007,1.6007,1.6007,1.6007,1.6007,1.6007,1.6007,1.6007,1.6007,1.6007,1.6007,1.6007,1.6007,1.6048,1.6246,1.6599,1.6828,1.7238,1.7634,1.7841,1.8021,1.8255,1.8239,1.8123,1.8067,1.8029,1.801,1.7944,1.7793,1.7586,1.7407,1.7388,1.7388,1.7388,1.7388,1.7388,1.7388,1.7388,1.7388,1.7388,1.7388,1.7388,1.7388,1.7388,1.7388,1.7388,1.7388,1.7388,1.7388,1.7388,1.7388,1.7388,1.7388,1.7388,1.7388,1.7388,1.7359,1.7341,1.7246,1.7265,1.7284,1.7199,1.7105,1.7095,1.6991,1.6878,1.6812,1.6793,1.6774,1.6679,1.6538,1.6471,1.6443,1.6375,1.6328,1.6361,1.6844,1.7379,1.7907,1.8528,1.9611,2.0515,2.1587,2.2516,2.3338,2.4068,2.4747,2.4916,2.51,2.51,2.51,2.51,2.51,2.51,2.51,2.51,2.51,2.5187,2.5221,2.5187,2.5322,2.5592,2.5727,2.5828,2.5996,2.613,2.6231,2.6331,2.6532,2.67,2.6767,1.6007,1.6007,1.6007,1.6007,1.6007,1.6007,1.6007,1.6007,1.6007,1.6007,1.6007,1.6007,1.6007,1.6007,1.6007,1.6007,1.6007,1.6007,1.6172,1.6246,1.6534,1.7026,1.7483,1.7815,1.8095,1.8469,1.8475,1.8437,1.8484,1.8333,1.8258,1.8241,1.8021,1.7718,1.7482,1.7388,1.7388,1.7388,1.7388,1.7388,1.7388,1.7388,1.7388,1.7388,1.7388,1.7388,1.7388,1.7388,1.7388,1.7388,1.7388,1.7388,1.7388,1.7388,1.7388,1.7388,1.7388,1.7388,1.7388,1.7388,1.7388,1.7388,1.7388,1.7388,1.7369,1.7331,1.7284,1.7303,1.718,1.7114,1.7048,1.701,1.6963,1.6812,1.6698,1.6698,1.6651,1.6526,1.6468,1.6599,1.6952,1.7702,1.8293,1.8679,1.9611,2.0688,2.1622,2.2688,2.3577,2.434,2.4984,2.5018,2.51,2.51,2.51,2.51,2.51,2.51,2.51,2.51,2.51,2.51,2.5086,2.5119,2.5187,2.5288,2.539,2.5491,2.5423,2.5457,2.5727,2.5962,2.6197,2.6298,2.6298,1.6007,1.6007,1.6007,1.6007,1.6007,1.6007,1.6007,1.6007,1.6007,1.6007,1.6007,1.6007,1.6007,1.6007,1.6007,1.6007,1.6007,1.6007,1.6007,1.6048,1.6287,1.6698,1.715,1.76,1.7942,1.8387,1.8632,1.8705,1.8676,1.8563,1.8458,1.8364,1.822,1.7993,1.7718,1.7633,1.7586,1.7558,1.7558,1.7501,1.7416,1.7388,1.7388,1.7388,1.7388,1.7388,1.7388,1.7388,1.7388,1.7397,1.7388,1.7388,1.7388,1.7388,1.7388,1.7388,1.7388,1.7388,1.7388,1.7388,1.7388,1.7388,1.7388,1.7388,1.7388,1.7369,1.7369,1.7369,1.7388,1.7312,1.7237,1.7199,1.7142,1.6991,1.6934,1.6934,1.6859,1.6744,1.6667,1.6791,1.707,1.784,1.8525,1.9028,1.9552,2.0584,2.1622,2.2688,2.3679,2.4408,2.5018,2.51,2.51,2.51,2.51,2.51,2.51,2.51,2.51,2.51,2.51,2.51,2.51,2.51,2.5153,2.5153,2.5119,2.5119,2.5187,2.5255,2.5423,2.5659,2.5876,2.5944,2.5928,1.6007,1.6007,1.6007,1.6007,1.6007,1.6007,1.6007,1.6007,1.6007,1.6007,1.6007,1.6007,1.6007,1.6007,1.6007,1.6007,1.6007,1.6007,1.6007,1.6007,1.6089,1.641,1.678,1.7191,1.7641,1.8051,1.8378,1.8592,1.8673,1.8667,1.8572,1.8477,1.843,1.8239,1.8076,1.801,1.7906,1.7774,1.7699,1.7633,1.7567,1.7491,1.752,1.752,1.752,1.752,1.751,1.751,1.7473,1.7444,1.7416,1.7407,1.7397,1.7388,1.7388,1.7388,1.7388,1.7388,1.7388,1.7388,1.7388,1.7388,1.7388,1.7388,1.7388,1.7388,1.7388,1.7388,1.7388,1.7388,1.7359,1.735,1.7331,1.7227,1.7143,1.7142,1.7086,1.7009,1.6923,1.7038,1.722,1.7765,1.828,1.8814,1.9725,2.0388,2.138,2.2448,2.3441,2.4156,2.4747,2.51,2.51,2.51,2.51,2.51,2.51,2.51,2.51,2.51,2.51,2.51,2.51,2.51,2.51,2.51,2.51,2.51,2.51,2.5187,2.5255,2.5356,2.5573,2.5573,2.5626,1.6007,1.6007,1.6007,1.6007,1.6007,1.6007,1.6007,1.6007,1.6007,1.6007,1.6007,1.6007,1.6007,1.6007,1.6007,1.6007,1.6007,1.6007,1.6007,1.6007,1.6007,1.6328,1.6616,1.6903,1.7346,1.7796,1.8174,1.8378,1.8632,1.8714,1.8705,1.8638,1.8591,1.8503,1.8484,1.8484,1.8248,1.801,1.7935,1.785,1.7803,1.7774,1.7784,1.7774,1.7774,1.7765,1.7774,1.7784,1.7737,1.7624,1.7605,1.7558,1.7388,1.7388,1.7388,1.7388,1.7388,1.7388,1.7388,1.7388,1.7388,1.7388,1.7388,1.7388,1.7388,1.7388,1.7388,1.7388,1.7388,1.7388,1.7388,1.7388,1.7388,1.7331,1.7275,1.7294,1.7275,1.7339,1.7299,1.748,1.7673,1.8083,1.8567,1.9224,2.0039,2.046,2.1185,2.2323,2.3236,2.402,2.4597,2.4984,2.51,2.51,2.51,2.51,2.51,2.51,2.51,2.51,2.51,2.51,2.51,2.51,2.51,2.51,2.51,2.51,2.51,2.51,2.5153,2.5187,2.5221,2.5288,2.5322,1.6007,1.6007,1.6007,1.6007,1.6007,1.6007,1.6007,1.6007,1.6007,1.6007,1.6007,1.6007,1.6007,1.6007,1.6007,1.6007,1.6007,1.6007,1.6007,1.6007,1.6007,1.6163,1.6369,1.6657,1.6977,1.7428,1.7846,1.8174,1.8469,1.8673,1.8705,1.8705,1.8714,1.8714,1.8695,1.8657,1.8532,1.8352,1.822,1.8095,1.8048,1.8029,1.801,1.8029,1.8029,1.8029,1.8029,1.8029,1.7935,1.784,1.7812,1.7765,1.7614,1.7576,1.751,1.7501,1.7425,1.7397,1.7388,1.7388,1.7388,1.7388,1.7388,1.7388,1.7388,1.7388,1.7388,1.7388,1.7388,1.7388,1.7388,1.7388,1.7388,1.7378,1.7378,1.7378,1.7512,1.7672,1.7848,1.8038,1.8342,1.8764,1.9253,1.9908,2.0461,2.1026,2.1694,2.2635,2.3441,2.4122,2.4631,2.5018,2.5086,2.51,2.51,2.51,2.51,2.51,2.51,2.51,2.51,2.51,2.51,2.51,2.51,2.51,2.51,2.51,2.51,2.51,2.51,2.5119,2.5153,2.5153,2.5153,1.6007,1.6007,1.6007,1.6007,1.6007,1.6007,1.6007,1.6007,1.6007,1.6007,1.6007,1.6007,1.6007,1.6007,1.6007,1.6007,1.6007,1.6007,1.6007,1.6007,1.6007,1.6089,1.6205,1.6451,1.6698,1.6985,1.7355,1.7805,1.8133,1.8428,1.8714,1.8714,1.8714,1.8714,1.8714,1.8714,1.8657,1.8569,1.8477,1.8324,1.8201,1.8086,1.8057,1.8095,1.8104,1.8095,1.8086,1.8067,1.8048,1.8048,1.8029,1.802,1.7906,1.7822,1.7737,1.768,1.7595,1.751,1.7482,1.7463,1.7416,1.7407,1.7388,1.7388,1.7388,1.7388,1.7388,1.7388,1.7388,1.7388,1.7388,1.7388,1.7388,1.7388,1.7388,1.7388,1.7474,1.7843,1.8409,1.8693,1.934,1.9723,1.9997,2.0643,2.1485,2.1847,2.253,2.3415,2.3908,2.4482,2.4737,2.511,2.5086,2.51,2.51,2.51,2.51,2.51,2.51,2.51,2.51,2.51,2.51,2.51,2.51,2.51,2.51,2.51,2.51,2.51,2.51,2.51,2.51,2.51,2.5086,1.6007,1.6007,1.6007,1.6007,1.6007,1.6007,1.6007,1.6007,1.6007,1.6007,1.6007,1.6007,1.6007,1.6007,1.6007,1.6007,1.6007,1.6007,1.6007,1.6007,1.6007,1.6007,1.6007,1.6163,1.6369,1.6657,1.7018,1.7478,1.801,1.8428,1.8714,1.8714,1.8714,1.8714,1.8714,1.8714,1.8714,1.8664,1.8648,1.8582,1.8475,1.8503,1.8522,1.8513,1.8503,1.8475,1.8475,1.8494,1.8409,1.8364,1.8295,1.8201,1.801,1.7954,1.7935,1.7916,1.785,1.7737,1.7652,1.7605,1.7558,1.7444,1.7407,1.7388,1.7388,1.7388,1.7388,1.7388,1.7388,1.7388,1.7388,1.7388,1.7388,1.7388,1.7426,1.7426,1.7426,1.813,1.883,1.9553,2.0224,2.066,2.092,2.157,2.2342,2.3138,2.3922,2.4567,2.4791,2.5198,2.5056,2.5271,2.513,2.51,2.51,2.51,2.51,2.51,2.51,2.51,2.51,2.51,2.51,2.51,2.51,2.51,2.51,2.51,2.51,2.51,2.51,2.51,2.51,2.51,2.51,1.6284,1.6234,1.6145,1.6072,1.6015,1.6007,1.6007,1.6007,1.6007,1.6007,1.6007,1.6007,1.6007,1.6007,1.6007,1.6007,1.6007,1.6007,1.6007,1.6007,1.6007,1.6007,1.6007,1.6007,1.613,1.6369,1.6903,1.7437,1.7928,1.8419,1.8714,1.8673,1.8673,1.8714,1.8714,1.8714,1.8714,1.8714,1.8714,1.8714,1.8714,1.8714,1.8714,1.8714,1.8714,1.8714,1.8714,1.8714,1.8648,1.8572,1.8544,1.8475,1.8352,1.8248,1.8201,1.8154,1.8048,1.7963,1.7869,1.7803,1.7737,1.7595,1.752,1.7548,1.7388,1.7388,1.7388,1.7388,1.7388,1.7388,1.7388,1.7388,1.7388,1.7388,1.7464,1.754,1.7807,1.8367,1.9191,2.0048,2.0767,2.1417,2.1919,2.2903,2.3653,2.4201,2.505,2.5328,2.5631,2.572,2.5626,2.5476,2.5364,2.5159,2.51,2.51,2.51,2.51,2.51,2.51,2.51,2.51,2.51,2.51,2.51,2.51,2.51,2.51,2.51,2.51,2.51,2.51,2.51,2.51,2.51,1.6568,1.656,1.6405,1.6259,1.608,1.6047,1.6047,1.6039,1.6015,1.6007,1.6007,1.6007,1.6007,1.6007,1.6007,1.6007,1.6007,1.6007,1.6007,1.6007,1.6007,1.6007,1.6007,1.6007,1.6048,1.6336,1.6821,1.7232,1.7682,1.8174,1.851,1.8592,1.8673,1.8714,1.8714,1.8714,1.8714,1.8714,1.8714,1.8714,1.8714,1.8714,1.8714,1.8714,1.8714,1.8714,1.8714,1.8714,1.8714,1.8705,1.8676,1.8657,1.8579,1.8465,1.8468,1.8411,1.8295,1.8152,1.8057,1.8038,1.7916,1.7793,1.7785,1.769,1.7501,1.7435,1.7435,1.7397,1.7397,1.7388,1.7388,1.7388,1.7388,1.7388,1.7502,1.7693,1.8149,1.8605,1.9439,2.0372,2.1236,2.1948,2.298,2.4018,2.4759,2.5305,2.5683,2.5927,2.611,2.6087,2.6026,2.5842,2.5701,2.5481,2.5232,2.5144,2.5159,2.51,2.51,2.51,2.51,2.51,2.51,2.51,2.51,2.51,2.51,2.51,2.51,2.51,2.51,2.51,2.51,2.51,2.51,1.6584,1.6576,1.6544,1.6503,1.6454,1.6316,1.6259,1.6185,1.6072,1.6007,1.6023,1.6007,1.6007,1.6007,1.6007,1.6007,1.6007,1.6007,1.6007,1.6007,1.6007,1.6007,1.6007,1.6007,1.6007,1.6246,1.6575,1.6821,1.7273,1.7846,1.8174,1.8174,1.8592,1.8673,1.8714,1.8714,1.8714,1.8714,1.8714,1.8714,1.8714,1.8714,1.8714,1.8714,1.8714,1.8714,1.8714,1.8714,1.8714,1.8714,1.8714,1.8714,1.8695,1.8657,1.8629,1.8591,1.8484,1.8409,1.8343,1.8305,1.8182,1.7982,1.7925,1.785,1.7727,1.7642,1.7576,1.7435,1.7425,1.7407,1.7397,1.7388,1.7388,1.7388,1.7464,1.7883,1.8349,1.8719,1.9287,2.0447,2.1574,2.2508,2.3624,2.4623,2.5492,2.601,2.6373,2.6597,2.6589,2.6508,2.6398,2.6222,2.6018,2.5754,2.5471,2.5257,2.5232,2.5159,2.51,2.51,2.51,2.51,2.51,2.51,2.51,2.51,2.51,2.51,2.51,2.51,2.51,2.51,2.51,2.51,2.51]},{"header":{"parameterUnit":"m.s-1","parameterCategory":1,"la1":31.0,"la2":29.5877,"lo1":-88.7671,"lo2":-86.6584,"dy":0.0162,"dx":0.0185,"nx":115,"ny":88,"refTime":"2023-04-19T00:00:00:Z","depth":0,"parameterNumber":3,"parameterNumberName":"V-component_of_WINDS"},"data":[0.0,0.0,0.0,0.0,0.0,0.0,0.0,0.0,0.0,0.0,0.0,0.0,0.0,0.0,0.0,0.0,0.0,0.0,0.0,0.0,0.0,0.0,0.0,0.0,0.0,0.0,0.0,0.0,0.0,0.0,0.0,0.0,0.0,0.0,0.0,0.0,0.0,0.0,0.0,0.0,0.0,0.0,0.0,0.0,0.0,0.0,0.0,0.0,0.0,0.0,0.0,0.0,0.0,0.0,0.0,0.0,0.0,0.0,0.0,0.0,0.0,0.0,0.0,0.0,0.0,0.0,0.0,0.0,0.0,0.0,0.0,0.0,0.0,0.0,0.0,0.0,0.0,0.0,0.0,0.0,0.0,0.0,0.0,0.0,0.0,0.0,0.0,0.0,0.0,0.0,0.0,0.0,0.0,0.0,0.0,0.0,0.0,0.0,0.0,0.0,0.0,0.0,0.0,0.0,0.0,0.0,0.0,0.0,0.0,0.0,0.0,0.0,0.0,0.0,0.0,0.0,0.0,0.0,0.0,0.0,0.0,0.0,0.0,0.0,0.0,0.0,0.0,0.0,0.0,0.0,0.0,0.0,0.0,0.0,0.0,0.0,0.0,0.0,0.0,0.0,0.0,0.0,0.0,0.0,0.0,0.0,0.0,0.0,0.0,0.0,0.0,0.0,0.0,0.0,0.0,0.0,0.0,0.0,0.0,0.0,0.0,0.0,0.0,0.0,0.0,0.0,0.0,0.0,0.0,0.0,0.0,0.0,0.0,0.0,0.0,0.0,0.0,0.0,0.0,0.0,0.0,0.0,0.0,0.0,0.0,0.0,0.0,0.0,0.0,0.0,0.0,0.0,0.0,0.0,0.0,0.0,0.0,0.0,0.0,0.0,0.0,0.0,0.0,0.0,0.0,0.0,0.0,0.0,0.0,0.0,0.0,0.0,0.0,0.0,0.0,0.0,0.0,0.0,0.0,0.0,0.0,0.0,0.0,0.0,0.0,0.0,0.0,0.0,0.0,0.0,0.0,0.0,0.0,0.0,0.0,0.0,0.0,0.0,0.0,0.0,0.0,0.0,0.0,0.0,0.0,0.0,0.0,0.0,0.0,0.0,0.0,0.0,0.0,0.0,0.0,0.0,0.0,0.0,0.0,0.0,0.0,0.0,0.0,0.0,0.0,0.0,0.0,0.0,0.0,0.0,0.0,0.0,0.0,0.0,0.0,0.0,0.0,0.0,0.0,0.0,0.0,0.0,0.0,0.0,0.0,0.0,0.0,0.0,0.0,0.0,0.0,0.0,0.0,0.0,0.0,0.0,0.0,0.0,0.0,0.0,0.0,0.0,0.0,0.0,0.0,0.0,0.0,0.0,0.0,0.0,0.0,0.0,0.0,0.0,0.0,0.0,0.0,0.0,0.0,0.0,0.0,0.0,0.0,0.0,0.0,0.0,0.0,0.0,0.0,0.0,0.0,0.0,0.0,0.0,0.0,0.0,0.0,0.0,0.0,0.0,0.0,0.0,0.0,0.0,0.0,0.0,0.0,0.0,0.0,0.0,0.0,0.0,0.0,0.0,0.0,0.0,0.0,0.0,0.0,0.0,0.0,0.0,0.0,0.0,0.0,0.0,0.0,0.0,0.0,0.0,0.0,0.0,0.0,0.0,0.0,0.0,0.0,0.0,0.0,0.0,0.0,0.0,0.0,0.0,0.0,0.0,0.0,0.0,0.0,0.0,0.0,0.0,0.0,0.0,0.0,0.0,0.0,0.0,0.0,0.0,0.0,0.0,0.0,0.0,0.0,0.0,0.0,0.0,0.0,0.0,0.0,0.0,0.0,0.0,0.0,0.0,0.0,0.0,0.0,0.0,0.0,0.0,0.0,0.0,0.0,0.0,0.0,0.0,0.0,0.0,0.0,0.0,0.0,0.0,0.0,0.0,0.0,0.0,0.0,0.0,0.0,0.0,0.0,0.0,0.0,0.0,0.0,0.0,0.0,0.0,0.0,0.0,0.0,0.0,0.0,0.0,0.0,0.0,0.0,0.0,0.0,0.0,0.0,0.0,0.0,0.0,0.0,0.0,0.0,0.0,0.0,0.0,0.0,0.0,0.0,0.0,0.0,0.0,0.0,0.0,0.0,0.0,0.0,0.0,0.0,0.0,0.0,0.0,0.0,0.0,0.0,0.0,0.0,0.0,0.0,0.0,0.0,0.0,0.0,0.0,0.0,0.0,0.0,0.0,0.0,0.0,0.0,0.0,0.0,0.0,0.0,0.0,0.0,0.0,0.0,0.0,0.0,0.0,0.0,0.0,0.0,0.0,0.0,0.0,0.0,0.0,0.0,0.0,0.0,0.0,0.0,0.0,0.0,0.0,0.0,0.0,0.0,0.0,0.0,0.0,0.0,0.0,0.0,0.0,0.0,0.0,0.0,0.0,0.0,0.0,0.0,0.0,0.0,0.0,0.0,0.0,0.0,0.0,0.0,0.0,0.0,0.0,0.0,0.0,0.0,0.0,0.0,0.0,0.0,0.0,0.0,0.0,0.0,0.0,0.0,0.0,0.0,0.0,0.0,0.0,0.0,0.0,0.0,0.0,0.0,0.0,0.0,0.0,0.0,0.0,0.0,0.0,0.0,0.0,0.0,0.0,0.0,0.0,0.0,0.0,0.0,0.0,0.0,0.0,0.0,0.0,0.0,0.0,0.0,0.0,0.0,0.0,0.0,0.0,0.0,0.0,0.0,0.0,0.0,0.0,0.0,0.0,0.0,0.0,0.0,0.0,0.0,0.0,0.0,0.0,0.0,0.0,0.0,0.0,0.0,0.0,0.0,0.0,0.0,0.0,0.0,0.0,0.0,0.0,0.0,0.0,0.0,0.0,0.0,0.0,0.0,0.0,0.0,0.0,0.0,0.0,0.0,0.0,0.0,0.0,0.0,0.0,0.0,0.0,0.0,0.0,0.0,0.0,0.0,0.0,0.0,0.0,0.0,0.0,0.0,0.0,0.0,0.0,0.0,0.0,0.0,0.0,0.0,0.0,0.0,0.0,0.0,0.0,0.0,0.0,0.0,0.0,0.0,0.0,0.0,0.0,0.0,0.0,0.0,0.0,0.0,0.0,0.0,0.0,0.0,0.0,0.0,0.0,0.0,0.0,0.0,0.0,0.0,0.0,0.0,0.0,0.0,0.0,0.0,0.0,0.0,0.0,0.0,0.0,0.0,0.0,0.0,0.0,0.0,0.0,0.0,0.0,0.0,0.0,0.0,0.0,0.0,0.0,0.0,0.0,0.0,0.0,0.0,0.0,0.0,0.0,0.0,0.0,0.0,0.0,0.0,0.0,0.0,0.0,0.0,0.0,0.0,0.0,0.0,0.0,0.0,0.0,0.0,0.0,0.0,0.0,0.0,0.0,0.0,0.0,0.0,0.0,0.0,0.0,0.0,0.0,0.0,0.0,0.0,0.0,0.0,0.0,0.0,0.0,0.0,0.0,0.0,0.0,0.0,0.0,0.0,0.0,0.0,0.0,0.0,0.0,0.0,0.0,0.0,0.0,0.0,0.0,0.0,0.0,0.0,0.0,0.0,0.0,0.0,0.0,0.0,0.0,0.0,0.0,0.0,0.0,0.0,0.0,0.0,0.0,0.0,0.0,0.0,0.0,0.0,0.0,0.0,0.0,0.0,0.0,0.0,0.0,0.0,0.0,0.0,0.0,0.0,0.0,0.0,0.0,0.0,0.0,0.0,0.0,0.0,0.0,0.0,0.0,0.0,0.0,0.0,0.0,0.0,0.0,0.0,0.0,0.0,0.0,0.0,0.0,0.0,0.0,0.0,0.0,0.0,0.0,0.0,0.0,0.0,0.0,0.0,0.0,0.0,0.0,0.0,0.0,0.0,0.0,0.0,0.0,0.0,0.0,0.0,0.0,0.0,0.0,0.0,0.0,0.0,0.0,0.0,0.0,0.0,0.0,0.0,0.0,0.0,0.0,0.0,0.0,0.0,0.0,0.0,0.0,0.0,0.0,0.0,0.0,0.0,0.0,0.0,0.0,0.0,0.0,0.0,0.0,0.0,0.0,0.0,0.0,0.0,0.0,0.0,0.0,0.0,0.0,0.0,0.0,0.0,0.0,0.0,0.0,0.0,0.0,0.0,0.0,0.0,0.0,0.0,0.0,0.0,0.0,0.0,0.0,0.0,0.0,0.0,0.0,0.0,0.0,0.0,0.0,0.0,0.0,0.0,0.0,0.0,0.0,0.0,0.0,0.0,0.0,0.0,0.0,0.0,0.0,3.0489,0.0,0.0,0.0,0.0,0.0,0.0,0.0,0.0,0.0,0.0,0.0,0.0,0.0,0.0,0.0,0.0,0.0,0.0,0.0,0.0,0.0,0.0,0.0,0.0,0.0,0.0,0.0,0.0,0.0,0.0,0.0,0.0,0.0,0.0,0.0,0.0,0.0,0.0,0.0,0.0,0.0,0.0,0.0,0.0,0.0,0.0,0.0,0.0,0.0,0.0,0.0,0.0,0.0,0.0,0.0,0.0,0.0,0.0,0.0,0.0,0.0,0.0,0.0,0.0,0.0,0.0,0.0,0.0,0.0,0.0,0.0,0.0,0.0,0.0,0.0,0.0,0.0,0.0,0.0,0.0,0.0,0.0,0.0,0.0,0.0,0.0,0.0,0.0,0.0,0.0,0.0,0.0,0.0,0.0,0.0,0.0,0.0,0.0,0.0,0.0,0.0,0.0,0.0,0.0,0.0,0.0,0.0,0.0,0.0,0.0,3.0881,3.0871,3.079,3.0695,3.0729,0.0,0.0,0.0,0.0,0.0,0.0,0.0,0.0,0.0,0.0,0.0,0.0,0.0,0.0,0.0,0.0,0.0,0.0,0.0,0.0,0.0,0.0,0.0,0.0,0.0,0.0,0.0,0.0,0.0,0.0,0.0,0.0,0.0,0.0,0.0,0.0,0.0,0.0,0.0,0.0,0.0,0.0,0.0,0.0,0.0,0.0,0.0,0.0,0.0,0.0,0.0,0.0,0.0,0.0,0.0,0.0,0.0,0.0,0.0,0.0,0.0,0.0,0.0,0.0,0.0,0.0,0.0,0.0,0.0,0.0,0.0,0.0,0.0,0.0,0.0,0.0,0.0,0.0,0.0,0.0,0.0,0.0,0.0,0.0,0.0,0.0,0.0,0.0,0.0,0.0,0.0,0.0,0.0,0.0,0.0,0.0,0.0,0.0,0.0,0.0,0.0,0.0,0.0,0.0,0.0,0.0,0.0,0.0,0.0,0.0,0.0,0.0,3.1537,3.1476,3.1445,0.0,0.0,0.0,0.0,0.0,0.0,0.0,0.0,0.0,0.0,0.0,0.0,0.0,0.0,0.0,0.0,0.0,0.0,0.0,0.0,0.0,0.0,0.0,0.0,0.0,0.0,0.0,0.0,0.0,0.0,0.0,0.0,0.0,0.0,0.0,0.0,0.0,0.0,0.0,0.0,0.0,0.0,0.0,0.0,0.0,0.0,0.0,0.0,0.0,0.0,0.0,0.0,0.0,0.0,0.0,0.0,0.0,0.0,0.0,0.0,0.0,0.0,0.0,0.0,0.0,0.0,0.0,0.0,0.0,0.0,0.0,0.0,0.0,0.0,0.0,0.0,0.0,0.0,0.0,0.0,0.0,0.0,0.0,0.0,0.0,0.0,0.0,0.0,0.0,0.0,0.0,0.0,0.0,0.0,0.0,0.0,0.0,0.0,0.0,0.0,0.0,0.0,0.0,0.0,0.0,0.0,0.0,0.0,0.0,0.0,3.356,3.356,3.3311,0.0,3.3094,0.0,0.0,0.0,0.0,0.0,0.0,0.0,0.0,0.0,0.0,0.0,0.0,0.0,0.0,0.0,0.0,0.0,0.0,0.0,0.0,0.0,0.0,0.0,0.0,0.0,0.0,0.0,0.0,0.0,0.0,0.0,0.0,0.0,0.0,0.0,0.0,0.0,0.0,0.0,0.0,0.0,0.0,0.0,0.0,0.0,0.0,0.0,0.0,0.0,0.0,0.0,0.0,0.0,0.0,0.0,0.0,0.0,0.0,0.0,0.0,0.0,0.0,0.0,0.0,0.0,0.0,0.0,0.0,0.0,0.0,0.0,0.0,0.0,0.0,0.0,0.0,0.0,0.0,0.0,0.0,0.0,0.0,0.0,0.0,0.0,0.0,0.0,0.0,0.0,0.0,0.0,0.0,0.0,0.0,0.0,0.0,0.0,0.0,0.0,0.0,0.0,0.0,0.0,0.0,0.0,0.0,0.0,0.0,0.0,0.0,3.4052,3.4017,3.3912,3.3751,0.0,0.0,0.0,0.0,0.0,0.0,0.0,0.0,0.0,0.0,0.0,0.0,0.0,0.0,0.0,0.0,0.0,0.0,0.0,0.0,0.0,0.0,0.0,0.0,0.0,0.0,0.0,0.0,0.0,0.0,0.0,0.0,0.0,0.0,0.0,0.0,0.0,0.0,0.0,0.0,0.0,0.0,0.0,0.0,0.0,0.0,0.0,0.0,0.0,0.0,0.0,0.0,0.0,0.0,0.0,0.0,0.0,0.0,0.0,0.0,0.0,0.0,0.0,0.0,0.0,0.0,0.0,0.0,0.0,0.0,0.0,0.0,0.0,0.0,0.0,0.0,0.0,0.0,0.0,0.0,0.0,0.0,0.0,0.0,0.0,0.0,0.0,0.0,0.0,0.0,0.0,0.0,0.0,0.0,0.0,0.0,0.0,0.0,0.0,0.0,0.0,0.0,0.0,0.0,0.0,0.0,0.0,0.0,0.0,0.0,3.5079,3.4973,3.4905,3.4871,3.4733,3.4565,0.0,0.0,0.0,0.0,0.0,0.0,0.0,0.0,0.0,0.0,0.0,0.0,0.0,0.0,0.0,0.0,0.0,0.0,0.0,0.0,0.0,0.0,0.0,0.0,0.0,0.0,0.0,0.0,0.0,0.0,0.0,0.0,0.0,0.0,0.0,0.0,0.0,0.0,0.0,0.0,0.0,0.0,0.0,0.0,0.0,0.0,0.0,0.0,0.0,0.0,0.0,0.0,0.0,0.0,0.0,0.0,0.0,0.0,0.0,0.0,0.0,0.0,0.0,0.0,0.0,0.0,0.0,0.0,0.0,0.0,0.0,0.0,0.0,0.0,0.0,0.0,0.0,0.0,0.0,0.0,0.0,0.0,0.0,0.0,0.0,0.0,0.0,0.0,0.0,0.0,0.0,0.0,0.0,0.0,0.0,0.0,0.0,0.0,0.0,0.0,0.0,0.0,0.0,0.0,0.0,0.0,0.0,0.0,3.7144,3.7004,3.6859,3.6651,3.6666,3.66,0.0,0.0,0.0,0.0,0.0,0.0,0.0,0.0,0.0,0.0,0.0,0.0,0.0,0.0,0.0,0.0,0.0,0.0,0.0,0.0,0.0,0.0,0.0,0.0,0.0,0.0,0.0,0.0,0.0,0.0,0.0,0.0,0.0,0.0,0.0,0.0,0.0,0.0,0.0,0.0,0.0,0.0,0.0,0.0,0.0,0.0,0.0,0.0,0.0,0.0,0.0,0.0,0.0,0.0,0.0,0.0,0.0,0.0,0.0,0.0,0.0,0.0,0.0,0.0,0.0,0.0,0.0,0.0,0.0,0.0,0.0,0.0,0.0,0.0,0.0,0.0,0.0,0.0,0.0,0.0,0.0,0.0,0.0,0.0,0.0,0.0,0.0,0.0,0.0,0.0,0.0,0.0,0.0,0.0,0.0,0.0,0.0,0.0,0.0,0.0,0.0,0.0,0.0,0.0,0.0,0.0,0.0,0.0,0.0,3.7279,3.7241,3.7184,3.7151,3.7038,3.694,0.0,0.0,0.0,0.0,0.0,0.0,0.0,0.0,0.0,0.0,0.0,0.0,0.0,0.0,0.0,0.0,0.0,0.0,0.0,0.0,0.0,0.0,0.0,0.0,0.0,0.0,0.0,0.0,0.0,0.0,0.0,0.0,0.0,0.0,0.0,0.0,0.0,0.0,0.0,0.0,0.0,0.0,0.0,0.0,0.0,0.0,0.0,0.0,0.0,0.0,0.0,0.0,0.0,0.0,0.0,0.0,0.0,0.0,0.0,0.0,0.0,0.0,0.0,0.0,0.0,0.0,0.0,0.0,0.0,0.0,0.0,0.0,0.0,0.0,0.0,0.0,0.0,0.0,0.0,0.0,0.0,0.0,0.0,0.0,0.0,0.0,0.0,0.0,0.0,0.0,0.0,0.0,0.0,0.0,0.0,0.0,0.0,0.0,0.0,0.0,0.0,0.0,0.0,0.0,0.0,0.0,0.0,0.0,0.0,3.7383,0.0,3.7364,3.7317,3.726,3.7174,0.0,0.0,0.0,0.0,0.0,0.0,0.0,0.0,0.0,0.0,0.0,0.0,0.0,0.0,0.0,0.0,0.0,0.0,0.0,0.0,0.0,0.0,0.0,0.0,0.0,0.0,0.0,0.0,0.0,0.0,0.0,0.0,0.0,0.0,0.0,0.0,0.0,0.0,0.0,0.0,0.0,0.0,0.0,0.0,0.0,0.0,0.0,0.0,0.0,0.0,0.0,0.0,0.0,0.0,0.0,0.0,0.0,0.0,0.0,0.0,0.0,0.0,0.0,0.0,0.0,0.0,0.0,0.0,0.0,0.0,0.0,0.0,0.0,0.0,0.0,0.0,0.0,0.0,0.0,0.0,0.0,0.0,0.0,0.0,0.0,0.0,0.0,0.0,0.0,0.0,0.0,0.0,0.0,0.0,0.0,0.0,0.0,0.0,0.0,0.0,0.0,0.0,0.0,0.0,0.0,0.0,0.0,0.0,3.7657,3.7621,3.7621,3.7638,3.742,3.7437,3.7399,0.0,0.0,0.0,0.0,0.0,0.0,0.0,0.0,0.0,0.0,0.0,0.0,0.0,0.0,0.0,0.0,0.0,0.0,0.0,0.0,0.0,0.0,0.0,0.0,0.0,0.0,0.0,0.0,0.0,0.0,0.0,0.0,0.0,0.0,0.0,0.0,0.0,0.0,0.0,0.0,0.0,0.0,0.0,0.0,0.0,0.0,0.0,0.0,0.0,0.0,0.0,0.0,0.0,0.0,0.0,0.0,0.0,0.0,0.0,0.0,0.0,0.0,0.0,0.0,0.0,0.0,0.0,0.0,0.0,0.0,0.0,0.0,0.0,0.0,0.0,0.0,0.0,0.0,0.0,0.0,0.0,0.0,0.0,0.0,0.0,0.0,0.0,0.0,0.0,0.0,0.0,0.0,0.0,0.0,0.0,0.0,0.0,0.0,0.0,0.0,0.0,0.0,0.0,0.0,0.0,0.0,0.0,0.0,0.0,3.8469,3.8923,3.8949,3.8412,3.8266,3.797,0.0,0.0,0.0,0.0,0.0,0.0,0.0,0.0,0.0,0.0,0.0,0.0,0.0,0.0,0.0,0.0,0.0,0.0,0.0,0.0,0.0,0.0,0.0,0.0,0.0,0.0,0.0,0.0,0.0,0.0,0.0,0.0,0.0,0.0,0.0,0.0,0.0,0.0,0.0,0.0,0.0,0.0,0.0,0.0,0.0,0.0,0.0,0.0,0.0,0.0,0.0,0.0,0.0,0.0,0.0,0.0,0.0,0.0,0.0,0.0,0.0,0.0,0.0,0.0,0.0,0.0,0.0,0.0,0.0,0.0,0.0,0.0,0.0,0.0,0.0,0.0,0.0,0.0,0.0,0.0,0.0,0.0,0.0,0.0,0.0,0.0,0.0,0.0,0.0,0.0,0.0,0.0,0.0,0.0,0.0,0.0,0.0,0.0,0.0,0.0,0.0,0.0,0.0,0.0,0.0,0.0,0.0,0.0,0.0,3.9823,3.9854,3.9672,3.9209,3.9116,3.8721,3.7964,0.0,0.0,0.0,0.0,0.0,0.0,0.0,0.0,0.0,0.0,0.0,0.0,0.0,0.0,0.0,0.0,0.0,0.0,0.0,0.0,0.0,0.0,0.0,0.0,0.0,0.0,0.0,0.0,0.0,0.0,0.0,0.0,0.0,0.0,0.0,0.0,0.0,0.0,0.0,0.0,0.0,0.0,0.0,0.0,0.0,0.0,0.0,0.0,0.0,0.0,0.0,0.0,0.0,0.0,0.0,0.0,0.0,0.0,0.0,0.0,0.0,0.0,0.0,0.0,0.0,0.0,0.0,0.0,0.0,0.0,0.0,0.0,0.0,0.0,0.0,0.0,0.0,0.0,0.0,0.0,0.0,0.0,0.0,0.0,0.0,0.0,0.0,0.0,0.0,0.0,0.0,0.0,0.0,0.0,0.0,0.0,0.0,0.0,0.0,0.0,0.0,0.0,0.0,0.0,0.0,0.0,0.0,0.0,4.1504,4.0558,4.0068,3.9968,3.9968,3.9611,0.0,0.0,0.0,0.0,0.0,0.0,0.0,0.0,0.0,0.0,0.0,0.0,0.0,0.0,0.0,0.0,0.0,0.0,0.0,0.0,0.0,0.0,0.0,0.0,0.0,0.0,0.0,0.0,0.0,0.0,0.0,0.0,0.0,0.0,0.0,0.0,0.0,0.0,0.0,0.0,0.0,0.0,0.0,0.0,0.0,0.0,0.0,0.0,0.0,0.0,0.0,0.0,0.0,0.0,0.0,0.0,0.0,0.0,0.0,0.0,0.0,0.0,0.0,0.0,0.0,0.0,0.0,0.0,0.0,0.0,0.0,0.0,0.0,0.0,0.0,0.0,0.0,0.0,0.0,0.0,0.0,0.0,0.0,0.0,0.0,0.0,0.0,0.0,0.0,0.0,0.0,0.0,0.0,0.0,0.0,0.0,0.0,0.0,0.0,0.0,0.0,0.0,0.0,0.0,0.0,0.0,0.0,0.0,0.0,4.2517,4.2253,4.1761,4.1058,4.0945,4.0558,0.0,0.0,0.0,0.0,0.0,0.0,0.0,0.0,0.0,0.0,0.0,0.0,0.0,0.0,0.0,0.0,0.0,0.0,0.0,0.0,0.0,0.0,0.0,0.0,0.0,0.0,0.0,0.0,0.0,0.0,0.0,0.0,0.0,0.0,0.0,0.0,0.0,0.0,0.0,0.0,0.0,0.0,0.0,0.0,0.0,0.0,0.0,0.0,0.0,0.0,0.0,0.0,0.0,0.0,0.0,0.0,0.0,0.0,0.0,0.0,0.0,0.0,0.0,0.0,0.0,0.0,0.0,0.0,0.0,0.0,0.0,0.0,0.0,0.0,0.0,0.0,0.0,0.0,0.0,0.0,0.0,0.0,0.0,0.0,0.0,0.0,0.0,0.0,0.0,0.0,0.0,0.0,0.0,0.0,0.0,0.0,0.0,0.0,0.0,0.0,0.0,0.0,0.0,0.0,0.0,0.0,0.0,0.0,4.3142,4.3142,4.3142,4.2869,4.2277,4.2061,4.1538,0.0,0.0,0.0,0.0,0.0,0.0,0.0,0.0,0.0,0.0,0.0,0.0,0.0,0.0,0.0,0.0,0.0,0.0,0.0,0.0,0.0,0.0,0.0,0.0,0.0,0.0,0.0,0.0,0.0,0.0,0.0,0.0,0.0,0.0,0.0,0.0,0.0,0.0,0.0,0.0,0.0,0.0,0.0,0.0,0.0,0.0,0.0,0.0,0.0,0.0,0.0,0.0,0.0,0.0,0.0,0.0,0.0,0.0,0.0,0.0,0.0,0.0,0.0,0.0,0.0,0.0,0.0,0.0,0.0,0.0,0.0,0.0,0.0,0.0,0.0,0.0,0.0,0.0,0.0,0.0,0.0,0.0,0.0,0.0,0.0,0.0,0.0,0.0,0.0,0.0,0.0,0.0,0.0,0.0,0.0,0.0,0.0,0.0,0.0,0.0,0.0,0.0,0.0,0.0,0.0,0.0,0.0,0.0,4.354,4.3532,4.3532,4.354,4.3523,4.3077,4.2441,0.0,0.0,0.0,0.0,0.0,0.0,0.0,0.0,0.0,0.0,0.0,0.0,0.0,0.0,0.0,0.0,0.0,0.0,0.0,0.0,0.0,0.0,0.0,0.0,0.0,0.0,0.0,0.0,0.0,0.0,0.0,0.0,0.0,0.0,0.0,0.0,0.0,0.0,0.0,0.0,0.0,0.0,0.0,0.0,0.0,0.0,0.0,0.0,0.0,0.0,0.0,0.0,0.0,0.0,0.0,0.0,0.0,0.0,0.0,0.0,0.0,0.0,0.0,0.0,0.0,0.0,0.0,0.0,0.0,0.0,0.0,0.0,0.0,0.0,0.0,0.0,0.0,0.0,0.0,0.0,0.0,0.0,0.0,0.0,0.0,0.0,0.0,0.0,0.0,0.0,0.0,0.0,0.0,0.0,0.0,0.0,0.0,0.0,0.0,0.0,0.0,0.0,0.0,0.0,0.0,0.0,0.0,0.0,4.3746,4.3746,4.3746,4.3746,4.3746,4.3331,4.2959,0.0,0.0,0.0,0.0,0.0,0.0,0.0,0.0,0.0,0.0,0.0,0.0,0.0,0.0,0.0,0.0,0.0,0.0,0.0,0.0,0.0,0.0,0.0,0.0,0.0,0.0,0.0,0.0,0.0,0.0,0.0,0.0,0.0,0.0,0.0,0.0,0.0,0.0,0.0,0.0,0.0,0.0,0.0,0.0,0.0,0.0,0.0,0.0,3.9703,0.0,0.0,0.0,0.0,0.0,0.0,0.0,0.0,0.0,0.0,0.0,0.0,0.0,0.0,0.0,0.0,0.0,0.0,0.0,0.0,0.0,0.0,0.0,0.0,0.0,0.0,0.0,0.0,0.0,0.0,0.0,0.0,0.0,0.0,0.0,0.0,0.0,0.0,0.0,0.0,0.0,0.0,0.0,0.0,0.0,0.0,0.0,0.0,0.0,0.0,0.0,0.0,0.0,0.0,0.0,0.0,0.0,0.0,0.0,4.3974,4.3889,4.3881,4.3889,4.3881,4.3667,4.3374,0.0,0.0,0.0,0.0,0.0,0.0,0.0,0.0,0.0,0.0,0.0,0.0,0.0,0.0,0.0,0.0,0.0,0.0,0.0,0.0,0.0,0.0,0.0,0.0,0.0,0.0,0.0,0.0,0.0,0.0,0.0,0.0,0.0,0.0,0.0,0.0,0.0,0.0,0.0,0.0,0.0,0.0,0.0,0.0,0.0,0.0,0.0,0.0,0.0,0.0,0.0,0.0,0.0,0.0,0.0,0.0,0.0,0.0,0.0,0.0,0.0,0.0,0.0,0.0,0.0,0.0,0.0,0.0,0.0,0.0,0.0,0.0,0.0,0.0,0.0,0.0,0.0,0.0,0.0,0.0,0.0,0.0,0.0,0.0,0.0,0.0,0.0,0.0,0.0,0.0,0.0,0.0,0.0,0.0,0.0,0.0,0.0,0.0,0.0,0.0,0.0,0.0,0.0,0.0,0.0,0.0,0.0,4.4728,4.4265,4.4047,4.3994,4.4016,4.4016,4.3945,4.3709,4.3313,0.0,0.0,0.0,0.0,0.0,0.0,0.0,0.0,0.0,0.0,0.0,0.0,0.0,0.0,0.0,0.0,0.0,0.0,0.0,0.0,0.0,0.0,0.0,0.0,0.0,0.0,0.0,0.0,0.0,0.0,0.0,0.0,0.0,0.0,0.0,0.0,0.0,0.0,4.1834,4.1593,0.0,0.0,0.0,0.0,0.0,0.0,0.0,0.0,4.0251,0.0,0.0,0.0,0.0,0.0,0.0,0.0,0.0,0.0,0.0,0.0,0.0,0.0,0.0,0.0,0.0,0.0,0.0,0.0,0.0,0.0,0.0,0.0,0.0,0.0,0.0,0.0,0.0,0.0,0.0,0.0,0.0,0.0,0.0,0.0,0.0,0.0,0.0,0.0,0.0,0.0,0.0,0.0,0.0,0.0,0.0,0.0,0.0,0.0,0.0,0.0,0.0,0.0,0.0,0.0,0.0,4.5582,4.5341,4.4854,4.4206,4.4062,4.4016,4.4016,4.3937,4.3824,4.3713,0.0,0.0,0.0,0.0,0.0,0.0,0.0,0.0,0.0,0.0,0.0,0.0,0.0,0.0,0.0,0.0,0.0,0.0,0.0,0.0,0.0,0.0,0.0,0.0,0.0,0.0,0.0,0.0,0.0,0.0,0.0,0.0,0.0,0.0,0.0,0.0,0.0,0.0,0.0,4.176,4.1571,0.0,0.0,0.0,0.0,0.0,0.0,0.0,0.0,4.0399,0.0,0.0,0.0,0.0,0.0,0.0,0.0,0.0,0.0,0.0,0.0,0.0,0.0,0.0,0.0,0.0,0.0,0.0,0.0,0.0,0.0,0.0,0.0,0.0,0.0,0.0,0.0,0.0,0.0,0.0,0.0,0.0,0.0,0.0,0.0,0.0,0.0,0.0,0.0,0.0,0.0,0.0,0.0,0.0,0.0,0.0,0.0,0.0,0.0,0.0,0.0,0.0,0.0,0.0,0.0,4.6329,4.5799,4.5118,4.4296,4.4184,4.4162,4.4154,4.4526,4.4687,0.0,0.0,0.0,0.0,0.0,0.0,0.0,0.0,0.0,0.0,0.0,0.0,0.0,0.0,0.0,0.0,0.0,0.0,0.0,0.0,0.0,0.0,0.0,0.0,0.0,0.0,0.0,0.0,0.0,0.0,0.0,0.0,0.0,0.0,0.0,0.0,0.0,0.0,0.0,0.0,4.2747,4.239,4.239,0.0,0.0,0.0,0.0,0.0,0.0,4.1277,4.0937,0.0,0.0,0.0,0.0,0.0,0.0,0.0,0.0,0.0,0.0,0.0,0.0,0.0,0.0,0.0,0.0,0.0,0.0,0.0,0.0,0.0,0.0,0.0,0.0,0.0,0.0,0.0,0.0,0.0,0.0,0.0,0.0,0.0,0.0,0.0,0.0,0.0,0.0,0.0,0.0,0.0,0.0,0.0,0.0,0.0,0.0,0.0,0.0,0.0,0.0,0.0,0.0,0.0,0.0,0.0,4.7243,4.6517,4.5686,4.4864,4.4812,4.4804,4.4804,4.5395,4.5738,0.0,0.0,0.0,0.0,0.0,0.0,0.0,0.0,0.0,0.0,0.0,0.0,0.0,0.0,0.0,0.0,0.0,0.0,0.0,0.0,0.0,0.0,0.0,0.0,0.0,0.0,0.0,0.0,0.0,0.0,0.0,0.0,0.0,0.0,0.0,0.0,0.0,0.0,0.0,0.0,0.0,4.3344,4.3344,4.3255,0.0,0.0,0.0,0.0,4.2706,4.1881,0.0,0.0,0.0,0.0,0.0,0.0,0.0,0.0,0.0,0.0,0.0,0.0,0.0,0.0,0.0,0.0,0.0,0.0,0.0,0.0,0.0,0.0,0.0,0.0,0.0,0.0,0.0,0.0,0.0,0.0,0.0,0.0,0.0,0.0,0.0,0.0,0.0,0.0,0.0,0.0,0.0,0.0,0.0,0.0,0.0,0.0,0.0,0.0,0.0,0.0,0.0,0.0,0.0,0.0,0.0,0.0,4.8174,4.7988,4.7492,4.666,4.6487,4.6419,4.6419,4.6531,4.6561,0.0,0.0,0.0,0.0,0.0,0.0,0.0,0.0,0.0,0.0,0.0,0.0,0.0,0.0,0.0,0.0,0.0,0.0,0.0,0.0,0.0,0.0,0.0,0.0,0.0,0.0,0.0,0.0,0.0,0.0,0.0,0.0,0.0,0.0,0.0,0.0,0.0,0.0,0.0,0.0,0.0,4.4158,4.4169,4.4158,4.4136,0.0,0.0,4.303,4.303,4.2284,0.0,0.0,0.0,0.0,0.0,0.0,0.0,0.0,0.0,0.0,0.0,0.0,0.0,0.0,0.0,0.0,0.0,0.0,0.0,0.0,0.0,0.0,0.0,0.0,0.0,0.0,0.0,0.0,0.0,0.0,0.0,0.0,0.0,0.0,0.0,0.0,0.0,0.0,0.0,0.0,0.0,0.0,0.0,0.0,0.0,0.0,0.0,0.0,0.0,0.0,0.0,0.0,0.0,0.0,0.0,4.9363,4.8506,4.839,4.7918,4.7099,4.6989,4.6922,4.6922,4.732,4.7559,0.0,0.0,0.0,0.0,0.0,0.0,0.0,0.0,0.0,0.0,0.0,0.0,0.0,0.0,0.0,0.0,0.0,0.0,0.0,0.0,0.0,0.0,0.0,0.0,0.0,0.0,0.0,0.0,0.0,0.0,0.0,0.0,0.0,0.0,0.0,0.0,0.0,0.0,0.0,0.0,0.0,0.0,4.5141,4.5073,0.0,0.0,0.0,4.3782,4.3782,0.0,0.0,0.0,0.0,0.0,0.0,0.0,0.0,0.0,0.0,0.0,0.0,0.0,0.0,0.0,0.0,0.0,0.0,0.0,0.0,0.0,0.0,0.0,0.0,0.0,0.0,0.0,0.0,0.0,0.0,0.0,0.0,0.0,0.0,0.0,0.0,0.0,0.0,0.0,0.0,0.0,0.0,0.0,0.0,0.0,0.0,0.0,0.0,0.0,0.0,0.0,0.0,0.0,0.0,0.0,0.0,0.0,4.8913,4.8805,4.8468,4.785,4.7756,4.7735,4.7773,4.8317,0.0,0.0,0.0,0.0,0.0,0.0,0.0,0.0,0.0,0.0,0.0,0.0,0.0,0.0,0.0,0.0,0.0,0.0,0.0,0.0,0.0,0.0,0.0,0.0,0.0,0.0,0.0,4.6565,0.0,0.0,0.0,0.0,0.0,0.0,0.0,0.0,0.0,0.0,0.0,0.0,0.0,0.0,4.6105,4.6105,4.6027,4.597,0.0,0.0,4.4686,4.4686,4.3988,4.374,0.0,0.0,0.0,0.0,0.0,0.0,0.0,0.0,0.0,0.0,0.0,0.0,0.0,0.0,0.0,0.0,0.0,0.0,0.0,0.0,0.0,0.0,0.0,0.0,0.0,0.0,0.0,0.0,0.0,0.0,0.0,0.0,0.0,0.0,0.0,0.0,0.0,0.0,0.0,0.0,0.0,0.0,0.0,0.0,0.0,0.0,0.0,0.0,0.0,0.0,0.0,0.0,0.0,0.0,4.9845,4.9724,4.9724,4.9651,4.9511,4.9504,4.9541,4.9504,4.9572,4.961,0.0,0.0,0.0,0.0,0.0,0.0,0.0,0.0,0.0,0.0,0.0,0.0,0.0,0.0,0.0,0.0,0.0,0.0,0.0,0.0,0.0,0.0,0.0,0.0,0.0,0.0,0.0,0.0,0.0,0.0,0.0,0.0,0.0,0.0,0.0,0.0,0.0,0.0,0.0,0.0,0.0,4.6926,4.6938,4.6926,4.689,0.0,4.6237,4.5679,4.5679,4.5038,4.4788,4.5573,0.0,0.0,0.0,0.0,0.0,0.0,0.0,0.0,0.0,0.0,0.0,0.0,0.0,0.0,0.0,0.0,0.0,0.0,0.0,0.0,0.0,0.0,0.0,0.0,0.0,0.0,0.0,0.0,0.0,0.0,0.0,0.0,0.0,0.0,0.0,0.0,0.0,0.0,0.0,0.0,0.0,0.0,0.0,0.0,0.0,0.0,0.0,0.0,0.0,0.0,0.0,0.0,0.0,5.0699,5.0664,5.0141,4.9869,4.9835,4.9785,4.9764,4.9764,4.9721,4.9737,0.0,0.0,0.0,0.0,0.0,0.0,0.0,0.0,0.0,0.0,0.0,0.0,0.0,0.0,0.0,0.0,0.0,0.0,0.0,0.0,0.0,0.0,0.0,0.0,0.0,0.0,0.0,0.0,4.8074,4.8066,4.7961,0.0,0.0,0.0,0.0,0.0,0.0,0.0,0.0,0.0,0.0,4.7088,4.702,4.7009,0.0,0.0,4.632,4.582,4.582,4.5523,4.5416,4.5749,4.6212,0.0,0.0,0.0,0.0,0.0,0.0,0.0,0.0,0.0,0.0,0.0,0.0,0.0,0.0,0.0,0.0,0.0,0.0,0.0,0.0,0.0,0.0,0.0,0.0,0.0,0.0,0.0,0.0,0.0,0.0,0.0,0.0,0.0,0.0,0.0,0.0,0.0,0.0,0.0,0.0,0.0,0.0,0.0,0.0,0.0,0.0,0.0,0.0,0.0,0.0,0.0,0.0,5.1426,5.1199,5.0599,5.0151,4.9893,4.9869,4.9841,4.9835,4.9792,4.9764,0.0,0.0,0.0,0.0,0.0,0.0,0.0,0.0,0.0,0.0,0.0,0.0,0.0,0.0,0.0,0.0,0.0,0.0,0.0,0.0,0.0,0.0,0.0,0.0,0.0,0.0,0.0,0.0,4.9669,4.9766,4.9642,0.0,0.0,0.0,0.0,0.0,0.0,0.0,0.0,0.0,0.0,4.7145,4.702,4.7009,4.7009,4.7009,4.6545,4.6177,4.6177,4.6177,4.6141,4.6141,0.0,0.0,0.0,0.0,0.0,0.0,0.0,0.0,0.0,0.0,0.0,0.0,0.0,0.0,0.0,0.0,0.0,0.0,0.0,0.0,0.0,0.0,0.0,0.0,0.0,0.0,0.0,5.3498,0.0,0.0,5.346,0.0,0.0,0.0,0.0,0.0,0.0,0.0,0.0,0.0,0.0,0.0,0.0,0.0,0.0,0.0,0.0,0.0,0.0,0.0,0.0,0.0,0.0,5.1995,5.1237,5.1161,5.0751,4.9931,4.9886,4.9886,4.9886,4.9886,4.9886,4.9917,0.0,0.0,0.0,0.0,0.0,0.0,0.0,0.0,0.0,0.0,0.0,0.0,0.0,0.0,0.0,0.0,0.0,0.0,0.0,0.0,0.0,0.0,0.0,0.0,0.0,0.0,5.0289,5.1025,5.1385,0.0,0.0,0.0,0.0,0.0,0.0,0.0,0.0,0.0,4.7597,4.7334,4.7145,4.7067,4.7045,4.708,4.7045,4.7009,4.7009,4.7009,4.7009,4.6973,0.0,0.0,0.0,0.0,0.0,0.0,0.0,0.0,0.0,0.0,0.0,0.0,0.0,0.0,0.0,0.0,0.0,0.0,0.0,0.0,0.0,0.0,0.0,0.0,0.0,0.0,0.0,5.5161,5.5157,0.0,0.0,0.0,0.0,0.0,0.0,0.0,0.0,0.0,0.0,0.0,5.517,5.5393,0.0,0.0,0.0,0.0,0.0,0.0,0.0,0.0,0.0,0.0,0.0,0.0,5.2866,5.1995,5.1464,5.0789,4.9931,4.9893,4.9893,4.9893,4.9893,4.9893,4.9893,0.0,0.0,0.0,0.0,0.0,0.0,0.0,0.0,0.0,0.0,0.0,0.0,0.0,0.0,0.0,0.0,0.0,0.0,0.0,0.0,0.0,0.0,0.0,0.0,0.0,5.0507,0.0,0.0,0.0,0.0,0.0,0.0,0.0,0.0,0.0,0.0,0.0,4.972,4.9364,4.9191,4.8992,4.8707,4.8672,4.8637,0.0,0.0,0.0,0.0,0.0,0.0,0.0,0.0,0.0,0.0,0.0,0.0,0.0,0.0,4.7025,4.7571,4.7215,4.6847,4.6847,0.0,0.0,0.0,0.0,0.0,0.0,0.0,0.0,0.0,0.0,0.0,0.0,0.0,0.0,5.6008,5.6008,5.6008,0.0,0.0,0.0,0.0,0.0,0.0,0.0,0.0,5.5761,5.5756,5.5735,5.5698,5.5665,5.5649,5.5581,5.5482,0.0,0.0,0.0,0.0,0.0,0.0,0.0,0.0,5.37,5.2866,5.2336,5.1661,5.0834,5.0796,5.0751,5.0758,5.0492,5.0227,4.9893,5.0751,5.1578,0.0,0.0,0.0,0.0,0.0,0.0,0.0,0.0,0.0,0.0,0.0,0.0,0.0,0.0,0.0,0.0,0.0,0.0,0.0,0.0,0.0,0.0,0.0,5.1756,0.0,0.0,0.0,0.0,0.0,0.0,0.0,0.0,0.0,5.123,5.1003,5.0785,5.0399,5.026,5.0064,4.9704,0.0,0.0,0.0,0.0,0.0,0.0,0.0,4.9198,4.8948,4.8508,4.8091,4.7841,4.758,4.7402,4.7413,0.0,0.0,4.7734,4.7366,4.7009,4.7009,4.7223,4.7592,4.8091,4.8782,4.9412,0.0,0.0,0.0,0.0,5.6008,0.0,0.0,0.0,5.6046,5.6085,0.0,5.6162,0.0,0.0,0.0,0.0,5.5943,5.59,0.0,0.0,5.59,5.5875,5.5797,5.5792,5.5766,5.5708,5.5643,5.5543,5.5499,5.532,0.0,0.0,0.0,0.0,0.0,0.0,5.4541,5.3707,5.3669,5.3245,5.2411,5.2374,5.2374,5.2336,5.1616,5.0858,5.0075,5.082,5.1616,5.2411,5.3245,0.0,0.0,0.0,0.0,0.0,0.0,0.0,0.0,0.0,0.0,0.0,0.0,0.0,0.0,0.0,0.0,0.0,0.0,0.0,0.0,5.2833,0.0,0.0,0.0,0.0,0.0,0.0,0.0,0.0,0.0,5.3125,5.1556,5.1277,5.104,5.0768,0.0,0.0,0.0,0.0,4.9778,4.9602,4.9472,4.9412,4.9412,4.9376,4.9127,4.8437,0.0,0.0,4.7152,4.7627,4.8127,4.8163,4.8091,4.7913,4.7152,4.7045,4.7009,4.7009,4.7544,4.8115,4.8199,4.8675,4.9198,5.7134,0.0,0.0,0.0,0.0,5.6008,5.6356,5.6936,5.6936,5.7284,5.783,5.7869,0.0,0.0,0.0,0.0,0.0,0.0,5.5968,5.5964,5.5971,5.5986,5.5933,5.5827,5.5766,5.5703,5.5643,5.5535,5.5377,5.5879,5.621,5.6407,0.0,0.0,0.0,0.0,5.511,5.3783,5.3707,5.3283,5.2411,5.2411,5.2411,5.2411,5.2184,5.1957,5.1691,5.1926,5.2449,5.329,5.3556,0.0,0.0,0.0,0.0,0.0,0.0,0.0,0.0,0.0,0.0,0.0,0.0,0.0,0.0,0.0,0.0,0.0,0.0,0.0,5.3058,5.3182,5.3478,0.0,0.0,0.0,0.0,0.0,0.0,0.0,0.0,0.0,5.3125,5.2992,5.2846,0.0,0.0,5.2253,5.1903,5.178,5.1619,5.1407,5.1251,0.0,5.1165,5.0579,5.0054,4.9852,4.8936,4.7949,4.7116,4.7187,4.733,4.733,4.733,4.7259,4.708,4.7009,4.7009,4.7009,4.7223,4.733,4.7402,4.7973,4.8496,5.7989,5.7018,5.7018,5.7056,5.7018,5.7018,5.7327,5.7787,5.7826,5.8139,5.8608,5.8608,5.8608,5.8608,5.8608,0.0,0.0,0.0,5.7018,5.7018,5.7025,5.6989,5.6946,5.6849,5.6591,5.6203,5.612,5.583,5.5402,5.6126,5.6449,5.6445,0.0,5.7156,5.6702,5.636,5.5527,5.4238,5.4162,5.3935,5.3397,5.3397,5.3245,5.2904,5.2904,5.2753,5.2411,5.2411,5.279,5.3669,5.3707,5.4086,0.0,0.0,0.0,0.0,0.0,0.0,0.0,0.0,0.0,0.0,0.0,5.492,5.492,0.0,0.0,0.0,5.4088,5.3981,5.3973,5.3863,0.0,0.0,0.0,0.0,0.0,0.0,0.0,5.4065,5.3954,5.3869,5.3794,5.3774,5.3667,5.3498,5.3427,5.3272,5.2893,0.0,5.2538,5.2293,5.2102,5.1873,5.155,5.0975,5.0389,4.9686,4.8579,4.7616,4.7116,4.7009,4.7009,4.7045,4.7259,4.7473,4.7473,4.7723,4.7676,4.7152,4.7009,4.7009,4.7009,4.7402,4.7723,5.8802,5.8802,5.8802,5.8724,5.8608,5.8608,5.8647,5.8685,5.8724,5.8724,5.8802,5.8802,5.8802,5.8802,5.8724,0.0,5.8685,5.8647,5.8569,5.8608,5.8604,5.851,5.8407,5.8364,5.7921,5.7077,5.6969,5.6476,5.5744,5.631,5.659,5.6621,5.7195,5.7422,5.727,5.655,5.5754,5.492,5.4882,5.4882,5.492,5.492,5.4579,5.3935,5.3897,5.3548,5.2828,5.2828,5.3169,5.3935,5.4003,5.4352,5.5034,0.0,0.0,0.0,0.0,0.0,0.0,0.0,0.0,0.0,0.0,0.0,0.0,0.0,0.0,0.0,5.4845,0.0,5.4806,5.4627,0.0,0.0,0.0,5.4417,5.4409,5.436,5.4235,5.4118,0.0,0.0,5.3813,5.3794,5.3793,5.3733,5.3714,5.3605,5.3261,5.3017,5.275,5.2549,5.2317,5.1874,5.1322,5.0916,5.0211,4.8781,4.7663,4.7342,4.7294,4.7247,4.7212,4.7283,4.7794,4.8306,4.8294,4.8782,4.8841,4.7497,4.7259,4.7212,4.7294,4.7366,4.739,6.0499,6.0499,6.0499,5.9764,5.8608,5.8608,5.8956,5.9575,5.9571,5.9919,6.0499,6.0499,6.0499,6.046,5.988,5.9575,5.9537,5.8918,5.8608,5.8604,5.8572,5.8477,5.8407,5.8371,5.8154,5.784,5.7798,5.7564,5.716,5.7927,5.8251,5.8174,5.8317,5.7771,5.6512,5.6292,5.5754,5.492,5.492,5.492,5.492,5.492,5.5148,5.5602,5.5602,5.5792,5.6209,5.6209,5.6323,5.6512,5.6512,5.6626,5.6815,5.6815,0.0,0.0,0.0,0.0,0.0,0.0,0.0,0.0,0.0,5.4949,5.489,0.0,5.492,0.0,5.4898,5.489,5.489,5.4799,0.0,0.0,5.4568,5.4447,5.4417,5.436,5.4299,5.4273,5.4092,5.3982,5.3954,5.3879,5.3812,5.3793,5.3716,5.3625,5.3308,5.3172,5.3002,5.2798,5.2593,5.2394,5.2073,5.1381,5.0473,4.9388,4.9006,4.8864,4.8794,4.8734,4.8734,4.877,4.8877,4.902,4.9055,4.9198,4.9198,4.8841,4.8734,4.877,4.8734,4.8734,4.8734,6.1113,6.1113,6.1113,6.0576,5.9725,5.973,5.9996,6.0422,6.0422,6.0692,6.1113,6.1113,6.1113,6.1075,6.0654,6.0422,6.0383,5.9919,5.9687,5.9725,5.964,5.9572,5.9528,5.9436,5.9125,5.8579,5.8547,5.8244,5.7668,5.8059,5.8251,5.8159,5.8128,5.7657,5.6747,5.6406,5.5792,5.492,5.5299,5.5489,5.5489,5.583,5.6247,5.6709,5.6739,5.6937,5.7384,5.7422,5.7422,5.7422,5.7422,5.7422,5.7422,5.7422,5.7423,0.0,0.0,0.0,0.0,0.0,0.0,0.0,0.0,0.0,0.0,0.0,5.492,5.492,5.492,5.492,5.492,5.4845,5.4767,5.4697,5.4571,5.4472,5.4417,5.4366,5.4314,5.4308,5.4211,5.4083,5.4,5.3944,5.3879,5.3794,5.3774,5.3676,5.3518,5.3416,5.3235,5.3039,5.2861,5.2582,5.2171,5.1217,5.0371,4.9812,4.9589,4.9483,4.9412,4.9341,4.9293,4.9293,4.959,4.984,4.984,5.0161,5.0375,5.0388,5.0375,5.009,4.9436,4.9293,4.9293,6.1113,6.1113,6.1113,6.1113,6.1113,6.1113,6.1113,6.1113,6.1113,6.1113,6.1113,6.1113,6.1113,6.1113,6.1113,6.1113,6.1113,6.1109,6.107,6.1104,6.1012,6.0925,6.0894,6.0793,6.0277,5.9388,5.9276,5.8811,5.7994,5.787,5.7803,5.7795,5.765,5.7573,5.7535,5.6785,5.5981,5.5223,5.5981,5.636,5.6368,5.705,5.746,5.7535,5.7581,5.7611,5.7725,5.7695,5.7733,5.7725,5.7733,5.7733,5.7725,5.7725,5.7726,0.0,5.7878,0.0,0.0,0.0,0.0,0.0,0.0,0.0,0.0,5.492,5.492,5.492,5.492,5.492,5.492,5.4852,5.4775,5.4697,5.4616,5.4489,5.4426,5.4409,5.4375,5.4334,5.4317,5.4246,5.4055,5.4047,5.3954,5.3832,5.3831,5.3746,5.3696,5.3598,5.3457,5.3251,5.3077,5.2711,5.1974,5.1092,5.0477,5.0292,5.0147,4.9829,4.9913,4.9746,4.9662,4.9733,5.0233,5.0637,5.0673,5.1208,5.1637,5.1565,5.1565,5.1173,5.009,4.9733,4.959,6.1113,6.1113,6.1113,6.1113,6.1113,6.1113,6.1113,6.1113,6.1113,6.1113,6.1113,6.1113,6.1113,6.1113,6.1113,6.1113,6.1113,6.1036,6.1017,6.1017,6.0953,6.0867,6.0798,6.0679,6.0469,6.0168,6.0039,5.9854,5.9558,5.9535,5.9488,5.9425,5.8802,5.8453,5.8415,0.0,0.0,0.0,5.7081,5.7156,5.7164,5.7308,5.7725,5.8415,5.8453,0.0,5.9401,5.9439,5.9439,5.9439,5.9439,0.0,0.0,0.0,0.0,0.0,0.0,0.0,0.0,0.0,0.0,0.0,5.5501,5.4963,5.489,5.492,5.492,5.492,5.492,5.492,5.492,5.4905,5.4837,5.4705,5.4673,5.46,5.4434,5.4409,5.44,5.4383,5.4314,5.429,5.4255,5.4092,5.3982,5.3954,5.3841,5.3784,5.3793,5.3706,5.3568,5.3318,5.312,5.2944,5.2743,5.2327,5.193,5.1986,5.1777,5.1539,5.1382,5.1259,5.1208,5.1173,5.1351,5.1458,5.1458,5.1601,5.1708,5.1708,5.1708,5.1613,5.1315,5.1244,5.1244,6.1113,6.1113,6.1113,6.1113,0.0,6.1113,6.1113,6.1113,6.1113,6.1113,6.1113,6.1113,6.1113,6.1113,6.1113,6.1104,6.1036,6.0987,6.0946,6.0953,6.0804,6.0736,6.0635,6.0493,6.0311,6.0204,6.0114,6.0076,5.9958,5.995,5.9934,5.9893,5.9476,5.9287,5.9287,5.887,5.8226,5.7422,5.7801,5.8036,5.8074,5.8415,5.887,5.9249,5.9287,0.0,0.0,0.0,0.0,0.0,0.0,0.0,0.0,5.9325,0.0,5.8736,5.8737,5.8631,5.8213,5.7414,5.6753,5.6336,5.5457,5.4927,5.492,5.492,5.492,5.492,5.492,5.492,5.492,5.492,5.4837,5.4752,5.4736,5.4689,5.4568,5.4501,5.4439,5.443,5.4392,5.4323,5.4308,5.4155,5.4046,5.3991,5.3898,5.3831,5.3784,5.3783,5.3657,5.3349,5.313,5.297,5.2893,5.2714,5.2579,5.2524,5.2317,5.2102,5.2017,5.1845,5.1708,5.1708,5.1708,5.1708,5.1708,5.1708,5.1708,5.1708,5.1708,5.1708,5.1708,5.1708,5.1708,6.1543,6.1582,6.1582,6.1543,6.1543,6.1582,6.1543,6.1543,6.1234,0.0,0.0,6.1229,6.1311,6.135,6.1495,6.15,6.1445,6.1339,6.1307,6.1278,6.109,6.0966,6.0891,6.0697,6.0555,6.0431,6.0415,6.0413,6.0348,6.0348,6.0348,6.0348,6.0348,6.0348,6.034,6.0348,5.959,5.8188,5.8605,5.8908,5.8946,5.9552,5.9893,5.9893,5.9893,5.9893,5.9893,5.9893,5.9893,5.9893,5.9893,5.959,5.8984,5.8908,5.8529,5.7695,5.7673,5.7598,5.7294,5.6648,5.62,5.6048,5.5337,5.492,5.492,5.492,5.492,5.492,5.492,5.492,5.492,5.492,5.4883,5.4806,5.4799,5.4767,5.4734,5.4751,5.4769,5.4723,5.4881,5.4834,5.483,5.4704,5.4539,5.4475,5.4493,5.4249,5.4203,5.4006,5.362,5.3359,5.313,5.2937,5.2817,5.2683,5.2568,5.257,5.228,5.2078,5.2041,5.187,5.1733,5.1708,5.1708,5.1708,5.1708,5.1708,5.1744,5.1863,5.1935,5.197,5.2101,5.2136,5.2065,6.3328,6.3328,6.3328,6.3328,6.3328,6.3328,6.3328,6.3212,6.1776,6.1113,6.1157,6.1887,6.2235,6.2274,6.2926,6.3222,6.3119,6.3007,6.2892,6.2765,6.2648,6.2526,6.2399,6.2252,6.2165,6.214,6.2058,6.2046,6.2037,6.2037,6.2037,6.2037,6.2037,6.2037,6.2037,6.2037,6.1553,6.0576,6.0007,5.9742,5.9742,5.9856,5.9893,5.9893,5.9893,5.9893,5.9893,5.9893,5.9893,5.9893,5.9893,5.9818,5.9742,5.9704,5.9363,5.8605,5.8537,5.7938,5.6497,5.627,5.589,5.52,5.4958,5.492,5.492,5.492,5.492,5.492,5.4958,5.492,5.492,5.4958,5.4958,5.4882,5.4836,5.4805,5.4818,5.5287,5.5634,5.5634,5.6197,5.6474,5.6372,5.6292,5.6163,5.6173,5.5845,5.5935,5.5567,5.4538,5.3592,5.3328,5.313,5.2948,5.2966,5.264,5.2635,5.2515,5.2294,5.2123,5.2159,5.1999,5.1899,5.1744,5.1851,5.1815,5.1815,5.1708,5.2065,5.2577,5.272,5.2886,5.3372,5.3515,5.3194,6.3676,6.3676,6.3676,6.3676,6.3676,6.3676,6.3676,6.3642,6.2863,6.2511,6.2554,6.2941,6.3091,6.3125,6.3462,6.3543,6.3449,6.3283,6.3129,6.2978,6.2788,6.2672,6.2579,6.2504,6.2446,6.2437,6.2404,6.2416,6.2416,6.2416,6.2416,6.2416,6.2416,6.2416,6.2416,6.2416,6.2227,6.1818,6.0984,6.0348,5.9931,5.9893,5.9893,5.9893,5.9893,5.9893,5.9893,5.9893,5.9893,5.9893,5.9893,5.9704,5.9287,5.9249,5.887,5.8074,5.7998,5.7649,5.6891,5.6853,5.6702,5.6285,5.6247,5.6247,5.6247,5.5868,5.5602,5.564,5.5981,5.6247,5.6247,5.6247,5.6269,5.6231,5.6193,5.6215,5.6214,5.6312,5.6493,5.6522,5.6712,5.6887,5.6887,5.6806,5.6696,5.6631,5.6546,5.6382,5.625,5.5468,5.4748,5.458,5.4353,5.413,5.3947,5.3759,5.364,5.3628,5.336,5.3173,5.3135,5.3011,5.2934,5.2944,5.2957,5.2944,5.2908,5.2944,5.3135,5.3314,5.3492,5.3658,5.3943,5.4001,5.3716,6.4256,6.4256,6.4256,6.4256,6.4256,6.4256,6.4256,6.4256,6.4261,6.4256,6.4256,6.4063,6.398,6.3961,6.4098,6.4078,6.3901,6.3719,6.3573,6.3398,6.3188,6.3044,6.3019,6.2981,6.2947,6.2985,6.2947,6.2947,6.2947,6.2985,6.2947,6.2985,6.2947,6.2947,6.2985,6.2947,6.2871,6.2644,6.2008,6.1258,6.0492,6.0462,6.0386,6.0197,6.0197,6.0083,5.9931,5.9893,5.9893,5.9893,5.9893,5.9628,5.9022,5.8984,5.8605,5.7801,5.7695,5.7573,5.7422,5.7422,5.7422,5.7422,5.7422,5.7384,5.7384,5.7043,5.6671,5.6588,5.7005,5.7346,5.7308,5.7346,5.7422,5.7422,5.7422,5.73,5.7368,5.74,5.7423,5.7406,5.743,5.755,5.7477,5.7377,5.7379,5.7295,5.7078,5.6883,5.6671,5.6536,5.6376,5.6062,5.5606,5.5095,5.4907,5.4652,5.4481,5.4528,5.4279,5.4054,5.4002,5.3995,5.3979,5.3859,5.3894,5.3859,5.393,5.393,5.4014,5.4193,5.4264,5.4335,5.4621,5.4692,5.4371,6.5953,6.5953,6.5915,6.5953,6.5915,6.5915,6.5915,6.5915,6.5953,6.5953,6.5799,6.5223,6.4845,6.4871,6.5462,6.5566,6.5384,6.5312,6.5115,6.4943,6.485,6.4757,6.4603,6.4623,6.4661,6.4614,6.4576,6.4547,6.4538,6.4576,6.4614,6.4661,6.469,6.4614,6.4623,6.4623,6.4273,6.3515,6.3402,6.2985,6.2227,6.2151,6.1818,6.0993,6.0993,6.0652,6.0045,5.9893,5.9931,5.9893,5.9931,5.9893,5.9818,5.978,5.9439,5.8642,5.8567,5.8263,5.7535,5.7422,5.746,5.7422,5.7497,5.7497,5.7535,5.8066,5.8112,5.7573,5.7392,5.7535,5.7422,5.7497,5.7573,5.7649,5.7573,5.7422,5.7565,5.7986,5.8383,5.8345,5.8803,5.9328,5.9098,5.9024,5.8999,5.8576,5.845,5.827,5.8042,5.793,5.777,5.7292,5.6316,5.5326,5.5039,5.465,5.4669,5.4547,5.4258,5.4258,5.429,5.4255,5.4037,5.4478,5.418,5.4251,5.418,5.4037,5.4358,5.4942,5.5156,5.5299,5.5919,5.6026,5.5562,6.6185,6.6185,6.6185,6.6185,6.6185,6.6185,6.6185,6.618,6.6149,6.6134,6.609,6.5716,6.5556,6.5627,6.5807,6.5795,6.5697,6.5472,6.5313,6.5169,6.5019,6.4924,6.4926,6.4917,6.4917,6.4917,6.4917,6.4917,6.4917,6.4917,6.4917,6.4917,6.4917,6.4917,6.4917,6.4917,6.469,6.4387,6.4349,6.4197,6.3818,6.2909,6.2227,6.1932,6.1856,6.1743,6.1439,6.1363,6.1363,6.1363,6.0871,6.0614,6.0614,6.0159,5.9742,5.9439,5.9401,5.9249,5.8908,5.887,5.887,5.8862,5.887,5.887,5.887,5.9211,5.9249,5.8984,5.887,5.887,5.887,5.8862,5.8908,5.8908,5.887,5.8862,5.8908,5.9092,5.9261,5.9291,5.9441,5.9598,5.9554,5.951,5.9383,5.9167,5.9032,5.8842,5.8535,5.8378,5.8111,5.7677,5.6927,5.6491,5.6148,5.5983,5.5757,5.5675,5.5553,5.5406,5.5348,5.5419,5.5406,5.5384,5.5312,5.5312,5.5491,5.5419,5.5562,5.5883,5.5919,5.6026,5.6361,5.6396,5.6026,6.6185,6.618,6.6209,6.6155,6.6139,6.6139,6.6139,6.6134,6.608,6.6052,6.6041,6.5869,6.585,6.5949,6.5827,6.5678,6.5601,6.5345,6.521,6.512,6.4996,6.4917,6.4917,6.4917,6.4917,6.4917,6.4917,6.4917,6.4917,6.4917,6.4917,6.4917,6.4917,6.4917,6.4917,6.4917,6.4917,6.4917,6.4917,6.4917,6.4728,6.3713,6.2985,6.2757,6.2719,6.2644,6.2416,6.2416,6.2416,6.2378,6.178,6.1486,6.1439,6.0871,6.0605,6.0568,6.0568,6.0576,6.0576,6.0568,6.0568,6.0576,6.0568,6.0568,6.0576,6.0576,6.0576,6.0568,6.0576,6.0462,5.9931,5.9893,5.9893,5.9893,5.9893,5.9893,5.9856,5.9866,5.9786,5.9816,5.9706,5.9659,5.9607,5.9528,5.943,5.9177,5.9041,5.8815,5.8508,5.8246,5.7997,5.7559,5.7388,5.7215,5.7036,5.6773,5.6773,5.6626,5.6371,5.624,5.6396,5.6383,5.6383,5.5919,5.6289,5.6361,5.6097,5.624,5.6311,5.6396,5.6383,5.6347,5.6396,5.6396,5.6396,6.6185,6.6175,6.6128,6.6063,6.6013,6.6013,6.6013,6.6001,6.5955,6.5893,6.5895,6.571,6.5622,6.5629,6.5601,6.553,6.5383,6.522,6.509,6.4998,6.4932,6.4917,6.4917,6.4917,6.4917,6.4917,6.4917,6.4917,6.4917,6.4917,6.4917,6.4917,6.4917,6.4917,6.4917,6.4917,6.4917,6.4917,6.4917,6.4917,6.4917,6.4804,6.4311,6.3629,6.3553,6.325,6.2606,6.2454,6.2454,6.2454,6.2378,6.234,6.234,6.2265,6.2189,6.2189,6.2227,6.2227,6.2189,6.2151,6.2151,6.2227,6.2075,6.2227,6.2037,6.2037,6.2037,6.2227,6.2075,6.1553,6.0348,6.0235,6.0121,6.0121,6.0007,6.0045,6.0007,6.0189,5.9923,5.9953,5.9907,5.9824,5.9633,5.9565,5.9374,5.9148,5.8962,5.8787,5.8389,5.8133,5.7822,5.7425,5.7226,5.715,5.6997,5.6878,5.6746,5.66,5.6465,5.6396,5.6396,5.6396,5.6396,5.6396,5.6396,5.6396,5.6396,5.6396,5.6396,5.6396,5.6396,5.6396,5.6396,5.6396,5.6396,6.6014,6.5986,6.5996,6.5949,6.5895,6.5889,6.5826,6.582,6.5711,6.5697,6.5635,6.5503,6.5413,6.5413,6.5267,6.5252,6.5305,6.5115,6.5023,6.5019,6.4932,6.4917,6.4917,6.4917,6.4917,6.4917,6.4917,6.4917,6.4917,6.4917,6.4917,6.4917,6.4917,6.4917,6.4917,6.4917,6.4917,6.4917,6.4917,6.4917,6.4917,6.4917,6.4728,6.4463,6.4425,6.4273,6.4008,6.4008,6.4008,6.4017,6.3477,6.3174,6.3136,6.2682,6.2416,6.2416,6.2416,6.2416,6.2416,6.2416,6.2416,6.2416,6.2416,6.2454,6.2416,6.2416,6.2416,6.2416,6.2416,6.2037,6.1734,6.1515,6.1469,6.1515,6.1469,6.1431,6.1515,6.1477,6.1288,6.0765,6.0273,5.9874,5.987,5.9653,5.9501,5.9337,5.9119,5.8879,5.8588,5.8234,5.787,5.7425,5.7176,5.6984,5.675,5.672,5.664,5.6519,5.641,5.6396,5.6396,5.6396,5.6396,5.6396,5.6396,5.6396,5.6396,5.6396,5.6396,5.6396,5.6396,5.6396,5.6396,5.6396,5.6396,6.5931,6.582,6.5833,6.5782,6.5723,6.5697,6.5656,6.5601,6.5523,6.5503,6.5429,6.5282,6.5202,6.5185,6.5053,6.5044,6.5144,6.5036,6.4984,6.4976,6.4915,6.4917,6.4917,6.4917,6.4917,6.4917,6.4917,6.4917,6.4917,6.4917,6.4917,6.4917,6.4917,6.4917,6.4917,6.4917,6.4917,6.4917,6.4917,6.4917,6.4917,6.4917,6.4917,6.4917,6.4917,6.4917,6.4917,6.4917,6.4917,6.4842,6.4311,6.4008,6.397,6.3515,6.3212,6.3212,6.3212,6.3212,6.3212,6.3212,6.3212,6.3212,6.3212,6.3212,6.3212,6.3212,6.3212,6.3212,6.3212,6.3212,6.3212,6.3212,6.2985,6.2568,6.2416,6.2416,6.2416,6.2378,6.2113,6.1591,6.1136,6.0737,6.0559,6.049,6.0403,6.0238,5.9944,5.9611,5.9096,5.8603,5.803,5.7473,5.7123,5.6855,5.6693,5.66,5.6582,5.6473,5.641,5.6396,5.6396,5.6396,5.6396,5.6396,5.6396,5.6396,5.6396,5.6396,5.6396,5.6396,5.6396,5.6396,5.6396,5.6396,5.6396,6.5839,6.5703,6.5629,6.5566,6.5494,6.5466,6.5383,6.536,6.5329,6.529,6.525,6.5111,6.5036,6.4972,6.4941,6.4935,6.4915,6.4944,6.4897,6.4897,6.4926,6.4917,6.4917,6.4917,6.4917,6.4917,6.4917,6.4917,6.4917,6.4917,6.4917,6.4917,6.4917,6.4917,6.4917,6.4917,6.4917,6.4917,6.4917,6.4917,6.4917,6.4917,6.4917,6.4917,6.4917,6.4917,6.4917,6.4917,6.4917,6.4917,6.485,6.488,6.4804,6.4737,6.4804,6.469,6.4766,6.4813,6.4804,6.469,6.4623,6.4614,6.4766,6.4652,6.4576,6.4614,6.4652,6.4614,6.4661,6.4737,6.4699,6.4661,6.4122,6.2795,6.2719,6.2719,6.2606,6.2492,6.2416,6.2378,6.2227,6.2225,6.2102,6.1813,6.1637,6.1429,6.1182,6.0699,5.9841,5.9311,5.8519,5.77,5.7443,5.7424,5.6962,5.6563,5.6509,5.6468,5.6432,5.6396,5.6396,5.6396,5.6396,5.6396,5.6396,5.6396,5.6396,5.6396,5.6396,5.6396,5.6396,5.6396,5.6396,5.6396,5.6396,6.5622,6.5487,6.5457,6.5406,6.5298,6.5258,6.5218,6.5153,6.5082,6.5078,6.501,6.4958,6.4924,6.4924,6.4897,6.4917,6.4917,6.4917,6.4917,6.4917,6.4917,6.4917,6.4917,6.4917,6.4917,6.4917,6.4917,6.4917,6.4917,6.4917,6.4917,6.4917,6.4917,6.4917,6.4917,6.4917,6.4917,6.4917,6.4917,6.4917,6.4917,6.4917,6.4917,6.4917,6.4917,6.4917,6.4917,6.4917,6.4917,6.4917,6.4917,6.4917,6.4917,6.4917,6.4917,6.4917,6.4917,6.4917,6.4917,6.4917,6.4917,6.4917,6.4917,6.4917,6.4917,6.4917,6.4917,6.4917,6.4917,6.4917,6.4917,6.4917,6.4614,6.4159,6.4122,6.4046,6.3894,6.3553,6.325,6.3136,6.2757,6.2356,6.2222,6.2198,6.2165,6.1927,6.1671,6.1236,6.063,6.018,5.9786,5.9085,5.875,5.8174,5.7881,5.7493,5.7231,5.6918,5.6704,5.6432,5.6396,5.6396,5.6396,5.6396,5.6396,5.6396,5.6396,5.6396,5.6396,5.6396,5.6396,5.6396,5.6396,5.6396,5.6396,6.597,6.5757,6.5451,6.525,6.5128,6.512,6.5069,6.4993,6.4972,6.4976,6.4897,6.4926,6.4917,6.4917,6.4917,6.4917,6.4917,6.4917,6.4917,6.4917,6.4917,6.4917,6.4917,6.4917,6.4917,6.4917,6.4917,6.4917,6.4917,6.4917,6.4917,6.4917,6.4917,6.4917,6.4917,6.4917,6.4917,6.4917,6.4917,6.4917,6.4917,6.4917,6.4917,6.4917,6.4917,6.4917,6.4917,6.4917,6.4917,6.4917,6.4917,6.4917,6.4917,6.4917,6.4917,6.4917,6.4917,6.4917,6.4917,6.4917,6.4917,6.4917,6.4917,6.4917,6.4917,6.4917,6.4917,6.4917,6.4917,6.4917,6.4917,6.4917,6.4917,6.4917,6.485,6.4917,6.4804,6.4425,6.4122,6.397,6.3705,6.3303,6.3121,6.3057,6.2909,6.2678,6.2494,6.2018,6.1519,6.099,6.0554,5.9994,5.9275,5.892,5.8884,5.8508,5.8074,5.756,5.7061,5.6668,5.6396,5.6396,5.6396,5.6396,5.6396,5.6396,5.6396,5.6396,5.6396,5.6396,5.6525,5.6383,5.6383,5.6396,5.6396,6.6736,6.648,6.5713,6.5411,6.5319,6.5319,6.5305,6.5151,6.5221,6.5279,6.52,6.5305,6.5221,6.5145,6.5343,6.5305,6.5107,6.5267,6.5305,6.5267,6.5229,6.5192,6.4964,6.4917,6.4917,6.4917,6.4917,6.4917,6.4917,6.4917,6.4917,6.4917,6.4917,6.4917,6.4917,6.4917,6.4917,6.4917,6.4917,6.4917,6.4917,6.4917,6.4917,6.4917,6.4917,6.4917,6.4917,6.4917,6.4917,6.4917,6.4917,6.4917,6.4917,6.4917,6.4917,6.4917,6.4917,6.4917,6.4917,6.4917,6.4917,6.4917,6.4917,6.4917,6.4917,6.4917,6.4917,6.4917,6.4917,6.4917,6.4917,6.4917,6.4917,6.4917,6.4917,6.4917,6.4917,6.485,6.4766,6.4804,6.488,6.4779,6.4417,6.4379,6.4217,6.3948,6.3659,6.3026,6.2329,6.163,6.0941,6.0435,6.0016,5.9819,5.9852,5.9231,5.8809,5.8524,5.7917,5.7382,5.6954,5.6918,5.6954,5.6882,5.6704,5.6633,5.6704,5.6918,5.6989,5.7061,5.6954,5.6597,5.6633,5.6918,5.6825,6.753,6.7433,6.7218,6.7084,6.7,6.7,6.6902,6.6824,6.6804,6.6692,6.6726,6.6746,6.6632,6.6746,6.6708,6.6746,6.6632,6.667,6.6746,6.6746,6.6746,6.595,6.5116,6.4926,6.4955,6.4955,6.5002,6.4917,6.4917,6.4917,6.4917,6.4917,6.4917,6.4917,6.4917,6.4917,6.4917,6.4917,6.4917,6.4917,6.4917,6.4917,6.4917,6.4917,6.4917,6.4917,6.4917,6.4917,6.4917,6.4917,6.4917,6.4917,6.4917,6.4917,6.4917,6.4917,6.4917,6.4917,6.4917,6.4917,6.4917,6.4917,6.4917,6.4917,6.4917,6.4917,6.4917,6.4917,6.4917,6.4917,6.4917,6.4917,6.4917,6.4917,6.4917,6.4917,6.4917,6.4917,6.4917,6.4917,6.4917,6.479,6.4662,6.4577,6.4443,6.4063,6.3819,6.355,6.2776,6.2353,6.1708,6.1583,6.1243,6.0983,6.0662,6.0003,5.9594,5.9437,5.8973,5.8403,5.8153,5.8046,5.8117,5.8189,5.7832,5.7653,5.7903,5.8189,5.8082,5.776,5.7832,5.7689,5.7939,5.8153,5.7774,6.8422,6.8311,6.7967,6.7765,6.7728,6.7715,6.7664,6.756,6.7578,6.7516,6.7417,6.739,6.739,6.739,6.7352,6.739,6.739,6.739,6.7352,6.7352,6.7314,6.6783,6.6139,6.595,6.576,6.541,6.5419,6.5192,6.4964,6.4917,6.4917,6.4917,6.4917,6.4917,6.4917,6.4917,6.4917,6.4917,6.4917,6.4917,6.4917,6.4917,6.4917,6.4917,6.4917,6.4917,6.4917,6.4917,6.4917,6.4917,6.4917,6.4917,6.4917,6.4917,6.4917,6.4917,6.4917,6.4917,6.4917,6.4917,6.4917,6.4917,6.4917,6.4917,6.4917,6.4917,6.4917,6.4917,6.4917,6.4917,6.4917,6.4917,6.4917,6.4917,6.4917,6.4917,6.4917,6.4917,6.4917,6.4917,6.4909,6.4808,6.4624,6.4596,6.4346,6.4031,6.3856,6.3497,6.3037,6.2805,6.2475,6.2091,6.1798,6.1379,6.1106,6.0589,6.0323,6.0165,5.9972,5.9402,5.9045,5.8938,5.8831,5.8781,5.8724,5.8759,5.8866,5.8866,5.8545,5.8403,5.8652,5.8759,5.8831,5.9045,5.8702,6.9309,6.9158,6.8395,6.8049,6.8075,6.8057,6.816,6.7908,6.8074,6.8005,6.7862,6.7721,6.7901,6.7655,6.7958,6.7731,6.7731,6.7921,6.7807,6.7883,6.7883,6.7731,6.7693,6.72,6.6821,6.6329,6.6253,6.5912,6.5609,6.5343,6.5259,6.5334,6.5267,6.5069,6.5107,6.4993,6.4917,6.4917,6.4917,6.4917,6.4917,6.4917,6.4917,6.4917,6.4917,6.4917,6.4917,6.4917,6.4917,6.4917,6.4917,6.4917,6.4917,6.4917,6.4917,6.4917,6.4917,6.4917,6.4917,6.4917,6.4917,6.4917,6.4917,6.4917,6.4917,6.4917,6.4917,6.4917,6.4917,6.4917,6.4917,6.4917,6.4917,6.4917,6.4917,6.4917,6.4917,6.4917,6.4917,6.4917,6.4917,6.4828,6.4671,6.4568,6.4415,6.4052,6.3867,6.3531,6.3159,6.2818,6.2462,6.2064,6.1812,6.1544,6.1336,6.114,6.101,6.0894,6.0772,6.038,5.9687,5.9437,5.9223,5.9188,5.958,5.958,5.9402,5.9259,5.9116,5.9223,5.958,5.933,5.9116,5.9509,5.9452,7.0135,7.0119,6.9928,6.9843,6.9827,6.9843,6.9755,6.9654,6.9671,6.9462,6.9442,6.9406,6.936,6.9294,6.9228,6.9361,6.9219,6.9219,6.9361,6.9361,6.937,6.937,6.9029,6.8148,6.739,6.7125,6.7125,6.6973,6.6821,6.667,6.6821,6.6708,6.6101,6.5865,6.5798,6.5372,6.4917,6.4917,6.4955,6.504,6.4993,6.4955,6.4955,6.4917,6.4917,6.4917,6.4917,6.4917,6.4917,6.4917,6.4917,6.4917,6.4917,6.4917,6.4917,6.4917,6.4917,6.4917,6.4917,6.4917,6.4917,6.4917,6.4917,6.4917,6.4917,6.4917,6.4917,6.4917,6.4917,6.4917,6.4917,6.4917,6.4917,6.4917,6.4917,6.4917,6.4917,6.4917,6.4917,6.4917,6.4917,6.4817,6.4634,6.4606,6.4433,6.4131,6.384,6.3587,6.3242,6.2855,6.2488,6.2154,6.1868,6.163,6.1473,6.1314,6.1211,6.1152,6.1123,6.1058,6.0415,6.0201,6.0044,6.0272,6.0629,6.0487,6.0079,6.0293,6.0272,6.0415,6.0415,6.0237,6.0115,6.0308,6.0222,7.0411,7.0411,7.0411,7.0411,7.0411,7.0411,7.0361,7.0332,7.0324,7.0208,7.0132,7.0076,7.0077,7.0032,7.0032,6.9975,6.9957,6.992,6.9863,6.9863,6.9863,6.9863,6.9825,6.9058,6.8423,6.8072,6.7958,6.7807,6.7504,6.7428,6.7314,6.739,6.6935,6.6746,6.6708,6.6253,6.6177,6.6139,6.6063,6.5912,6.5533,6.5457,6.5183,6.4955,6.4917,6.4917,6.4917,6.4917,6.4917,6.4917,6.4917,6.4917,6.4917,6.4917,6.4917,6.4917,6.4917,6.4917,6.4917,6.4917,6.4917,6.4917,6.4917,6.4917,6.4917,6.4917,6.4917,6.4917,6.4917,6.4917,6.4917,6.4917,6.4917,6.4917,6.4917,6.4917,6.4917,6.4917,6.4917,6.4917,6.4917,6.4817,6.4726,6.4643,6.4491,6.4234,6.3958,6.3709,6.3347,6.2978,6.2616,6.2301,6.1978,6.1728,6.1587,6.143,6.1285,6.1211,6.1152,6.1123,6.0843,6.0843,6.0986,6.1058,6.0986,6.1022,6.0772,6.1093,6.1093,6.0915,6.0843,6.1022,6.1022,6.0772,6.0665,7.0411,7.0411,7.0411,7.0411,7.0411,7.0411,7.0369,7.0311,7.0302,7.0298,7.022,7.0211,7.0194,7.0176,7.0167,7.0123,7.0003,6.9929,6.9929,6.9901,6.9901,6.9901,6.9825,6.9673,6.937,6.884,6.8792,6.8451,6.8072,6.7807,6.8119,6.7845,6.7617,6.7579,6.7579,6.739,6.7162,6.7125,6.7087,6.6935,6.6404,6.6291,6.5988,6.5637,6.5533,6.5372,6.5305,6.5192,6.5078,6.4917,6.4917,6.4917,6.4917,6.4917,6.4917,6.4917,6.4917,6.4917,6.4917,6.4917,6.4917,6.4917,6.4917,6.4917,6.4917,6.4917,6.4917,6.4917,6.4917,6.4917,6.4917,6.4917,6.4917,6.4917,6.4917,6.4917,6.4917,6.4917,6.4917,6.4917,6.4917,6.4826,6.4745,6.4615,6.4463,6.4297,6.4073,6.3771,6.3451,6.3075,6.2692,6.2407,6.2073,6.1862,6.1686,6.1544,6.1401,6.1328,6.1241,6.1167,6.1138,6.1108,6.1108,6.1093,6.1093,6.1093,6.1093,6.1093,6.1093,6.1093,6.1093,6.1093,6.1093,6.1093,6.1022,7.0411,7.0411,7.0411,7.0411,7.0411,7.0411,7.0402,7.0394,7.0386,7.0336,7.0307,7.0298,7.0255,7.0211,7.0185,7.014,7.003,6.9975,6.9929,6.991,6.9901,6.9901,6.9901,6.9901,6.9749,6.9749,6.9626,6.9437,6.937,6.9484,6.9181,6.9247,6.8716,6.8413,6.8224,6.7807,6.7655,6.7731,6.7693,6.7504,6.7276,6.7087,6.7011,6.6708,6.667,6.6442,6.6025,6.5874,6.56,6.4993,6.4917,6.4955,6.5078,6.5078,6.504,6.4917,6.4917,6.4917,6.4917,6.4917,6.4917,6.4917,6.4917,6.4917,6.4917,6.4917,6.4917,6.4917,6.4917,6.4917,6.4917,6.4917,6.4917,6.4917,6.4917,6.4917,6.4917,6.4917,6.4917,6.4917,6.4909,6.4862,6.4781,6.4643,6.4511,6.4326,6.4094,6.384,6.3531,6.3135,6.2705,6.2446,6.2154,6.195,6.182,6.1658,6.153,6.1487,6.1401,6.127,6.1226,6.1152,6.1123,6.1108,6.1093,6.1093,6.1093,6.1093,6.1093,6.1093,6.1093,6.1093,6.1093,6.1093,6.1093,7.0411,7.0411,7.0411,7.0411,7.0411,7.0411,7.0411,7.0411,7.0411,7.0394,7.0361,7.0344,7.0328,7.0294,7.0286,7.0217,7.014,7.0021,6.9957,6.992,6.9901,6.9901,6.9901,6.9901,6.9901,6.9901,6.9901,6.9901,6.9901,6.9863,6.9901,6.9787,6.9446,6.9285,6.9209,6.8953,6.8641,6.865,6.8641,6.8413,6.7996,6.7693,6.7428,6.739,6.7428,6.7162,6.6935,6.6783,6.6632,6.6329,6.6215,6.6177,6.6139,6.6063,6.5798,6.5154,6.4955,6.4926,6.4926,6.4917,6.4917,6.4917,6.4917,6.4917,6.4917,6.4917,6.4917,6.4917,6.4917,6.4917,6.4917,6.4917,6.4917,6.4917,6.4917,6.4917,6.4917,6.4917,6.4917,6.4917,6.4917,6.4862,6.4826,6.4726,6.4606,6.4366,6.4125,6.3862,6.3624,6.3159,6.2692,6.242,6.2154,6.2019,6.1904,6.177,6.1686,6.1644,6.153,6.1415,6.1299,6.1226,6.1152,6.1093,6.1093,6.1093,6.1093,6.1093,6.1093,6.1093,6.1093,6.1093,6.1093,6.1093,6.1093,7.0907,7.0916,7.0946,7.0907,7.0907,7.0946,7.0984,7.0907,7.0984,7.1022,7.0907,7.0984,7.0984,7.0907,7.0768,7.0633,7.044,7.0228,6.9994,6.9948,6.991,6.9901,6.9901,6.9901,6.9901,6.9901,6.9901,6.9901,6.9901,6.9901,6.9901,6.9863,6.9901,6.9901,6.9787,6.9636,6.9901,6.9901,6.9863,6.9484,6.8877,6.8262,6.7883,6.7883,6.7883,6.7883,6.7655,6.7617,6.7466,6.7314,6.7238,6.7314,6.7352,6.739,6.6746,6.5646,6.5259,6.5154,6.5154,6.4917,6.4917,6.4917,6.4917,6.4917,6.4917,6.4917,6.4917,6.4917,6.4917,6.4917,6.4917,6.4917,6.4917,6.4917,6.4917,6.4917,6.4917,6.4917,6.4917,6.4917,6.4917,6.4909,6.4835,6.4726,6.4596,6.4415,6.4176,6.3851,6.359,6.3111,6.2679,6.2381,6.2141,6.2046,6.1987,6.1895,6.184,6.1812,6.1686,6.1544,6.1415,6.1299,6.1226,6.1152,6.1093,6.1093,6.1093,6.1093,6.1093,6.1093,6.1093,6.1093,6.1093,6.1093,6.1093,7.2673,7.2673,7.2673,7.2711,7.2635,7.2597,7.2635,7.2597,7.2559,7.2711,7.2444,7.2597,7.252,7.2367,7.1794,7.1545,7.1213,7.0765,7.0409,7.0308,7.0119,7.0015,6.9939,6.9901,6.9901,6.9901,6.9901,6.9901,6.9901,6.9901,6.9901,6.9901,6.9901,6.9901,6.9901,6.9901,6.9901,6.9901,6.9901,6.9825,6.9702,6.9512,6.9446,6.9446,6.9408,6.9096,6.8565,6.8451,6.8224,6.7655,6.7504,6.7428,6.739,6.739,6.7352,6.6935,6.648,6.595,6.5912,6.5533,6.5116,6.5116,6.504,6.4917,6.4917,6.4917,6.4917,6.4917,6.4917,6.4917,6.4917,6.4917,6.4917,6.4917,6.4917,6.4917,6.4917,6.4917,6.4917,6.4871,6.4871,6.4871,6.4853,6.4717,6.4577,6.4443,6.4216,6.3883,6.3497,6.3039,6.259,6.2262,6.2114,6.2019,6.2028,6.1937,6.1923,6.1923,6.1798,6.1658,6.1544,6.143,6.1314,6.1241,6.1167,6.1108,6.1093,6.1093,6.1093,6.1093,6.1093,6.1093,6.1093,6.1093,6.1093,7.3866,7.3017,7.2979,7.2979,7.2979,7.2979,7.2979,7.2979,7.2979,7.2979,7.2979,7.2979,7.2979,7.2949,7.2567,7.2402,7.2192,7.1752,7.1539,7.118,7.0868,7.0621,7.047,7.0128,6.9901,6.9939,6.9901,6.9901,6.9901,6.9901,6.9901,6.9901,6.9901,6.9901,6.9901,6.9901,6.9901,6.9901,6.9901,6.9901,6.9901,6.9901,6.9901,6.9901,6.9901,6.9636,6.9437,6.9332,6.9219,6.883,6.883,6.883,6.883,6.884,6.884,6.8754,6.7996,6.7352,6.6897,6.648,6.6063,6.5684,6.5533,6.5419,6.5078,6.4955,6.4955,6.4917,6.4917,6.4917,6.4917,6.4917,6.4917,6.4917,6.4917,6.4917,6.4917,6.4917,6.4917,6.4862,6.4844,6.4835,6.4808,6.469,6.4568,6.4462,6.4186,6.384,6.3417,6.2929,6.2488,6.2087,6.2019,6.2041,6.2028,6.1978,6.1964,6.195,6.1854,6.1728,6.1686,6.1573,6.1444,6.1299,6.1182,6.1138,6.1108,6.1093,6.1093,6.1093,6.1093,6.1093,6.1093,6.1093,6.1093,7.4745,7.3637,7.3637,7.3637,7.3628,7.3637,7.3667,7.3637,7.3667,7.3675,7.3637,7.3675,7.3675,7.3522,7.3437,7.325,7.3113,7.2855,7.2641,7.2282,7.1883,7.1484,7.1199,7.0697,7.0242,7.0204,6.9967,6.9901,6.9901,6.9901,6.9901,6.9901,6.9901,6.9901,6.9901,6.9901,6.9901,6.9901,6.9901,6.9901,6.9901,6.9901,6.9901,6.9901,6.9901,6.9901,6.9901,6.9863,6.9825,6.9787,6.9711,6.9636,6.9673,6.9636,6.9636,6.956,6.9029,6.8641,6.8072,6.7579,6.7125,6.667,6.6404,6.6215,6.576,6.5419,6.5229,6.5305,6.4955,6.4955,6.4917,6.4917,6.4917,6.4917,6.4917,6.4917,6.4917,6.4917,6.4917,6.4862,6.4835,6.4743,6.4698,6.4587,6.4501,6.4434,6.4166,6.3786,6.3312,6.278,6.241,6.2033,6.2028,6.2028,6.2028,6.2028,6.2028,6.2014,6.1882,6.184,6.1798,6.17,6.1559,6.1401,6.127,6.1211,6.1197,6.1152,6.1093,6.1093,6.1093,6.1093,6.1093,6.1093,6.1093,7.5433,7.5318,7.528,7.5242,7.5242,7.5318,7.528,7.5089,7.5204,7.5165,7.5089,7.5242,7.5089,7.5051,7.4431,7.4116,7.4061,7.3181,7.3045,7.2831,7.251,7.2376,7.2063,7.1541,7.1,7.0924,7.0621,7.0242,6.9977,7.0166,7.0015,6.9901,6.9939,6.9901,6.9901,6.9901,6.9901,6.9901,6.9901,6.9901,6.9901,6.9901,6.9901,6.9901,6.9901,6.9901,6.9901,6.9901,6.9901,6.9901,6.9901,6.9901,6.9901,6.9901,6.9901,6.9825,6.9749,6.9446,6.9181,6.8375,6.7579,6.7352,6.72,6.7049,6.6783,6.6329,6.6101,6.5988,6.5637,6.5183,6.5078,6.4917,6.5107,6.4917,6.4917,6.4917,6.4917,6.4917,6.4917,6.4862,6.4779,6.4698,6.4596,6.4482,6.4415,6.4384,6.392,6.3553,6.3087,6.259,6.2318,6.2073,6.2019,6.2028,6.2028,6.2028,6.2028,6.2028,6.195,6.1937,6.195,6.1812,6.1644,6.1587,6.1473,6.1386,6.1299,6.127,6.1226,6.1138,6.1093,6.1093,6.1093,6.1093,6.1093,7.5509,7.5509,7.5509,7.5509,7.5509,7.5509,7.5509,7.5509,7.5509,7.5509,7.5509,7.5509,7.5509,7.5395,7.528,7.5004,7.4957,7.4602,7.431,7.4037,7.3745,7.3336,7.2936,7.248,7.191,7.1834,7.1531,7.1455,7.1455,7.0924,7.0659,7.0545,7.0204,6.9939,6.9901,6.9901,6.9901,6.9901,6.9901,6.9901,6.9901,6.9901,6.9901,6.9901,6.9901,6.9901,6.9901,6.9901,6.9901,6.9901,6.9901,6.9901,6.9901,6.9901,6.9901,6.9901,6.9901,6.9901,6.9901,6.9219,6.8754,6.8072,6.7731,6.7466,6.7579,6.7087,6.6935,6.6783,6.6556,6.6139,6.5722,6.5646,6.5571,6.5107,6.4955,6.4993,6.4955,6.4993,6.4917,6.4871,6.4763,6.4615,6.4492,6.4366,6.4344,6.4264,6.3775,6.3275,6.2867,6.2475,6.2262,6.2087,6.2019,6.2028,6.2028,6.2028,6.2028,6.2028,6.2028,6.2028,6.1978,6.1868,6.1728,6.17,6.1694,6.153,6.1458,6.143,6.1357,6.1226,6.1152,6.1093,6.1093,6.1108,6.1108,7.5509,7.5509,7.5509,7.5509,7.5509,7.5509,7.5509,7.5509,7.5509,7.5509,7.5509,7.5509,7.5509,7.5509,7.5471,7.5471,7.5415,7.5295,7.5279,7.4978,7.4552,7.4248,7.3877,7.3363,7.2783,7.2716,7.2441,7.2289,7.2175,7.1758,7.1569,7.1266,7.0697,7.0318,6.9901,6.9901,6.9901,6.9901,6.9901,6.9901,6.9901,6.9901,6.9901,6.9901,6.9901,6.9901,6.9901,6.9901,6.9901,6.9901,6.9901,6.9901,6.9901,6.9901,6.9901,6.9901,6.9901,6.9901,6.9901,6.9825,6.9598,6.902,6.8641,6.83,6.8119,6.7921,6.7769,6.7731,6.7542,6.7162,6.6518,6.648,6.6404,6.6101,6.5571,6.5457,6.5296,6.5221,6.5031,6.4917,6.4745,6.4606,6.4434,6.4287,6.4073,6.3937,6.3542,6.3135,6.278,6.2423,6.2208,6.2073,6.2005,6.2028,6.2028,6.2028,6.2028,6.2028,6.2028,6.2028,6.1964,6.1868,6.184,6.184,6.177,6.1672,6.1601,6.1559,6.1444,6.1314,6.127,6.1255,6.1197,6.1197,6.1138,7.5509,7.5509,7.5509,7.5509,7.5509,7.5509,7.5509,7.5509,7.5509,7.5509,7.5509,7.5509,7.5509,7.5509,7.5509,7.5509,7.5509,7.5501,7.5418,7.5261,7.513,7.5038,7.4705,7.4133,7.3647,7.3388,7.3151,7.2858,7.263,7.2479,7.2403,7.2137,7.1531,7.0697,6.9977,6.9901,6.9901,6.9901,6.9901,6.9901,6.9901,6.9901,6.9901,6.9901,6.9901,6.9901,6.9901,6.9901,6.9901,6.9901,6.9901,6.9901,6.9901,6.9901,6.9901,6.9901,6.9901,6.9901,6.9901,6.9901,6.9787,6.9711,6.9332,6.9408,6.9484,6.9143,6.8603,6.8565,6.8148,6.7693,6.7428,6.7352,6.7276,6.6897,6.6329,6.6063,6.595,6.5524,6.5334,6.5165,6.484,6.4577,6.4433,6.4216,6.3894,6.361,6.3254,6.2929,6.2629,6.2394,6.2128,6.206,6.2028,6.2028,6.2028,6.2028,6.2028,6.2028,6.2028,6.2028,6.2028,6.195,6.1937,6.195,6.1895,6.1784,6.1728,6.1686,6.1615,6.1559,6.1516,6.1473,6.1386,6.1314,6.1285,7.5509,7.5509,7.5509,7.5509,7.5509,7.5509,7.5509,7.5509,7.5509,7.5509,7.5509,7.5509,7.5509,7.5509,7.5509,7.5509,7.5509,7.5509,7.5474,7.5418,7.5356,7.5246,7.4981,7.4742,7.4474,7.4422,7.4099,7.3947,7.4136,7.353,7.3227,7.2989,7.2279,7.1228,7.028,6.9901,6.9901,6.9901,6.9901,6.9901,6.9901,6.9901,6.9901,6.9901,6.9901,6.9901,6.9901,6.9901,6.9901,6.9901,6.9901,6.9901,6.9901,6.9901,6.9901,6.9901,6.9901,6.9901,6.9901,6.9901,6.9901,6.9901,6.9901,6.9901,6.9825,6.9673,6.9484,6.9399,6.9067,6.8641,6.8375,6.8224,6.8034,6.7428,6.6973,6.6973,6.6783,6.613,6.5742,6.5508,6.5256,6.4651,6.4324,6.4213,6.3894,6.3553,6.3242,6.2867,6.2539,6.2288,6.2033,6.2019,6.2028,6.2028,6.2028,6.2028,6.2028,6.2028,6.2028,6.2028,6.2028,6.2028,6.1992,6.1978,6.195,6.1909,6.1868,6.1826,6.1854,6.184,6.1728,6.163,6.153,6.1487,6.1487,7.5509,7.5509,7.5509,7.5509,7.5509,7.5509,7.5509,7.5509,7.5509,7.5509,7.5509,7.5509,7.5509,7.5509,7.5509,7.5509,7.5509,7.5509,7.5509,7.5501,7.5409,7.532,7.5218,7.5114,7.4912,7.4965,7.4905,7.4846,7.4733,7.4278,7.3861,7.3482,7.3075,7.2166,7.1228,7.0887,7.0697,7.0583,7.0422,7.0195,7.0015,6.9901,6.9901,6.9901,6.9901,6.9901,6.9901,6.9901,6.9901,6.9939,6.9901,6.9901,6.9901,6.9901,6.9901,6.9901,6.9901,6.9901,6.9901,6.9901,6.9901,6.9901,6.9901,6.9901,6.9901,6.9825,6.9825,6.9825,6.9901,6.9598,6.9133,6.8982,6.8754,6.8148,6.7921,6.7921,6.7617,6.7002,6.6538,6.6265,6.5709,6.5019,6.4339,6.4111,6.3953,6.3587,6.3242,6.2867,6.25,6.2262,6.2019,6.2028,6.2028,6.2028,6.2028,6.2028,6.2028,6.2028,6.2028,6.2028,6.2028,6.2028,6.2028,6.2028,6.1964,6.1964,6.1978,6.1978,6.195,6.1923,6.1854,6.1756,6.1708,6.168,6.1644,7.5509,7.5509,7.5509,7.5509,7.5509,7.5509,7.5509,7.5509,7.5509,7.5509,7.5509,7.5509,7.5509,7.5509,7.5509,7.5509,7.5509,7.5509,7.5509,7.5509,7.5492,7.5383,7.5301,7.5209,7.5104,7.5007,7.4927,7.4915,7.4895,7.4695,7.4316,7.3937,7.3747,7.3151,7.2668,7.2403,7.1986,7.1455,7.1152,7.0887,7.0621,7.0318,7.0432,7.0432,7.0432,7.0432,7.0394,7.0394,7.0242,7.0128,7.0015,6.9977,6.9939,6.9901,6.9901,6.9901,6.9901,6.9901,6.9901,6.9901,6.9901,6.9901,6.9901,6.9901,6.9901,6.9901,6.9901,6.9901,6.9901,6.9901,6.9787,6.9749,6.9673,6.9257,6.8915,6.8754,6.8527,6.8063,6.7561,6.7089,6.6437,6.5727,6.4815,6.4418,6.4267,6.3691,6.3324,6.2953,6.259,6.2318,6.2128,6.2028,6.2028,6.2028,6.2028,6.2028,6.2028,6.2028,6.2028,6.2028,6.2028,6.2028,6.2028,6.2028,6.2028,6.2028,6.2028,6.2028,6.2028,6.195,6.1923,6.1882,6.1834,6.1834,6.177,7.5509,7.5509,7.5509,7.5509,7.5509,7.5509,7.5509,7.5509,7.5509,7.5509,7.5509,7.5509,7.5509,7.5509,7.5509,7.5509,7.5509,7.5509,7.5509,7.5509,7.5509,7.5401,7.5338,7.5274,7.5133,7.5027,7.4977,7.4927,7.4905,7.4884,7.4846,7.4581,7.4392,7.4212,7.4136,7.4136,7.3189,7.2403,7.21,7.1758,7.1569,7.1455,7.1493,7.1455,7.1455,7.1417,7.1455,7.1493,7.1304,7.0849,7.0773,7.0583,6.9901,6.9901,6.9901,6.9901,6.9901,6.9901,6.9901,6.9901,6.9901,6.9901,6.9901,6.9901,6.9901,6.9901,6.9901,6.9901,6.9901,6.9901,6.9901,6.9901,6.9901,6.9673,6.9446,6.9361,6.9124,6.8745,6.8272,6.7742,6.7126,6.6329,6.5424,6.503,6.4784,6.4037,6.3431,6.3039,6.2667,6.237,6.2145,6.2033,6.2028,6.2028,6.2028,6.2028,6.2028,6.2028,6.2028,6.2028,6.2028,6.2028,6.2028,6.2028,6.2028,6.2028,6.2028,6.2028,6.2028,6.2028,6.1964,6.195,6.1937,6.1909,6.1895,7.5509,7.5509,7.5509,7.5509,7.5509,7.5509,7.5509,7.5509,7.5509,7.5509,7.5509,7.5509,7.5509,7.5509,7.5509,7.5509,7.5509,7.5509,7.5509,7.5509,7.5509,7.5436,7.5392,7.5329,7.5217,7.5114,7.5056,7.4977,7.4945,7.4895,7.4846,7.4846,7.4884,7.4884,7.4809,7.4657,7.4326,7.3606,7.3075,7.2744,7.2554,7.2479,7.2403,7.2479,7.2479,7.2479,7.2479,7.2479,7.21,7.172,7.1607,7.1417,7.0811,7.0659,7.0394,7.0356,7.0053,6.9939,6.9901,6.9901,6.9901,6.9901,6.9901,6.9901,6.9901,6.9901,6.9901,6.9901,6.9901,6.9901,6.9901,6.9901,6.9901,6.9863,6.9863,6.9863,6.9588,6.9265,6.8857,6.8363,6.7716,6.6951,6.6324,6.5886,6.5266,6.447,6.3795,6.326,6.2799,6.2331,6.2132,6.2019,6.1992,6.2028,6.2028,6.2028,6.2028,6.2028,6.2028,6.2028,6.2028,6.2028,6.2028,6.2028,6.2028,6.2028,6.2028,6.2028,6.2028,6.2028,6.2028,6.1978,6.1964,6.1964,6.1964,7.5509,7.5509,7.5509,7.5509,7.5509,7.5509,7.5509,7.5509,7.5509,7.5509,7.5509,7.5509,7.5509,7.5509,7.5509,7.5509,7.5509,7.5509,7.5509,7.5509,7.5509,7.5492,7.5427,7.5374,7.532,7.5255,7.5171,7.5065,7.4987,7.4955,7.4884,7.4884,7.4884,7.4884,7.4884,7.4884,7.4657,7.4478,7.3937,7.3492,7.2999,7.2706,7.2592,7.2744,7.2782,7.2744,7.2706,7.263,7.2554,7.2554,7.2479,7.2441,7.1986,7.1645,7.1304,7.1076,7.0735,7.0394,7.028,7.0204,7.0015,6.9977,6.9901,6.9901,6.9901,6.9901,6.9901,6.9901,6.9901,6.9901,6.9901,6.9901,6.9901,6.9901,6.9901,6.9901,6.9759,6.9463,6.9154,6.8713,6.8291,6.753,6.6838,6.6355,6.5759,6.4939,6.4291,6.3683,6.3208,6.2652,6.23,6.215,6.1992,6.2028,6.2028,6.2028,6.2028,6.2028,6.2028,6.2028,6.2028,6.2028,6.2028,6.2028,6.2028,6.2028,6.2028,6.2028,6.2028,6.2028,6.2028,6.2028,6.2028,6.2028,6.1992,7.5509,7.5509,7.5509,7.5509,7.5509,7.5509,7.5509,7.5509,7.5509,7.5509,7.5509,7.5509,7.5509,7.5509,7.5509,7.5509,7.5509,7.5509,7.5509,7.5509,7.5509,7.5509,7.5509,7.5436,7.5392,7.5329,7.5208,7.5142,7.5017,7.4955,7.4884,7.4884,7.4884,7.4884,7.4884,7.4884,7.4884,7.4857,7.4619,7.4354,7.4099,7.4212,7.4288,7.425,7.4212,7.4099,7.4099,7.4174,7.3833,7.3482,7.3378,7.2999,7.2403,7.2175,7.21,7.2024,7.1758,7.1304,7.0962,7.0773,7.0583,7.0128,6.9977,6.9901,6.9901,6.9901,6.9901,6.9901,6.9901,6.9901,6.9901,6.9901,6.9901,6.9901,6.9891,6.9891,6.9891,6.9632,6.9365,6.9042,6.8686,6.8107,6.7374,6.6758,6.6174,6.5568,6.4953,6.442,6.3957,6.3461,6.2803,6.2549,6.21,6.2028,6.2028,6.2028,6.2028,6.2028,6.2028,6.2028,6.2028,6.2028,6.2028,6.2028,6.2028,6.2028,6.2028,6.2028,6.2028,6.2028,6.2028,6.2028,6.2028,6.2028,6.2028,7.6609,7.6579,7.6159,7.5815,7.5548,7.5509,7.5509,7.5509,7.5509,7.5509,7.5509,7.5509,7.5509,7.5509,7.5509,7.5509,7.5509,7.5509,7.5509,7.5509,7.5509,7.5509,7.5509,7.5509,7.5483,7.5392,7.5274,7.5152,7.5036,7.4917,7.4884,7.4895,7.4895,7.4884,7.4884,7.4884,7.4884,7.4884,7.4884,7.4884,7.4884,7.4884,7.4884,7.4884,7.4884,7.4884,7.4884,7.4884,7.4619,7.4316,7.4202,7.4099,7.3606,7.3189,7.2999,7.281,7.2554,7.2213,7.1834,7.1569,7.1304,7.0735,7.0432,7.0545,6.9901,6.9901,6.9901,6.9901,6.9901,6.9901,6.9901,6.9901,6.9901,6.9901,6.9882,6.9863,6.9795,6.961,6.9347,6.9063,6.8728,6.8446,6.7836,6.7469,6.6795,6.5933,6.5364,6.4922,6.4551,6.4263,6.3627,6.3056,6.268,6.2173,6.2028,6.2028,6.2028,6.2028,6.2028,6.2028,6.2028,6.2028,6.2028,6.2028,6.2028,6.2028,6.2028,6.2028,6.2028,6.2028,6.2028,6.2028,6.2028,6.2028,6.2028,7.7946,7.7908,7.7182,7.6494,7.5853,7.57,7.57,7.5662,7.5548,7.5509,7.5509,7.5509,7.5509,7.5509,7.5509,7.5509,7.5509,7.5509,7.5509,7.5509,7.5509,7.5509,7.5509,7.5509,7.5501,7.5439,7.5292,7.5199,7.5095,7.4977,7.4935,7.4915,7.4895,7.4884,7.4884,7.4884,7.4884,7.4884,7.4884,7.4884,7.4884,7.4884,7.4884,7.4884,7.4884,7.4884,7.4884,7.4884,7.4884,7.4846,7.4733,7.4657,7.4516,7.4061,7.3899,7.3672,7.3378,7.2971,7.2592,7.2517,7.2024,7.1531,7.1332,7.0953,7.0356,7.009,7.009,6.9939,6.9939,6.9901,6.9901,6.9901,6.9901,6.9901,6.9872,6.9824,6.9707,6.9587,6.9359,6.905,6.8789,6.8565,6.8185,6.7826,6.7226,6.6354,6.5831,6.54,6.5032,6.4873,6.4519,6.3961,6.3512,6.2969,6.2354,6.2136,6.2173,6.2028,6.2028,6.2028,6.2028,6.2028,6.2028,6.2028,6.2028,6.2028,6.2028,6.2028,6.2028,6.2028,6.2028,6.2028,6.2028,6.2028,6.2028,7.8022,7.7984,7.7831,7.764,7.7411,7.6761,7.6494,7.635,7.5815,7.5509,7.5586,7.5509,7.5509,7.5509,7.5509,7.5509,7.5509,7.5509,7.5509,7.5509,7.5509,7.5509,7.5509,7.5509,7.5509,7.5418,7.5347,7.5292,7.519,7.5056,7.4977,7.4977,7.4915,7.4895,7.4884,7.4884,7.4884,7.4884,7.4884,7.4884,7.4884,7.4884,7.4884,7.4884,7.4884,7.4884,7.4884,7.4884,7.4884,7.4884,7.4884,7.4884,7.4809,7.4657,7.4543,7.4392,7.4136,7.3833,7.3568,7.3416,7.2924,7.2289,7.2062,7.1758,7.1266,7.0924,7.0659,7.009,7.0053,6.9977,6.9939,6.9901,6.9901,6.9901,6.9882,6.9776,6.9695,6.9556,6.9401,6.9027,6.8684,6.8383,6.8006,6.765,6.7286,6.6668,6.6525,6.6142,6.6018,6.5714,6.5337,6.4903,6.4396,6.3744,6.3142,6.2512,6.2354,6.2173,6.2028,6.2028,6.2028,6.2028,6.2028,6.2028,6.2028,6.2028,6.2028,6.2028,6.2028,6.2028,6.2028,6.2028,6.2028,6.2028,6.2028]}]]